[[{"header":{"parameterUnit":"m.s-1","parameterCategory":1,"la1":30.6,"la2":29.2853,"lo1":-89.7004,"lo2":-87.6739,"dy":0.0162,"dx":0.0183,"nx":112,"ny":82,"refTime":"2024-07-11T06:00:00:Z","depth":0,"parameterNumber":2,"parameterNumberName":"U-component_of_WINDS"},"data":[0.0,0.0,0.0,0.0,0.0,0.0,0.0,0.0,0.0,0.0,0.0,0.0,0.0,0.0,0.0,0.0,0.0,0.0,0.0,0.0,0.0,0.0,0.0,0.0,0.0,0.0,0.0,0.0,0.0,0.0,0.0,0.0,0.0,0.0,0.0,0.0,0.0,0.0,0.0,0.0,0.0,0.0,0.0,0.0,0.0,0.0,0.0,0.0,0.0,0.0,0.0,0.0,0.0,0.0,0.0,0.0,0.0,0.0,0.0,0.0,0.0,0.0,0.0,0.0,0.0,0.0,0.0,0.0,0.0,0.0,0.0,0.0,0.0,0.0,0.0,0.0,0.0,0.0,0.0,0.0,0.0,0.0,0.0,0.0,0.0,0.0,0.0,0.0,0.0,0.0,0.392,0.4194,0.4883,0.527,0.5221,0.5024,0.4543,0.3756,0.0,0.0,0.0,0.0,0.0,0.0,0.0,0.0,0.0,0.0,0.0,0.0,0.0,0.0,0.0,0.0,0.0,0.0,0.0,0.0,0.0,0.0,0.0,0.0,0.0,0.0,0.0,0.0,0.0,0.0,0.0,0.0,0.0,0.0,0.0,0.0,0.0,0.0,0.0,0.0,0.0,0.0,0.0,0.0,0.0,0.0,0.0,0.0,0.0,0.0,0.0,0.0,0.0,0.0,0.0,0.0,0.0,0.0,0.0,0.0,0.0,0.0,0.0,0.0,0.0,0.0,0.0,0.0,0.0,0.0,0.0,0.0,0.0,0.0,0.0,0.0,0.0,0.0,0.0,0.0,0.0,0.0,0.0,0.0,0.0,0.0,0.0,0.0,0.0,0.0,0.0,0.0,0.0,0.0,0.0,0.0,0.0,0.0,0.0,0.0,0.0,0.0,0.0,0.0,0.3968,0.4401,0.435,0.4456,0.4845,0.4303,0.3844,0.3714,0.0,0.0,0.0,0.0,0.0,0.0,0.0,0.0,0.0,0.0,0.0,0.0,0.0,0.0,0.0,0.0,0.0,0.0,0.0,0.0,0.0,0.0,0.0,0.0,0.0,0.0,0.0,0.0,0.0,0.0,0.0,0.0,0.0,0.0,0.0,0.0,0.0,0.0,0.0,0.0,0.0,0.0,0.0,0.0,0.0,0.0,0.0,0.0,0.0,0.0,0.0,0.0,0.0,0.0,0.0,0.0,0.0,0.0,0.0,0.0,0.0,0.0,0.0,0.0,0.0,0.0,0.0,0.0,0.0,0.0,0.0,0.0,0.0,0.0,0.0,0.0,0.0,0.0,0.0,0.0,0.0,0.0,0.0,0.0,0.0,0.0,0.0,0.0,0.0,0.0,0.0,0.0,0.0,0.0,0.0,0.0,0.0,0.0,0.0,0.0,0.0,0.0,0.0,0.3729,0.396,0.4332,0.4271,0.4276,0.4495,0.416,0.3766,0.3453,0.3335,0.0,0.0,0.0,0.0,0.0,0.0,0.0,0.0,0.0,0.0,0.0,0.0,0.0,0.0,0.0,0.0,0.0,0.0,0.0,0.0,0.0,0.0,0.0,0.0,0.0,0.0,0.0,0.0,0.0,0.0,0.0,0.0,0.0,0.0,0.0,0.0,0.0,0.0,0.0,0.0,0.0,0.0,0.0,0.0,0.0,0.0,0.0,0.0,0.0,0.0,0.0,0.0,0.0,0.0,0.0,0.0,0.0,0.0,0.0,0.0,0.0,0.0,0.0,0.0,0.0,0.0,0.0,0.0,0.0,0.0,0.0,0.0,0.0,0.0,0.0,0.0,0.0,0.0,0.0,0.0,0.0,0.0,0.0,0.0,0.0,0.0,0.0,0.0,0.0,0.0,0.0,0.0,0.0,0.0,0.0,0.0,0.0,0.0,0.0,0.0,0.0,0.0,0.3912,0.3919,0.4262,0.4316,0.4316,0.4316,0.4113,0.3766,0.3249,0.303,0.0,0.0,0.0,0.0,0.0,0.0,0.0,0.0,0.0,0.0,0.0,0.0,0.0,0.0,0.0,0.0,0.0,0.0,0.0,0.0,0.0,0.0,0.0,0.0,0.0,0.0,0.0,0.0,0.0,0.0,0.0,0.0,0.0,0.0,0.0,0.0,0.0,0.0,0.0,0.0,0.0,0.0,0.0,0.0,0.0,0.0,0.0,0.0,0.0,0.0,0.0,0.0,0.0,0.0,0.0,0.0,0.0,0.0,0.0,0.0,0.0,0.0,0.0,0.0,0.0,0.0,0.0,0.0,0.0,0.0,0.0,0.0,0.0,0.0,0.0,0.0,0.0,0.0,0.0,0.0,0.0,0.0,0.0,0.0,0.0,0.0,0.0,0.0,0.0,0.0,0.0,0.0,0.0,0.0,0.0,0.0,0.0,0.0,0.0,0.0,0.0,0.0,0.3697,0.3862,0.4275,0.4316,0.4316,0.4316,0.3931,0.3577,0.3232,0.2899,0.0,0.0,0.0,0.0,0.0,0.0,0.0,0.0,0.0,0.0,0.0,0.0,0.0,0.0,0.0,0.0,0.0,0.0,0.0,0.0,0.0,0.0,0.0,0.0,0.0,0.0,0.0,0.0,0.0,0.0,0.0,0.0,0.0,0.0,0.0,0.0,0.0,0.0,0.0,0.0,0.0,0.0,0.0,0.0,0.0,0.0,0.0,0.0,0.0,0.0,0.0,0.0,0.0,0.0,0.0,0.0,0.0,0.0,0.0,0.0,0.0,0.0,0.0,0.0,0.0,0.0,0.0,0.0,0.0,0.0,0.0,0.0,0.0,0.0,0.0,0.0,0.0,0.0,0.0,0.0,0.0,0.0,0.0,0.0,0.0,0.0,0.0,0.0,0.0,0.0,0.0,0.0,0.0,0.0,0.0,0.0,0.0,0.0,0.0,0.0,0.0,0.0,0.3704,0.391,0.4267,0.4236,0.4192,0.4192,0.3882,0.3513,0.31,0.0,0.0,0.0,0.0,0.0,0.0,0.0,0.0,0.0,0.0,0.0,0.0,0.0,0.0,0.0,0.0,0.0,0.0,0.0,0.0,0.0,0.0,0.0,0.0,0.0,0.0,0.0,0.0,0.0,0.0,0.0,0.0,0.0,0.0,0.0,0.0,0.0,0.0,0.0,0.0,0.0,0.0,0.0,0.0,0.0,0.0,0.0,0.0,0.0,0.0,0.0,0.0,0.0,0.0,0.0,0.0,0.0,0.0,0.0,0.0,0.0,0.0,0.0,0.0,0.0,0.0,0.0,0.0,0.0,0.0,0.0,0.0,0.0,0.0,0.0,0.0,0.0,0.0,0.0,0.0,0.0,0.0,0.0,0.0,0.0,0.0,0.0,0.0,0.0,0.0,0.0,0.0,0.0,0.0,0.0,0.0,0.0,0.0,0.0,0.0,0.0,0.0,0.3433,0.366,0.3898,0.4184,0.4148,0.4064,0.402,0.372,0.3392,0.3029,0.0,0.0,0.0,0.0,0.0,0.0,0.0,0.0,0.0,0.0,0.0,0.0,0.0,0.0,0.0,0.0,0.0,0.0,0.0,0.0,0.0,0.0,0.0,0.0,0.0,0.0,0.0,0.0,0.0,0.0,0.0,0.0,0.0,0.0,0.0,0.0,0.0,0.0,0.0,0.0,0.0,0.0,0.0,0.0,0.0,0.0,0.0,0.0,0.0,0.0,0.0,0.0,0.0,0.0,0.0,0.0,0.0,0.0,0.0,0.0,0.0,0.0,0.0,0.0,0.0,0.0,0.0,0.0,0.0,0.0,0.0,0.0,0.0,0.0,0.0,0.0,0.0,0.0,0.0,0.0,0.0,0.0,0.0,0.0,0.0,0.0,0.0,0.0,0.0,0.0,0.0,0.0,0.0,0.0,0.0,0.0,0.0,0.0,0.0,0.0,0.0,0.0,0.3196,0.3485,0.3802,0.4073,0.4108,0.4064,0.3924,0.3473,0.3154,0.0,0.0,0.0,0.0,0.0,0.0,0.0,0.0,0.0,0.0,0.0,0.0,0.0,0.0,0.0,0.0,0.0,0.0,0.0,0.0,0.0,0.0,0.0,0.0,0.0,0.0,0.0,0.0,0.0,0.0,0.0,0.0,0.0,0.0,0.0,0.0,0.0,0.0,0.0,0.0,0.0,0.0,0.0,0.0,0.0,0.0,0.0,0.0,0.0,0.0,0.0,0.0,0.0,0.0,0.0,0.0,0.0,0.0,0.0,0.0,0.0,0.0,0.0,0.0,0.0,0.0,0.0,0.0,0.0,0.0,0.0,0.0,0.0,0.0,0.0,0.0,0.0,0.0,0.0,0.0,0.0,0.0,0.0,0.0,0.0,0.0,0.0,0.0,0.0,0.0,0.0,0.0,0.0,0.0,0.0,0.0,0.0,0.0,0.0,0.0,0.0,0.0,0.0,0.318,0.3634,0.3983,0.4208,0.406,0.3928,0.388,0.3417,0.3057,0.2863,0.0,0.0,0.0,0.0,0.0,0.0,0.0,0.0,0.0,0.0,0.0,0.0,0.0,0.0,0.0,0.0,0.0,0.0,0.0,0.0,0.0,0.0,0.0,0.0,0.0,0.0,0.0,0.0,0.0,0.0,0.0,0.0,0.0,0.0,0.0,0.0,0.0,0.0,0.0,0.0,0.0,0.0,0.0,0.0,0.0,0.0,0.0,0.0,0.0,0.0,0.0,0.0,0.0,0.0,0.0,0.0,0.0,0.0,0.0,0.0,0.0,0.0,0.0,0.0,0.0,0.0,0.0,0.0,0.0,0.0,0.0,0.0,0.0,0.0,0.0,0.0,0.0,0.0,0.0,0.0,0.0,0.0,0.0,0.0,0.0,0.0,0.0,0.0,0.0,0.0,0.0,0.0,0.0,0.0,0.0,0.0,0.0,0.0,0.0,0.0,0.0,0.0,0.3188,0.3679,0.4043,0.4125,0.4012,0.3884,0.3796,0.3392,0.3045,0.2719,0.0,0.0,0.0,0.0,0.0,0.0,0.0,0.0,0.0,0.0,0.0,0.0,0.0,0.0,0.0,0.0,0.0,0.0,0.0,0.0,0.0,0.0,0.0,0.0,0.0,0.0,0.0,0.0,0.0,0.0,0.0,0.0,0.0,0.0,0.0,0.0,0.0,0.0,0.0,0.0,0.0,0.0,0.0,0.0,0.0,0.0,0.0,0.0,0.0,0.0,0.0,0.0,0.0,0.0,0.0,0.0,0.0,0.0,0.0,0.0,0.0,0.0,0.0,0.0,0.0,0.0,0.0,0.0,0.0,0.0,0.0,0.0,0.0,0.0,0.0,0.0,0.0,0.0,0.0,0.0,0.0,0.0,0.0,0.0,0.0,0.0,0.0,0.0,0.0,0.0,0.0,0.0,0.0,0.0,0.0,0.0,0.0,0.0,0.0,0.0,0.0,0.0,0.3188,0.3657,0.3975,0.3913,0.388,0.3792,0.3622,0.3439,0.3059,0.2519,0.0,0.0,0.0,0.0,0.0,0.0,0.0,0.0,0.0,0.0,0.0,0.0,0.0,0.0,0.0,0.0,0.0,0.0,0.0,0.0,0.0,0.0,0.0,0.0,0.0,0.0,0.0,0.0,0.0,0.0,0.0,0.0,0.0,0.0,0.0,0.0,0.0,0.0,0.0,0.0,0.0,0.0,0.0,0.0,0.0,0.0,0.0,0.0,0.0,0.0,0.0,0.0,0.0,0.0,0.0,0.0,0.0,0.0,0.0,0.0,0.7454,0.6923,0.0,0.0,0.0,0.0,0.0,0.0,0.0,0.0,0.0,0.0,0.0,0.0,0.0,0.0,0.0,0.0,0.0,0.0,0.0,0.0,0.0,0.0,0.0,0.0,0.0,0.0,0.0,0.0,0.0,0.0,0.0,0.0,0.0,0.0,0.0,0.0,0.0,0.0,0.0,0.0,0.3204,0.3727,0.4069,0.406,0.388,0.3744,0.37,0.3432,0.3059,0.2446,0.2232,0.0,0.0,0.0,0.0,0.0,0.0,0.0,0.0,0.0,0.0,0.0,0.0,0.0,0.0,0.0,0.0,0.0,0.0,0.0,0.0,0.0,0.0,0.0,0.0,0.0,0.0,0.0,0.0,0.0,0.0,0.0,0.0,0.0,0.0,0.0,0.0,0.0,0.0,0.0,0.0,0.0,0.0,0.0,0.0,0.0,0.0,0.0,0.0,0.0,0.0,0.0,0.0,0.0,0.0,0.0,0.0,0.0,0.0,0.0,0.8521,0.7858,0.0,0.0,0.0,0.0,0.0,0.0,0.0,0.0,0.0,0.0,0.0,0.0,0.0,0.0,0.0,0.0,0.0,0.0,0.0,0.0,0.0,0.0,0.0,0.0,0.0,0.0,0.0,0.0,0.0,0.0,0.0,0.0,0.0,0.0,0.0,0.0,0.0,0.0,0.0,0.0,0.3223,0.3764,0.3972,0.3622,0.3542,0.333,0.2948,0.2797,0.2477,0.1958,0.1809,0.0,0.0,0.0,0.0,0.0,0.0,0.0,0.0,0.0,0.0,0.0,0.0,0.0,0.0,0.0,0.0,0.0,0.0,0.0,0.0,0.0,0.0,0.0,0.0,0.0,0.0,0.0,0.0,0.0,0.0,0.0,0.0,0.0,0.0,0.0,0.0,0.0,0.0,0.0,0.0,0.0,0.0,0.0,0.0,0.0,0.0,0.0,0.0,0.0,0.0,0.0,0.0,0.0,0.8943,0.9262,0.9967,0.967,0.9849,1.0353,0.9645,0.9024,0.8528,0.8419,0.0,0.0,0.0,0.0,0.0,0.0,0.0,0.0,0.0,0.0,0.0,0.0,0.0,0.0,0.0,0.0,0.0,0.0,0.0,0.0,0.0,0.0,0.6639,0.6076,0.6234,0.6162,0.4899,0.0,0.0,0.0,0.0,0.0,0.0,0.0,0.0,0.0,0.0,0.0,0.3323,0.3673,0.3711,0.3109,0.3083,0.2859,0.2174,0.2109,0.1888,0.143,0.1354,0.1147,0.0,0.0,0.0,0.0,0.0,0.0,0.0,0.0,0.0,0.0,0.0,0.0,0.0,0.0,0.0,0.0,0.0,0.0,0.0,0.0,0.0,0.0,0.0,0.0,0.0,0.0,0.0,0.0,0.0,0.0,0.0,0.0,0.5634,0.61,0.0,0.0,0.0,0.0,0.0,0.0,0.0,0.0,0.0,0.0,0.0,0.0,0.0,0.8758,0.9125,0.9733,1.0039,1.01,1.0625,1.0971,1.1074,1.1014,1.1049,1.1144,1.0795,0.0,0.9055,0.8827,0.0,0.0,0.0,0.0,0.0,0.0,0.0,0.0,0.0,0.0,0.0,0.0,0.0,0.0,0.0,0.0,0.0,0.0,0.0,0.0,0.0,0.0,0.7024,0.6941,0.6292,0.5538,0.5197,0.4868,0.4505,0.4151,0.3659,0.3291,0.0,0.0,0.0,0.0,0.0,0.0,0.353,0.336,0.3215,0.3262,0.2706,0.2322,0.2217,0.2145,0.1888,0.143,0.1318,0.1079,0.0574,0.0501,0.0,0.0,0.0,0.0,0.0,0.0,0.0,0.0,0.0,0.0,0.0,0.0,0.0,0.0,0.0,0.0,0.0,0.0,0.0,0.0,0.0,0.0,0.0,0.0,0.0,0.0,0.0,0.0,0.0,0.577,0.6421,0.6859,0.7155,0.723,0.0,0.0,0.0,0.0,0.0,0.0,0.0,0.0,0.0,0.9593,0.9978,1.0351,1.0703,1.1239,1.1506,1.1455,1.1799,1.1794,1.1651,1.1634,1.1527,1.1374,1.1212,1.0788,1.0136,0.9554,0.8812,0.8079,0.0,0.0,0.0,0.0,0.7895,0.7678,0.7836,0.7738,0.7512,0.7059,0.0,0.0,0.0,0.0,0.0,0.0,0.0,0.6527,0.6538,0.6678,0.6768,0.6473,0.6156,0.5859,0.577,0.5303,0.4746,0.4183,0.3953,0.374,0.3317,0.3142,0.0,0.0,0.0,0.3464,0.3734,0.3474,0.3134,0.2818,0.2272,0.1794,0.1435,0.1406,0.1277,0.1006,0.0963,0.0842,0.0616,0.0552,0.05,0.0,0.0,0.0,0.0,0.0,0.0,0.0,0.0,0.0,0.0,0.0,0.0,0.0,0.0,0.0,0.0,0.0,0.0,0.0,0.0,0.0,0.0,0.0,0.0,0.0,0.0,0.0,0.0,0.6533,0.7241,0.7645,0.804,0.8168,0.0,0.0,0.0,0.0,0.0,0.0,0.9398,1.0066,1.0565,1.0846,1.136,1.1739,1.1925,1.2252,1.2389,1.2389,1.2334,1.212,1.1913,1.1832,1.1664,1.1398,1.1341,1.1179,1.0925,1.0237,0.9463,0.8807,0.8818,0.868,0.8512,0.8855,0.8728,0.8415,0.8623,0.87,0.8528,0.7566,0.7332,0.7269,0.6514,0.0,0.0,0.0,0.0,0.6401,0.636,0.6447,0.64,0.6034,0.5993,0.5996,0.5996,0.5561,0.4978,0.4402,0.4272,0.4132,0.3564,0.3436,0.0,0.3436,0.3488,0.3571,0.3774,0.3442,0.2956,0.2336,0.1788,0.1301,0.084,0.0822,0.0802,0.0732,0.0702,0.0682,0.0716,0.0609,0.0527,0.0504,0.0,0.0,0.0,0.0,0.0,0.0,0.0,0.0,0.0,0.0,0.0,0.0,0.0,0.0,0.0,0.0,0.0,0.0,0.0,0.0,0.0,0.0,0.0,0.0,0.0,0.0,0.0,0.0,0.0,0.8385,0.8635,0.0,0.0,0.0,0.0,0.9696,1.011,1.06,1.1219,1.1661,1.1999,1.2269,1.2312,1.2346,1.2363,1.2381,1.2389,1.2389,1.2103,1.1944,1.1913,1.1567,1.1398,1.1398,1.1115,1.1009,1.0978,1.0591,1.0227,0.9893,0.9551,0.9367,0.9267,0.942,0.943,0.9419,0.9519,0.9394,0.909,0.8488,0.7431,0.6385,0.6299,0.6173,0.0,0.0,0.6531,0.6821,0.7019,0.6612,0.6195,0.6195,0.5773,0.5352,0.5352,0.5293,0.5225,0.5068,0.4657,0.428,0.4249,0.0,0.3806,0.3866,0.3854,0.3784,0.3456,0.2918,0.2368,0.1887,0.1301,0.0904,0.0901,0.0847,0.0812,0.081,0.0734,0.0704,0.0717,0.0711,0.0626,0.0505,0.0505,0.0,0.0,0.0,0.0,0.0,0.0,0.0,0.0,0.0,0.0,0.0,0.0,0.0,0.0,0.0,0.0,0.0,0.0,0.0,0.0,0.0,0.0,0.0,0.0,0.0,0.0,0.0,0.0,0.8303,0.9065,0.0,0.9603,0.965,0.9883,1.0441,1.043,1.0516,1.0755,1.128,1.1685,1.176,1.2402,1.2766,1.2766,1.2997,1.2999,1.2772,1.2646,1.2416,1.2007,1.1887,1.1707,1.1518,1.1034,1.0852,1.0831,1.0164,1.0086,1.0346,1.0228,0.9948,0.9646,0.9651,0.9528,0.9137,0.8544,0.8396,0.8416,0.7747,0.7231,0.6826,0.6925,0.6813,0.6764,0.6897,0.6671,0.6435,0.6514,0.605,0.5618,0.5618,0.5462,0.5297,0.5297,0.5297,0.5281,0.5105,0.499,0.4837,0.456,0.4417,0.4337,0.4147,0.3823,0.3588,0.3544,0.269,0.1988,0.1843,0.1274,0.0873,0.0907,0.0815,0.0784,0.0814,0.0736,0.0714,0.0703,0.0684,0.065,0.056,0.0513,0.0457,0.0,0.0,0.0,0.0,0.0,0.0,0.0,0.0,0.0,0.0,0.0,0.0,0.0,0.0,0.0,0.0,0.0,0.0,0.0,0.0,0.0,0.0,0.0,0.0,0.0,0.7752,0.8382,0.8495,0.9535,1.0084,0.9875,1.0053,1.0286,1.0621,1.06,1.061,1.061,1.112,1.1414,1.1414,1.2238,1.2614,1.2484,1.2773,1.2897,1.2851,1.2344,1.2103,1.1974,1.1597,1.1365,1.131,1.0926,1.0807,1.0787,1.0223,1.014,1.0349,1.0154,0.9897,0.955,0.955,0.9259,0.8768,0.8005,0.772,0.763,0.7196,0.687,0.6707,0.6814,0.6763,0.6692,0.6719,0.6368,0.5967,0.5905,0.5622,0.5297,0.5297,0.5297,0.5297,0.5242,0.5242,0.5183,0.5069,0.5124,0.5054,0.4673,0.446,0.4231,0.403,0.3514,0.3106,0.3007,0.2291,0.1734,0.1512,0.1121,0.089,0.0923,0.083,0.0799,0.078,0.0742,0.0719,0.0719,0.069,0.066,0.059,0.0524,0.0468,0.0394,0.0,0.0,0.0,0.0,0.0,0.0,0.0,0.0,0.0,0.0,0.0,0.0,0.0,0.0,0.0,0.0,0.0,0.0,0.0,0.0,0.0,0.0,0.0,0.7164,0.8607,0.9479,0.8934,0.9901,1.035,0.9881,0.969,0.9867,1.0379,1.0798,1.0986,1.0986,1.1323,1.1483,1.1483,1.1796,1.1811,1.1545,1.1682,1.1978,1.2497,1.1199,1.1028,1.1717,1.056,1.0308,1.0828,1.0771,1.0771,1.0764,1.0758,1.0428,0.9914,0.9329,0.9122,0.9063,0.9063,0.881,0.8434,0.8069,0.7537,0.6997,0.6997,0.6473,0.5888,0.5888,0.5888,0.5852,0.5669,0.5616,0.5571,0.5349,0.5305,0.5297,0.5297,0.5297,0.5242,0.5128,0.5069,0.5069,0.4901,0.4846,0.4846,0.4688,0.4073,0.3624,0.3569,0.307,0.0,0.1902,0.179,0.1568,0.0953,0.0898,0.0898,0.0898,0.0842,0.0806,0.0806,0.0752,0.0719,0.0719,0.0691,0.066,0.059,0.0541,0.0481,0.0397,0.0,0.0,0.0,0.0,0.0,0.0,0.0,0.0,0.0,0.0,0.0,0.0,0.0,0.0,0.0,0.0,0.0,0.0,0.0,0.0,0.0,0.7524,0.7813,0.7515,0.8475,0.9026,0.8633,0.9348,0.9887,1.001,1.012,1.0325,1.0721,1.0562,1.0463,1.0463,1.1062,1.1363,1.1363,1.1914,1.2447,1.2949,1.2719,1.2838,1.3309,1.2615,1.2092,1.1634,1.1343,1.0968,1.0706,1.0374,1.0245,1.0165,0.9632,0.9357,0.9257,0.9623,0.9357,0.8794,0.8794,0.8245,0.7429,0.7183,0.6777,0.6482,0.6242,0.6065,0.5888,0.5888,0.5888,0.5876,0.5827,0.5713,0.56,0.5555,0.5394,0.5297,0.5297,0.5242,0.5128,0.5124,0.5014,0.4791,0.4239,0.4128,0.4073,0.4073,0.3852,0.3572,0.3014,0.2458,0.2014,0.1846,0.14,0.1065,0.0898,0.0898,0.0898,0.0898,0.0842,0.0806,0.0806,0.0752,0.0719,0.0719,0.0712,0.0682,0.059,0.0582,0.0544,0.0,0.0,0.0,0.0,0.0,0.0,0.0,0.0,0.0,0.0,0.0,0.0,0.0,0.0,0.0,0.0,0.0,0.0,0.0,0.0,0.0,0.0,0.7908,0.8312,0.8104,0.8786,0.9141,0.8783,0.9583,1.0102,1.0008,1.0218,1.0454,1.0619,1.0442,1.0327,1.0327,1.0667,1.0873,1.0873,1.1322,1.1668,1.2016,1.1737,1.1874,1.2351,1.1737,1.1339,1.1115,1.0779,1.0522,1.0384,1.0118,0.9985,0.9968,0.9336,0.8947,0.8695,0.0,0.0,0.0,0.0,0.7574,0.6967,0.6647,0.6447,0.63,0.617,0.6111,0.6111,0.6111,0.6111,0.6095,0.6018,0.5921,0.5819,0.5746,0.5653,0.5518,0.5461,0.5345,0.5121,0.472,0.4556,0.4236,0.3461,0.335,0.0,0.3016,0.2959,0.2794,0.2402,0.179,0.14,0.14,0.1121,0.0898,0.0898,0.0898,0.0898,0.0898,0.0853,0.0,0.0,0.0,0.0727,0.0701,0.0701,0.0,0.0,0.0,0.0,0.0,0.0,0.0,0.0,0.0579,0.0652,0.0,0.0,0.0,0.0,0.0,0.0,0.0,0.0,0.0,0.0,0.0,0.0,0.0,0.0,0.0,0.0,0.8311,0.8895,0.8834,0.9333,0.9562,0.9222,1.0174,1.0571,0.9983,1.0218,1.0375,1.0375,1.0399,1.0417,1.0417,1.0417,0.0,0.0,0.0,1.0366,1.0207,1.0085,1.0333,1.09,0.9953,0.9828,1.0478,0.974,0.9569,0.9997,0.9997,0.9997,0.9926,0.9536,0.889,0.8185,0.7951,0.7857,0.7792,0.7073,0.6815,0.6815,0.6486,0.0,0.0,0.642,0.642,0.642,0.642,0.642,0.6384,0.6285,0.6223,0.6174,0.5957,0.59,0.5824,0.5514,0.5344,0.4998,0.4097,0.3778,0.3477,0.2738,0.2625,0.2402,0.179,0.1734,0.179,0.1734,0.1232,0.0898,0.0898,0.0898,0.0898,0.0898,0.0898,0.0,0.0898,0.0924,0.0893,0.0814,0.0785,0.0792,0.0734,0.0732,0.0675,0.0605,0.0606,0.066,0.0727,0.0714,0.0729,0.0727,0.058,0.0609,0.0,0.0,0.0,0.0,0.0,0.0,0.0,0.0,0.0,0.0,0.0,0.0,0.0,0.0,0.0,0.8603,0.8927,0.9162,0.9508,0.9701,0.9755,0.9742,1.0129,1.0386,1.0254,1.049,1.0647,1.0647,1.084,1.096,1.096,1.096,1.0887,1.0739,1.0713,1.0941,1.1401,1.1009,1.1249,1.1972,1.1487,0.0,1.0742,1.0541,1.0296,0.9931,0.9931,0.9713,0.9404,0.9207,0.8499,0.764,0.7283,0.7143,0.7073,0.6618,0.6486,0.6486,0.642,0.642,0.642,0.642,0.642,0.642,0.642,0.642,0.0,0.6375,0.6258,0.614,0.5982,0.5805,0.5453,0.4722,0.4454,0.4105,0.3301,0.3036,0.2711,0.2079,0.1958,0.179,0.1177,0.1456,0.1623,0.1121,0.0953,0.0898,0.0898,0.0898,0.0898,0.0898,0.0898,0.0898,0.0898,0.0924,0.0903,0.0897,0.0815,0.0793,0.0782,0.0781,0.0768,0.0739,0.0761,0.0764,0.0794,0.0776,0.079,0.0789,0.0765,0.0752,0.0,0.0,0.0,0.0,0.0,0.0,0.0,0.0,0.0,0.0,0.0,0.7918,0.8136,0.0,0.8804,0.8914,0.9096,0.9282,0.9748,0.989,1.0014,1.0095,1.0363,1.0526,1.0526,1.0761,1.0918,1.0918,1.1033,1.1111,1.1111,1.1037,1.0887,1.0812,1.0594,1.0663,1.0962,1.0663,1.0738,1.1099,1.0881,1.0663,1.0368,1.0368,1.0067,0.962,0.962,0.9392,0.8993,0.8551,0.797,0.7351,0.7072,0.6907,0.676,0.6617,0.6493,0.642,0.642,0.642,0.642,0.642,0.642,0.642,0.642,0.642,0.642,0.642,0.6355,0.6282,0.6157,0.6025,0.5698,0.4744,0.4373,0.3874,0.2774,0.234,0.2046,0.144,0.136,0.1232,0.0953,0.1177,0.1232,0.0953,0.0898,0.0898,0.0898,0.0898,0.0898,0.0898,0.0898,0.0898,0.0898,0.0924,0.0905,0.0905,0.0823,0.0806,0.0806,0.0806,0.08,0.0786,0.08,0.08,0.0786,0.0815,0.083,0.083,0.0845,0.0836,0.0,0.0,0.0,0.0,0.0,0.0,0.0,0.0,0.8108,0.776,0.8495,0.9029,0.8729,0.9125,0.9384,0.9089,0.9157,0.9439,0.9848,1.0096,1.0292,1.0437,1.0671,1.0797,1.0797,1.0985,1.1111,1.1111,1.1111,1.1111,1.1111,1.0887,1.0812,1.0738,1.0368,1.0143,1.0143,0.9992,0.9922,0.9922,0.9922,0.9922,0.9922,0.9846,0.962,0.9322,0.917,0.8861,0.8537,0.7996,0.7567,0.7261,0.7114,0.6948,0.6794,0.6745,0.6639,0.6522,0.6522,0.6501,0.6473,0.6473,0.6448,0.642,0.642,0.642,0.642,0.642,0.635,0.635,0.6288,0.6083,0.5683,0.4683,0.4142,0.3489,0.2189,0.1736,0.1493,0.1004,0.0923,0.0905,0.0898,0.0898,0.0898,0.0898,0.0898,0.0898,0.0898,0.0898,0.0898,0.0898,0.0898,0.0898,0.0898,0.0875,0.0915,0.0915,0.0838,0.0825,0.0825,0.0825,0.0825,0.0825,0.0825,0.0825,0.0825,0.0849,0.0915,0.0915,0.0886,0.0829,0.7469,0.7551,0.777,0.8677,0.8315,0.7981,0.0,0.0,0.8271,0.8143,0.837,0.865,0.8832,0.892,0.9105,0.9498,0.9523,0.9756,1.033,1.0456,1.0611,1.0953,1.1051,1.1069,1.1069,1.1093,1.1111,1.1111,1.1111,1.1111,1.1111,1.0887,1.0738,1.0519,1.0293,1.0143,0.9922,0.9922,0.9922,0.9922,0.9922,0.9922,0.9916,0.9544,0.9322,0.9246,0.856,0.8178,0.8102,0.7689,0.7528,0.7452,0.7431,0.7317,0.7147,0.698,0.6982,0.6962,0.6962,0.6794,0.6664,0.6664,0.6554,0.642,0.642,0.642,0.642,0.642,0.6284,0.6214,0.602,0.5359,0.4556,0.3618,0.2874,0.2123,0.1298,0.1092,0.107,0.0954,0.0881,0.0871,0.0902,0.0898,0.0898,0.0898,0.0898,0.0898,0.0898,0.0898,0.0898,0.0898,0.0898,0.0898,0.0898,0.0894,0.0892,0.0892,0.0889,0.0887,0.0887,0.0887,0.0887,0.0887,0.0887,0.0887,0.0887,0.0891,0.0892,0.0892,0.0896,0.0672,0.7663,0.7732,0.0,0.0,0.8639,0.8526,0.8854,0.8957,0.8954,0.8674,0.8754,0.899,0.9233,0.9281,0.9389,0.0,0.9776,0.9883,1.0276,1.0293,1.0387,1.068,1.0799,1.0962,1.1111,1.1111,1.1111,1.1111,1.1111,1.1109,1.1194,1.0977,1.081,1.0723,1.0572,1.0415,1.0336,1.0202,1.0137,1.0137,0.9986,0.9771,0.9549,0.9397,0.9018,0.856,0.8021,0.7714,0.7714,0.7561,0.7484,0.7484,0.7484,0.7439,0.7354,0.7175,0.7045,0.7023,0.7023,0.6978,0.6846,0.6846,0.6513,0.6098,0.6098,0.5825,0.5415,0.5216,0.515,0.5017,0.468,0.4284,0.3754,0.295,0.2415,0.194,0.1193,0.1045,0.0962,0.0938,0.0907,0.088,0.0926,0.0909,0.0898,0.0898,0.0898,0.0898,0.0898,0.0898,0.0898,0.0898,0.0898,0.0898,0.0898,0.0898,0.0898,0.0898,0.0898,0.0898,0.0898,0.0898,0.0898,0.0898,0.0898,0.0898,0.0898,0.0898,0.0898,0.0898,0.0898,0.0673,0.7753,0.0,0.0,0.8858,0.9005,0.8989,0.9128,0.9357,0.9468,0.9129,0.9244,0.9459,0.9637,0.9674,0.9728,0.9895,0.9922,0.9997,1.0143,1.0218,1.0226,1.0414,1.0627,1.0738,1.0887,1.1037,1.1111,1.1037,1.1109,1.1088,1.1134,1.0975,1.0937,1.0869,1.0713,1.0638,1.0638,1.0471,1.039,1.0385,1.0202,0.989,0.9426,0.9207,0.8611,0.7949,0.7638,0.7484,0.7484,0.7484,0.7484,0.7484,0.7484,0.7484,0.7468,0.7342,0.7212,0.7171,0.7171,0.7066,0.7029,0.7029,0.6549,0.5916,0.5797,0.5225,0.4596,0.4225,0.4084,0.402,0.3749,0.3349,0.295,0.2415,0.208,0.1678,0.121,0.1059,0.1043,0.1035,0.0991,0.0893,0.0885,0.0917,0.0898,0.0898,0.0898,0.0898,0.0898,0.0898,0.0898,0.0898,0.0898,0.0898,0.0898,0.0898,0.0898,0.0898,0.0898,0.0898,0.0898,0.0898,0.0898,0.0898,0.0898,0.0898,0.0898,0.0898,0.0898,0.0898,0.0785,0.0449,0.0,0.0,0.9204,0.9737,0.9699,0.9574,0.9892,0.9805,0.9628,0.9556,0.9739,0.99,0.9906,0.9911,0.9911,0.9922,0.9922,0.9997,1.0143,1.0218,1.0293,1.0507,1.0513,1.0519,1.0513,1.0887,1.1037,1.0812,1.1059,1.1134,1.0913,1.0897,1.0864,1.0875,1.0713,1.0638,1.0638,1.0627,1.0622,1.0622,1.0616,1.0369,0.9877,0.8861,0.8117,0.7484,0.7484,0.7484,0.7484,0.7484,0.7484,0.7484,0.7484,0.7484,0.7484,0.7476,0.7472,0.7468,0.7468,0.7358,0.7216,0.7216,0.6657,0.5912,0.5474,0.4876,0.4298,0.3842,0.3616,0.3553,0.3487,0.2817,0.2147,0.2147,0.1612,0.1143,0.1076,0.1075,0.1066,0.1039,0.1008,0.0977,0.0889,0.0917,0.0898,0.0898,0.0898,0.0898,0.0898,0.0898,0.0898,0.0898,0.0898,0.0898,0.0898,0.0898,0.0898,0.0898,0.0898,0.0898,0.0898,0.0898,0.0898,0.0898,0.0898,0.0898,0.0898,0.0898,0.0898,0.0898,0.0449,-0.0,0.0,0.0,0.8998,0.9162,0.9382,0.957,0.9724,0.9783,0.976,0.961,0.9642,0.9642,0.9475,0.9443,0.9502,0.9669,0.969,0.9744,0.997,0.9997,1.0007,0.9996,1.0193,1.0301,1.0211,1.0496,1.0663,1.0588,1.0835,1.0981,1.0908,1.1067,1.1189,1.1191,1.1112,1.1027,1.1027,1.095,1.0869,1.0864,0.9989,0.9368,0.8875,0.8125,0.7691,0.7484,0.7484,0.7484,0.7484,0.7484,0.7484,0.7484,0.7484,0.7484,0.7484,0.7484,0.7484,0.7484,0.7484,0.7443,0.7399,0.7399,0.6446,0.5258,0.5045,0.4034,0.2854,0.2435,0.2283,0.2216,0.1947,0.1679,0.1411,0.1411,0.1276,0.1076,0.1076,0.1076,0.1073,0.1063,0.1038,0.1009,0.0978,0.0947,0.0921,0.09,0.0898,0.0898,0.0898,0.0898,0.0898,0.0898,0.0898,0.0898,0.0898,0.0898,0.0898,0.0898,0.0898,0.0898,0.0898,0.0898,0.0898,0.0898,0.0898,0.0898,0.0898,0.0898,0.0729,0.0449,0.0617,0.028,0.8011,0.8511,0.9007,0.9098,0.941,0.9701,0.9701,0.975,0.9733,0.9497,0.9383,0.9249,0.9001,0.8958,0.9066,0.9394,0.9448,0.9556,0.9873,0.9922,0.9895,0.9985,1.0111,1.0253,1.0257,0.0,0.0,1.0515,1.0824,1.1003,1.0914,1.1149,1.1272,1.1257,1.1262,1.1262,1.1262,1.1192,1.1112,1.1112,0.998,0.9194,0.8724,0.804,0.7602,0.7484,0.7484,0.7484,0.7484,0.7484,0.7484,0.7484,0.7484,0.7484,0.7484,0.7484,0.7484,0.7484,0.7484,0.7484,0.7484,0.7407,0.6256,0.4866,0.4593,0.3329,0.198,0.1513,0.1423,0.1345,0.1143,0.1076,0.1076,0.1076,0.1076,0.1076,0.1076,0.1076,0.1076,0.1076,0.1053,0.1027,0.1008,0.097,0.0877,0.0917,0.0905,0.0898,0.0898,0.0898,0.0898,0.0898,0.0898,0.0898,0.0898,0.0898,0.0898,0.0898,0.0898,0.0898,0.0898,0.0898,0.0898,0.0898,0.0898,0.0898,0.0898,0.0898,0.0673,0.0224,0.0336,0.0056,0.8425,0.8888,0.9297,0.9534,0.976,0.9916,0.9906,0.9723,0.9486,0.9222,0.8985,0.8759,0.8522,0.0,0.8646,0.9114,0.9195,0.9378,0.9868,0.9938,1.003,0.0,0.0,0.0,0.0,0.0,0.0,1.0656,1.1055,1.1233,1.0982,1.1219,1.1262,1.1262,1.1262,1.1262,1.1262,1.1262,1.1267,1.1176,1.0376,0.9729,0.9346,0.8427,0.7825,0.7496,0.7496,0.7492,0.7484,0.7484,0.7484,0.7484,0.7484,0.7484,0.7484,0.7484,0.7484,0.7484,0.7484,0.7484,0.7484,0.7257,0.6247,0.4902,0.4178,0.297,0.1744,0.1271,0.11,0.1078,0.1076,0.1076,0.1076,0.1076,0.1076,0.1076,0.1076,0.1076,0.1076,0.1076,0.1053,0.0969,0.0969,0.0923,0.0886,0.0886,0.0919,0.0899,0.0898,0.0898,0.0898,0.0898,0.0898,0.0898,0.0898,0.0898,0.0898,0.0898,0.0898,0.0898,0.0898,0.0898,0.0898,0.0898,0.0898,0.0898,0.0842,0.0842,0.0617,0.0112,-0.0224,-0.0673,0.8947,0.9378,0.9755,0.982,0.9879,0.9873,0.9707,0.9475,0.9184,0.8775,0.8495,0.8321,0.8027,0.8124,0.0,0.8872,0.9093,0.0,1.0105,1.0202,0.0,1.0519,0.0,1.0568,1.0632,1.0794,0.0,1.0892,1.1001,1.1066,1.0982,1.1219,1.1262,1.1262,1.1262,1.1262,1.1262,1.1262,1.1003,1.0299,0.9971,0.9329,0.8552,0.816,0.7894,0.7691,0.7691,0.761,0.7484,0.7484,0.7484,0.7484,0.7484,0.7484,0.7484,0.7484,0.7484,0.7407,0.7022,0.7026,0.7257,0.718,0.6321,0.5052,0.4251,0.3231,0.2154,0.1348,0.1115,0.1104,0.1082,0.1076,0.1076,0.1076,0.1076,0.1076,0.1076,0.1076,0.1076,0.1076,0.1053,0.0969,0.0969,0.1002,0.0977,0.0977,0.0951,0.0923,0.09,0.0898,0.0898,0.0898,0.0898,0.0898,0.0898,0.0898,0.0898,0.0898,0.0898,0.0898,0.0898,0.0898,0.0898,0.0898,0.0898,0.0729,0.0393,0.0393,-0.0,-0.0785,-0.0505,-0.0842,0.9303,0.9637,0.9922,0.9922,0.9841,0.9707,0.947,0.9147,0.8737,0.8167,0.7941,0.0,0.7262,0.7542,0.0,0.0,0.0,0.0,1.003,1.0223,1.0417,0.0,1.0789,0.0,1.0939,1.1069,1.1144,1.1144,1.1144,1.1144,1.1144,1.1273,1.1262,1.1262,1.1262,1.1262,1.1262,1.1084,1.0733,1.0294,0.9751,0.9222,0.8624,0.8266,0.804,0.7866,0.7793,0.7699,0.7598,0.7516,0.7484,0.7484,0.7484,0.7484,0.7484,0.7484,0.7484,0.7407,0.7026,0.6714,0.6479,0.6637,0.5544,0.413,0.4,0.2969,0.1805,0.1317,0.1151,0.1137,0.112,0.1106,0.1095,0.1095,0.1085,0.1076,0.1076,0.1076,0.1076,0.1076,0.1063,0.1052,0.1052,0.1028,0.1008,0.1008,0.0971,0.0878,0.092,0.0906,0.0898,0.0898,0.0898,0.0898,0.0898,0.0898,0.0898,0.0898,0.0898,0.0898,0.0898,0.0898,0.0898,0.0898,0.0898,0.0673,0.0224,0.0224,-0.0224,-0.1066,-0.0842,-0.1122,0.9556,0.9771,0.9922,0.9922,0.9723,0.9464,0.9217,0.8748,0.8188,0.748,0.0,0.7079,0.6546,0.6966,0.7453,0.7844,0.0,0.9125,0.9868,1.0186,1.0498,1.0934,1.1009,1.1117,1.1246,1.1262,1.1262,1.1262,1.1262,1.1262,1.1262,1.1262,1.1262,1.1262,1.1262,1.1262,1.1262,1.0814,1.0549,1.0549,0.9689,0.9169,0.8917,0.8495,0.8211,0.8004,0.7858,0.7768,0.7711,0.7549,0.7484,0.7484,0.7484,0.7484,0.7484,0.7484,0.7484,0.7484,0.718,0.6402,0.5544,0.578,0.4533,0.3051,0.3521,0.2547,0.1369,0.1213,0.1193,0.117,0.1163,0.1141,0.112,0.1116,0.1095,0.1076,0.1076,0.1076,0.1076,0.1076,0.1076,0.1076,0.1076,0.1055,0.1039,0.1039,0.0929,0.0894,0.089,0.0919,0.0898,0.0898,0.0898,0.0898,0.0898,0.0898,0.0898,0.0898,0.0898,0.0898,0.0898,0.0898,0.0898,0.0898,0.0842,0.0561,0.0112,0.0056,-0.0393,-0.1178,-0.1178,-0.1403,0.9798,0.989,0.9922,0.9922,0.9593,0.9206,0.8974,0.8253,0.0,0.0,0.6842,0.6595,0.6614,0.6934,0.7419,0.8253,0.0,0.0,0.0,0.0,1.0676,0.0,1.1165,1.1305,1.1262,1.1262,0.0,1.1262,1.1262,1.1262,1.1262,1.1262,1.1262,1.1262,1.1262,1.1262,1.1262,1.0814,1.0467,1.0125,0.9519,0.9069,0.8694,0.8607,0.8337,0.8012,0.7979,0.7805,0.7529,0.7496,0.7484,0.7484,0.7484,0.7484,0.7484,0.7484,0.7484,0.7407,0.6868,0.6015,0.5157,0.5309,0.4608,0.3521,0.2899,0.2501,0.2096,0.1371,0.1208,0.1192,0.1142,0.1125,0.1114,0.1089,0.108,0.1076,0.1076,0.1076,0.1076,0.1076,0.1076,0.1076,0.1076,0.1072,0.1068,0.1068,0.1039,0.1009,0.0984,0.0932,0.0898,0.0898,0.0898,0.0898,0.0898,0.0898,0.0898,0.0898,0.0898,0.0898,0.0898,0.0898,0.0898,0.0898,0.0505,0.0112,-0.028,-0.0673,-0.1178,-0.1685,-0.1685,-0.1741,0.9857,0.9922,0.989,0.9771,0.9383,0.8904,0.842,0.0,0.0,0.0,0.646,0.6353,0.6213,0.0,0.0,0.0,0.0,0.0,0.0,0.0,0.0,0.0,0.0,1.1262,0.0,1.1262,1.1262,1.1262,1.1262,1.1262,1.1262,1.1262,1.1262,1.1262,1.1262,1.1176,1.0906,1.0467,1.0033,0.9607,0.9174,0.8828,0.8568,0.8568,0.8418,0.815,0.8057,0.7866,0.7618,0.7525,0.7484,0.7484,0.7484,0.7484,0.7484,0.7484,0.7484,0.7407,0.6633,0.578,0.4924,0.4375,0.3519,0.274,0.2588,0.2198,0.1802,0.1394,0.1236,0.1225,0.118,0.1157,0.1137,0.1106,0.1087,0.1076,0.1076,0.1076,0.1076,0.1076,0.1076,0.1076,0.1076,0.1076,0.1076,0.1076,0.1052,0.1029,0.1014,0.0779,0.0686,0.0899,0.0898,0.0898,0.0898,0.0898,0.0898,0.0898,0.0898,0.0785,0.0561,0.0561,0.0449,0.0224,-0.0,-0.0336,-0.0785,-0.101,-0.1347,-0.1797,-0.1797,-0.1797,0.9798,0.9884,0.9868,0.9637,0.9179,0.8614,0.7951,0.7354,0.0,0.0,0.6137,0.6143,0.5814,0.0,0.0,0.0,0.0,0.0,0.0,0.0,0.0,0.0,0.0,0.0,1.1262,1.1262,0.0,1.1262,1.1262,1.1262,1.1262,1.1262,1.1262,1.1262,1.1262,1.1084,1.0636,1.0207,0.9781,0.9262,0.8828,0.8568,0.8568,0.8568,0.8442,0.8223,0.8077,0.7894,0.7691,0.7541,0.7484,0.7484,0.7484,0.7484,0.7484,0.7484,0.7407,0.7176,0.6553,0.5622,0.4613,0.3522,0.2585,0.196,0.2196,0.1805,0.1335,0.1335,0.1253,0.1241,0.121,0.1179,0.1149,0.1119,0.1093,0.1076,0.1076,0.1076,0.1076,0.1076,0.1076,0.1076,0.1076,0.1076,0.1076,0.1076,0.1057,0.104,0.1034,0.0681,0.0592,0.0854,0.0789,0.0785,0.0898,0.0898,0.0898,0.0898,0.0785,0.0561,0.0224,0.0112,-0.0056,-0.0393,-0.0505,-0.0729,-0.1122,-0.1178,-0.1459,-0.1797,-0.1797,-0.1797,0.9604,0.976,0.9868,0.9637,0.906,0.8414,0.7914,0.0,0.0,0.6078,0.5873,0.5798,0.596,0.6062,0.0,0.0,0.0,0.0,0.0,0.0,0.0,0.0,0.0,0.0,1.1262,1.1262,1.1262,1.1262,1.1262,1.1262,1.1262,1.1262,1.1262,1.1262,1.1262,1.1084,1.0636,1.0207,0.9781,0.9262,0.8828,0.8568,0.8568,0.8568,0.8373,0.804,0.802,0.7821,0.7504,0.7488,0.7484,0.7484,0.7484,0.7484,0.7484,0.7484,0.7176,0.6637,0.6563,0.5547,0.4068,0.3524,0.2743,0.1803,0.1492,0.1336,0.1335,0.1335,0.1237,0.1209,0.1179,0.1148,0.1117,0.1087,0.1078,0.1076,0.1076,0.1076,0.1076,0.1076,0.1076,0.1076,0.1076,0.1076,0.1076,0.1076,0.1074,0.1063,0.1037,0.0964,0.094,0.0886,0.0514,0.0449,0.0842,0.0898,0.0898,0.0898,0.0505,0.0224,0.0224,-0.0168,-0.0336,-0.0393,-0.0842,-0.1066,-0.1122,-0.1515,-0.1741,-0.1797,-0.1797,-0.1797,0.9459,0.9642,0.9653,0.9416,0.8931,0.8312,0.7542,0.0,0.6288,0.5895,0.5744,0.5707,0.5798,0.5927,0.6196,0.0,0.6876,0.7277,0.8231,0.0,0.0,0.0,1.0627,0.0,0.0,0.0,1.1262,1.1262,1.1262,1.1262,1.1262,1.1262,1.1262,1.1262,1.0997,1.0641,1.0207,0.9777,0.9349,0.8915,0.8652,0.8568,0.8568,0.8568,0.8365,0.8012,0.8012,0.7813,0.7484,0.7484,0.7484,0.7484,0.7484,0.7484,0.7484,0.7099,0.6791,0.6486,0.5709,0.4849,0.399,0.3134,0.243,0.1803,0.1414,0.1335,0.1335,0.1335,0.1235,0.1204,0.1174,0.113,0.1091,0.1078,0.1076,0.1076,0.1076,0.1076,0.1076,0.1076,0.1076,0.1076,0.1076,0.1076,0.1076,0.1076,0.1076,0.1072,0.106,0.0783,0.0576,0.0499,0.0357,0.0344,0.0449,0.028,0.0112,0.0112,-0.0056,-0.028,-0.0561,-0.0729,-0.0954,-0.1234,-0.1403,-0.1515,-0.1515,-0.1685,-0.1797,-0.1797,-0.1797,-0.1797,0.9093,0.9314,0.9308,0.906,0.87,0.8156,0.0,0.6676,0.6256,0.5782,0.568,0.568,0.568,0.5809,0.6024,0.0,0.653,0.6934,0.7785,0.8253,0.0,0.0,0.0,1.0611,1.1011,1.1182,1.1262,1.1262,1.1262,1.1262,1.1262,1.1176,1.1084,1.1084,1.0727,1.0376,0.9781,0.9432,0.9087,0.8568,0.8568,0.8568,0.8564,0.8511,0.8312,0.8012,0.7959,0.7764,0.7484,0.7484,0.7484,0.7484,0.7484,0.7407,0.7176,0.6795,0.6331,0.5941,0.501,0.4229,0.3522,0.2744,0.2118,0.1648,0.1414,0.1335,0.1335,0.1335,0.1229,0.1189,0.115,0.1108,0.1076,0.1076,0.1076,0.1076,0.1076,0.1076,0.1076,0.1076,0.1076,0.1076,0.1076,0.1076,0.1076,0.1076,0.1076,0.1076,0.0874,0.0595,0.0326,0.0193,-0.0,-0.0118,-0.0,-0.0226,-0.0393,-0.0393,-0.0505,-0.0729,-0.1066,-0.1234,-0.1459,-0.1797,-0.1797,-0.1797,-0.1797,-0.1797,-0.1797,-0.1797,-0.1797,-0.1797,0.8393,0.8694,0.8813,0.8581,0.8334,0.7963,0.0,0.6557,0.6256,0.5782,0.568,0.568,0.568,0.568,0.5841,0.6315,0.6396,0.6805,0.8039,0.8361,0.0,0.0,0.0,1.0116,1.0595,1.099,1.1262,1.1262,1.1262,1.1262,1.1262,1.0901,1.0636,1.0636,1.0636,1.0207,0.9349,0.9262,0.9087,0.8568,0.8568,0.8568,0.856,0.8377,0.8191,0.8004,0.7837,0.7655,0.7484,0.7484,0.7484,0.7484,0.7484,0.7099,0.6641,0.6641,0.5786,0.4701,0.4701,0.3761,0.2511,0.2511,0.1962,0.1335,0.1335,0.1335,0.1335,0.1335,0.1289,0.1153,0.1093,0.1076,0.1076,0.1076,0.1076,0.1076,0.1076,0.1076,0.1076,0.1076,0.1076,0.1076,0.1076,0.1076,0.1076,0.1076,0.1076,0.0941,0.0403,0.0336,0.0266,0.0194,-0.0626,-0.0973,-0.0531,-0.0457,-0.0393,-0.0393,-0.0842,-0.1122,-0.1122,-0.1572,-0.1797,-0.1797,-0.1797,-0.1797,-0.1797,-0.1797,-0.1797,-0.1797,-0.1797,-0.1797,0.7645,0.7957,0.8081,0.7784,0.7731,0.7467,0.6681,0.6444,0.6256,0.5782,0.568,0.568,0.568,0.568,0.589,0.6525,0.0,0.0,0.0,0.0,0.0,0.9497,1.0358,1.0961,0.0,1.1177,1.1262,1.1262,1.1262,1.1262,1.1262,1.0814,1.0636,1.0636,1.0033,0.9602,0.9262,0.8999,0.874,0.8568,0.8568,0.8568,0.856,0.8377,0.8187,0.8004,0.7833,0.7655,0.7484,0.7484,0.7484,0.7484,0.7022,0.6791,0.6486,0.5631,0.501,0.4621,0.3843,0.3137,0.2431,0.2195,0.1727,0.1335,0.1335,0.1335,0.1327,0.1283,0.1181,0.1153,0.1091,0.1076,0.1076,0.1076,0.1076,0.1076,0.1076,0.1076,0.1076,0.1076,0.1076,0.1076,0.1076,0.1076,0.1076,0.1076,0.1076,0.0874,0.0336,0.0269,-0.0,-0.073,-0.1099,-0.1058,-0.0473,-0.0972,-0.1347,-0.1347,-0.1515,-0.1572,-0.1572,-0.1741,-0.1797,-0.1797,-0.1797,-0.1797,-0.1797,-0.1797,-0.1797,-0.1797,-0.1797,-0.1797,0.0,0.7234,0.7365,0.7164,0.7127,0.6967,0.6396,0.6256,0.6143,0.576,0.568,0.568,0.568,0.568,0.5884,0.6503,0.6606,0.0,0.0,0.0,0.0,0.9486,0.0,0.0,1.1085,1.1161,1.1262,1.1262,1.1262,1.1262,1.1262,1.0656,1.0262,1.0262,0.9653,0.9139,0.8892,0.8636,0.8426,0.8357,0.8357,0.8357,0.8353,0.817,0.8028,0.7906,0.7732,0.759,0.0,0.7484,0.7484,0.7407,0.6868,0.6483,0.6093,0.5087,0.4545,0.4231,0.3374,0.2826,0.2431,0.2038,0.1649,0.1335,0.1335,0.1249,0.123,0.1181,0.1158,0.1138,0.1089,0.1076,0.1076,0.1076,0.1076,0.1076,0.1076,0.1076,0.1076,0.1076,0.1076,0.1076,0.1076,0.1076,0.1076,0.1076,0.0941,0.0605,0.0067,-0.0202,-0.0538,-0.121,-0.1428,-0.131,-0.0721,-0.1396,-0.182,-0.1798,-0.1797,-0.1797,-0.1797,-0.1797,-0.1797,-0.1797,-0.1797,-0.1797,-0.1797,-0.1797,-0.1797,-0.1797,-0.1797,-0.1808,0.0,0.6571,0.6577,0.6561,0.6587,0.6491,0.6073,0.5992,0.0,0.5728,0.568,0.5685,0.5701,0.5707,0.5863,0.6363,0.0,0.0,0.0,0.8081,0.0,0.0,1.0266,1.0686,1.0686,1.1006,1.1262,1.1262,1.1262,1.1257,1.1241,1.0269,0.9728,0.9714,0.9384,0.8871,0.8272,0.8272,0.8182,0.8012,0.8012,0.8012,0.8008,0.7837,0.784,0.7748,0.7565,0.7484,0.7484,0.7484,0.7484,0.7407,0.6791,0.6093,0.547,0.4854,0.4309,0.3763,0.3217,0.2826,0.2431,0.196,0.1569,0.1335,0.1333,0.1234,0.1205,0.1175,0.1144,0.1114,0.1084,0.1076,0.1076,0.1076,0.1076,0.1076,0.1076,0.1076,0.1076,0.1076,0.1076,0.1076,0.1076,0.1076,0.1076,0.1076,0.0672,0.0134,-0.0403,-0.0941,-0.1277,-0.1344,-0.173,-0.1735,-0.1297,-0.1674,-0.1853,-0.1801,-0.1797,-0.1797,-0.1797,-0.1797,-0.1797,-0.1797,-0.1797,-0.1797,-0.1797,-0.1797,-0.1797,-0.1797,-0.1801,-0.1831,0.527,0.0,0.5599,0.5421,0.5658,0.5847,0.0,0.5755,0.0,0.0,0.0,0.5733,0.5906,0.5938,0.6153,0.6816,0.0,0.0,0.8044,0.0,0.0,1.0315,1.0859,1.1182,1.1182,1.1198,1.1262,1.1262,1.1262,1.1268,1.1079,1.0184,0.9573,0.9408,0.87,0.8205,0.8081,0.8081,0.8057,0.8012,0.8012,0.8012,0.8008,0.7837,0.784,0.7748,0.7565,0.7484,0.7484,0.7484,0.7253,0.6714,0.6089,0.547,0.4854,0.4231,0.3919,0.3684,0.2902,0.2589,0.2354,0.1649,0.1414,0.1253,0.123,0.1217,0.1205,0.1175,0.1144,0.1114,0.1084,0.1076,0.1076,0.1076,0.1076,0.1076,0.1076,0.1076,0.1076,0.1076,0.1076,0.1076,0.1076,0.1076,0.1076,0.1076,0.0672,0.0134,-0.0403,-0.0605,-0.1008,-0.1884,-0.1661,-0.1568,-0.1854,-0.1844,-0.1811,-0.1798,-0.1797,-0.1797,-0.1797,-0.1797,-0.1797,-0.1797,-0.1797,-0.1797,-0.1797,-0.1797,-0.1797,-0.1798,-0.1841,-0.1868,0.4633,0.5083,0.5448,0.5365,0.5567,0.5803,0.5663,0.0,0.0,0.0,0.0,0.0,0.5976,0.0,0.0,0.0,0.7198,0.0,0.0,0.0,1.0987,1.0992,1.1472,1.1688,1.1348,1.1262,1.1305,1.1192,1.1182,1.1079,1.0837,0.9906,0.9394,0.919,0.8293,0.7809,0.7898,0.7898,0.7854,0.7768,0.7768,0.7768,0.7768,0.7675,0.763,0.7626,0.7525,0.7484,0.7484,0.7484,0.7176,0.6563,0.5857,0.5237,0.4621,0.3765,0.3452,0.3374,0.251,0.2118,0.1884,0.1414,0.1335,0.1251,0.1221,0.1202,0.1185,0.1154,0.1124,0.1096,0.108,0.1076,0.1076,0.1076,0.1076,0.1076,0.1076,0.1076,0.1076,0.1076,0.1076,0.1076,0.1076,0.1076,0.1076,0.1076,0.0403,-0.0202,-0.047,-0.0941,-0.1547,-0.2154,-0.1861,-0.177,-0.2065,-0.195,-0.1865,-0.1838,-0.1835,-0.1824,-0.1798,-0.1797,-0.1797,-0.1797,-0.1797,-0.1797,-0.1797,-0.1797,-0.1811,-0.1837,-0.1867,-0.1911,0.4405,0.5039,0.5653,0.5545,0.5771,0.6013,0.0,0.0,0.0,0.0,0.0,0.0,0.0,0.0,0.0,0.0,0.0,0.0,0.9675,1.1004,1.1784,1.15,1.1875,1.1912,1.1241,1.1155,1.1155,1.0945,1.0934,1.0826,1.0509,0.9602,0.9015,0.8982,0.803,0.7557,0.7715,0.7715,0.7638,0.7484,0.7484,0.7484,0.7484,0.7484,0.7484,0.7484,0.7484,0.7484,0.7484,0.7407,0.7022,0.6405,0.5702,0.5085,0.4465,0.3452,0.3062,0.2982,0.2195,0.1648,0.1335,0.1335,0.1254,0.1245,0.1214,0.1183,0.1153,0.1123,0.1095,0.1076,0.1076,0.1076,0.1076,0.1076,0.1076,0.1076,0.1076,0.1076,0.1076,0.1076,0.1076,0.1076,0.1076,0.1076,0.1076,0.1076,0.0269,-0.0403,-0.047,-0.1344,-0.2018,-0.2154,-0.2042,-0.2012,-0.2076,-0.2093,-0.1974,-0.1913,-0.1901,-0.1869,-0.1812,-0.1809,-0.1807,-0.1797,-0.1797,-0.1797,-0.1797,-0.1805,-0.1834,-0.1882,-0.1901,-0.1965,0.4779,0.53,0.5534,0.4931,0.5405,0.597,0.0,0.0,0.0,0.0,0.0,0.0,0.0,0.0,0.0,0.0,0.0,0.8766,0.0,0.0,1.0515,1.1146,1.1049,1.0827,1.0746,1.0746,1.0729,1.0692,1.0686,1.0423,0.9874,0.936,0.8866,0.8308,0.7731,0.7496,0.7525,0.7525,0.7512,0.7484,0.7484,0.7484,0.7484,0.7484,0.7484,0.7484,0.7484,0.7484,0.7484,0.6945,0.6325,0.5702,0.5085,0.4465,0.3841,0.3295,0.3062,0.2982,0.2195,0.1648,0.1335,0.1335,0.124,0.1213,0.1183,0.1152,0.1122,0.1091,0.1079,0.1076,0.1076,0.1076,0.1076,0.1076,0.1076,0.1076,0.1076,0.1076,0.1076,0.1076,0.1076,0.1076,0.1076,0.1076,0.1076,0.1076,0.0605,-0.0,-0.047,-0.0672,-0.1143,-0.2087,-0.1742,-0.1604,-0.214,-0.2199,-0.2165,-0.2103,-0.1986,-0.1931,-0.1871,-0.1868,-0.1846,-0.1798,-0.1797,-0.1797,-0.1797,-0.1845,-0.1873,-0.1884,-0.1986,-0.2109,0.4625,0.5099,0.5441,0.5071,0.5701,0.6379,0.0,0.0,0.0,0.0,0.0,0.0,0.0,0.0,0.0,0.7925,0.0,0.9898,1.082,1.1372,1.1676,1.1717,1.166,1.1347,1.0638,1.0638,1.0584,1.046,1.0449,1.019,0.9483,0.9082,0.8658,0.8106,0.7714,0.7484,0.7484,0.7484,0.7484,0.7484,0.7484,0.7484,0.7484,0.7484,0.7484,0.7484,0.7484,0.733,0.7022,0.6714,0.6015,0.5085,0.4776,0.4153,0.3374,0.2668,0.2276,0.2042,0.1727,0.1492,0.1335,0.1335,0.1248,0.1228,0.1181,0.1157,0.1136,0.1089,0.1076,0.1076,0.1076,0.1076,0.1076,0.1076,0.1076,0.1076,0.1076,0.1076,0.1076,0.1076,0.1076,0.1076,0.1076,0.1076,0.1008,0.0739,0.0202,-0.0336,-0.0874,-0.121,-0.1614,-0.2154,-0.1951,-0.1884,-0.2154,-0.2221,-0.2195,-0.2131,-0.2068,-0.1959,-0.1932,-0.1931,-0.1918,-0.1892,-0.1891,-0.1891,-0.1891,-0.1917,-0.1947,-0.1981,-0.21,-0.2145,0.456,0.504,0.5538,0.5531,0.0,0.0,0.0,0.0,0.0,0.0,0.0,0.0,0.0,0.0,0.0,0.8538,0.9597,1.0532,1.1389,1.2136,1.2411,1.2024,1.2054,1.1636,1.0545,1.0466,1.0396,1.0218,1.0207,0.9895,0.9175,0.8856,0.8475,0.7949,0.7638,0.7484,0.7484,0.7484,0.7484,0.7484,0.7484,0.7484,0.7484,0.7484,0.7484,0.7484,0.733,0.7022,0.656,0.6251,0.5553,0.4701,0.4545,0.3843,0.2904,0.2195,0.1648,0.1335,0.1335,0.1335,0.1335,0.1249,0.1242,0.1226,0.1172,0.1151,0.1136,0.1089,0.1076,0.1076,0.1076,0.1076,0.1076,0.1076,0.1076,0.1076,0.1076,0.1076,0.1076,0.1076,0.1076,0.1076,0.1076,0.1076,0.0941,0.0538,-0.0,-0.0538,-0.1076,-0.1614,-0.2018,-0.2154,-0.2221,-0.2221,-0.2221,-0.2221,-0.2202,-0.2152,-0.2105,-0.2071,-0.1993,-0.1993,-0.1986,-0.1971,-0.1971,-0.1971,-0.1971,-0.1986,-0.2081,-0.2127,-0.2143,-0.2175,0.504,0.5529,0.599,0.6091,0.0,0.0,0.0,0.0,0.0,0.0,0.0,0.0,0.0,0.8102,0.8576,0.9077,0.9466,1.016,1.1495,1.1267,1.1141,1.1664,1.1228,1.0645,1.0046,0.997,0.9965,0.9949,0.9943,0.9559,0.878,0.8703,0.8322,0.7561,0.7484,0.7484,0.7484,0.7484,0.7484,0.7484,0.7484,0.7484,0.7484,0.7484,0.7484,0.7484,0.6945,0.6641,0.6483,0.5321,0.4779,0.4623,0.4075,0.3294,0.251,0.2038,0.1648,0.1335,0.1335,0.1335,0.1253,0.1224,0.1196,0.1167,0.1134,0.1104,0.1081,0.1077,0.1076,0.1076,0.1076,0.1076,0.1076,0.1076,0.1076,0.1076,0.1076,0.1076,0.1076,0.1076,0.1076,0.1076,0.1076,0.1076,0.1076,0.1076,0.0605,0.0067,-0.047,-0.1008,-0.1547,-0.2154,-0.2221,-0.2221,-0.2221,-0.2221,-0.2218,-0.2214,-0.221,-0.2182,-0.2123,-0.2121,-0.2093,-0.1973,-0.1971,-0.1971,-0.1971,-0.2092,-0.2123,-0.2128,-0.2187,-0.2217,0.4976,0.5424,0.5926,0.6108,0.0,0.0,0.0,0.0,0.0,0.0,0.0,0.0,0.0,0.0,0.8667,0.913,0.9768,1.0385,1.1075,1.126,1.1335,1.1186,1.0962,1.0588,0.9992,0.9922,0.9922,0.9922,0.9695,0.9316,0.8699,0.8479,0.8097,0.7484,0.7484,0.7484,0.7484,0.7484,0.7484,0.7484,0.7484,0.7484,0.7484,0.7484,0.733,0.6945,0.6718,0.6173,0.5398,0.4932,0.4465,0.4075,0.3294,0.2666,0.204,0.1649,0.1414,0.1333,0.1236,0.1229,0.1224,0.1194,0.1176,0.1161,0.113,0.1113,0.11,0.1081,0.1076,0.1076,0.1076,0.1076,0.1076,0.1076,0.1076,0.1076,0.1076,0.1076,0.1076,0.1076,0.1076,0.1076,0.1076,0.1076,0.0874,0.0202,-0.0067,-0.0538,-0.1412,-0.1748,-0.1951,-0.2154,-0.2221,-0.2221,-0.2221,-0.2221,-0.2221,-0.2221,-0.2221,-0.221,-0.2186,-0.2186,-0.2175,-0.2151,-0.2151,-0.2151,-0.2151,-0.2175,-0.2165,-0.2128,-0.2192,-0.22,0.51,0.5598,0.6225,0.0,0.0,0.0,0.0,0.0,0.0,0.0,0.0,0.0,0.0,0.0,0.0,0.0,0.9829,1.0398,1.0714,1.1186,1.126,1.0887,1.0812,1.0519,0.9771,0.9695,0.9695,0.9695,0.9316,0.9013,0.8703,0.8327,0.7949,0.7484,0.7484,0.7484,0.7484,0.7484,0.7484,0.7484,0.7427,0.7431,0.7484,0.733,0.7022,0.6563,0.6173,0.5476,0.4701,0.4465,0.4075,0.3524,0.2623,0.2089,0.1878,0.1389,0.1234,0.1239,0.1208,0.1198,0.1193,0.1161,0.1152,0.1147,0.1116,0.1107,0.1102,0.1082,0.1076,0.1076,0.1076,0.1076,0.1076,0.1076,0.1076,0.1076,0.1076,0.1076,0.1076,0.1076,0.1076,0.1076,0.1076,0.0941,0.0605,-0.0134,-0.0538,-0.1008,-0.1817,-0.2087,-0.2221,-0.2221,-0.2221,-0.2221,-0.2221,-0.2221,-0.2221,-0.2221,-0.2221,-0.2221,-0.2221,-0.2221,-0.2221,-0.2221,-0.2221,-0.2221,-0.2221,-0.2221,-0.2199,-0.2158,-0.2202,-0.2187,0.5511,0.6201,0.0,0.0,0.0,0.0,0.0,0.0,0.0,0.0,0.0,0.0,0.0,0.0,0.0,0.9206,0.9604,1.0143,1.0738,1.0812,1.0812,1.0812,1.0812,1.0368,0.9397,0.9322,0.9322,0.9322,0.8932,0.8699,0.8699,0.8327,0.7944,0.7476,0.748,0.748,0.748,0.748,0.748,0.7476,0.7305,0.7313,0.748,0.6865,0.656,0.6479,0.524,0.4698,0.4618,0.4073,0.3528,0.2968,0.2157,0.1803,0.187,0.1337,0.1185,0.1207,0.1176,0.1166,0.1161,0.113,0.1121,0.1115,0.1084,0.1076,0.1076,0.1076,0.1076,0.1076,0.1076,0.1076,0.1076,0.1076,0.1076,0.1076,0.1076,0.1076,0.1076,0.1076,0.1076,0.1076,0.1076,0.0672,0.0269,0.0269,-0.0605,-0.1277,-0.1277,-0.1817,-0.2221,-0.2221,-0.2221,-0.2221,-0.2221,-0.2221,-0.2221,-0.2221,-0.2221,-0.2221,-0.2221,-0.2221,-0.2221,-0.2221,-0.2221,-0.2221,-0.2221,-0.2221,-0.222,-0.222,-0.222,-0.2186,0.6072,0.0,0.0,0.0,0.0,0.0,0.0,0.0,0.0,0.0,0.0,0.0,0.914,0.0,0.0,0.9437,1.0304,1.076,1.0271,1.0887,1.1111,1.0293,0.9916,0.962,0.9322,0.9013,0.8856,0.8856,0.8479,0.8188,0.8044,0.7671,0.7393,0.7187,0.7183,0.7183,0.7183,0.7183,0.7183,0.7183,0.7058,0.6907,0.6689,0.6423,0.5858,0.5049,0.468,0.4089,0.3499,0.2977,0.2533,0.216,0.1908,0.1618,0.1413,0.1246,0.1172,0.1175,0.1145,0.1134,0.1129,0.1099,0.1089,0.1087,0.1078,0.1076,0.1076,0.1076,0.1076,0.1076,0.1076,0.1076,0.1076,0.1076,0.1076,0.1076,0.1076,0.1076,0.1076,0.1076,0.1076,0.1076,0.1076,0.0672,0.0202,-0.0202,-0.0874,-0.148,-0.1884,-0.2087,-0.2221,-0.2221,-0.2221,-0.2221,-0.2221,-0.2221,-0.2221,-0.2221,-0.2221,-0.2221,-0.2221,-0.2221,-0.2221,-0.2221,-0.2221,-0.2221,-0.2221,-0.2221,-0.2176,-0.2092,-0.218,-0.214,0.6677,0.0,0.0,0.0,0.0,0.0,0.0,0.0,0.0,0.0,0.0,0.9495,0.9176,0.9141,0.0,0.9405,1.0237,1.0533,0.9851,1.0444,1.0551,0.9721,0.9275,0.8985,0.8832,0.8463,0.824,0.824,0.7873,0.7673,0.7702,0.7333,0.7066,0.7027,0.7023,0.7023,0.7023,0.7023,0.7023,0.7023,0.6883,0.662,0.6208,0.6176,0.5728,0.5009,0.4432,0.3708,0.2985,0.2377,0.2021,0.1747,0.1568,0.136,0.1164,0.1139,0.1138,0.1144,0.1114,0.1103,0.11,0.1082,0.1076,0.1076,0.1076,0.1076,0.1076,0.1076,0.1076,0.1076,0.1076,0.1076,0.1076,0.1076,0.1076,0.1076,0.1076,0.1076,0.1076,0.1076,0.1076,0.1076,0.1076,0.047,-0.0134,-0.047,-0.1143,-0.1817,-0.2154,-0.2221,-0.2221,-0.2221,-0.2221,-0.2221,-0.2221,-0.2221,-0.2221,-0.2221,-0.2221,-0.2221,-0.2221,-0.2221,-0.2221,-0.2221,-0.2221,-0.2221,-0.2221,-0.2221,-0.2182,-0.211,-0.2186,-0.2147,0.0,0.0,0.0,0.0,0.0,0.0,0.0,0.0,0.0,0.0,0.0,0.9522,0.9091,0.9135,0.9276,0.9206,0.9567,0.9856,0.9572,0.9618,0.9464,0.9162,0.879,0.8443,0.808,0.7735,0.7531,0.7531,0.7241,0.7162,0.7504,0.7145,0.6991,0.6974,0.6974,0.6974,0.6974,0.6974,0.6974,0.6974,0.6745,0.639,0.5978,0.5987,0.5908,0.5766,0.426,0.3397,0.2889,0.1975,0.1701,0.173,0.1235,0.111,0.1151,0.1096,0.1093,0.1113,0.1085,0.1076,0.1076,0.1076,0.1076,0.1076,0.1076,0.1076,0.1076,0.1076,0.1076,0.1076,0.1076,0.1076,0.1076,0.1076,0.1076,0.1076,0.1076,0.1076,0.1076,0.1076,0.1076,0.1076,0.1076,0.0269,-0.047,-0.047,-0.148,-0.2154,-0.2154,-0.2154,-0.2221,-0.2221,-0.2221,-0.2221,-0.2221,-0.2221,-0.2221,-0.2221,-0.2221,-0.2221,-0.2221,-0.2221,-0.2221,-0.2221,-0.2221,-0.2221,-0.2221,-0.2221,-0.2218,-0.2213,-0.2213,-0.2179,0.0,0.0,0.0,0.0,0.0,0.0,0.0,0.0,0.0,0.0,1.052,1.0123,0.9794,0.9806,0.9701,0.9276,0.971,0.9902,0.9363,0.9498,0.9411,0.8871,0.8236,0.781,0.7739,0.7384,0.7099,0.7099,0.7023,0.6966,0.69,0.6822,0.6684,0.6538,0.6534,0.6534,0.6534,0.6534,0.6534,0.6534,0.6497,0.641,0.6277,0.584,0.5248,0.4371,0.3078,0.2466,0.2327,0.1564,0.1225,0.1231,0.1149,0.1084,0.1093,0.108,0.108,0.1084,0.1078,0.1076,0.1076,0.1076,0.1076,0.1076,0.1076,0.1076,0.1076,0.1076,0.1076,0.1076,0.1076,0.1076,0.1076,0.1076,0.1076,0.1076,0.1076,0.1076,0.1076,0.1076,0.1076,0.1076,0.1076,0.0538,-0.0,-0.0403,-0.148,-0.2018,-0.1547,-0.1884,-0.2221,-0.2221,-0.2221,-0.2221,-0.2221,-0.2221,-0.2221,-0.2221,-0.2221,-0.2221,-0.2221,-0.2221,-0.2221,-0.2221,-0.2221,-0.2221,-0.2221,-0.2221,-0.2196,-0.2148,-0.2148,-0.2113,0.0,0.0,0.0,0.0,0.0,0.0,0.0,0.0,0.0,1.1454,1.0968,1.0497,1.0043,0.9908,0.9719,0.944,0.9541,0.9511,0.9124,0.9034,0.8859,0.8419,0.7728,0.7249,0.7249,0.6902,0.6696,0.6696,0.6696,0.666,0.6566,0.6562,0.6518,0.642,0.642,0.642,0.642,0.642,0.6284,0.6017,0.6017,0.5881,0.5617,0.5617,0.515,0.4289,0.3086,0.242,0.2154,0.1412,0.1076,0.1076,0.1076,0.1076,0.1076,0.1076,0.1076,0.1076,0.1076,0.1076,0.1076,0.1076,0.1076,0.1076,0.1076,0.1076,0.1076,0.1076,0.1076,0.1076,0.1076,0.1076,0.1076,0.1076,0.1076,0.1076,0.1076,0.1076,0.1076,0.1076,0.1076,0.1076,0.1076,0.047,-0.0269,-0.0739,-0.1614,-0.2087,-0.1749,-0.2018,-0.2221,-0.2221,-0.2221,-0.2221,-0.2221,-0.2221,-0.2221,-0.2221,-0.2221,-0.2221,-0.2221,-0.2221,-0.2221,-0.2221,-0.2221,-0.2221,-0.2221,-0.219,-0.2159,-0.2127,-0.2096,-0.2003,0.0,0.0,0.0,0.0,0.0,0.0,0.0,0.0,0.0,1.1615,1.1247,1.08,1.0218,0.9953,0.9778,0.9712,0.9491,0.9218,0.8891,0.8523,0.8184,0.7877,0.7204,0.6815,0.6815,0.6552,0.642,0.642,0.642,0.642,0.642,0.642,0.642,0.642,0.642,0.642,0.642,0.6284,0.6017,0.5617,0.5481,0.5216,0.4815,0.515,0.5084,0.4483,0.3282,0.2551,0.2018,0.1345,0.1076,0.1076,0.1076,0.1076,0.1076,0.1076,0.1076,0.1076,0.1076,0.1076,0.1076,0.1076,0.1076,0.1076,0.1076,0.1076,0.1076,0.1076,0.1076,0.1076,0.1076,0.1076,0.1076,0.1076,0.1076,0.1076,0.1076,0.1076,0.1076,0.1076,0.1076,0.1076,0.1076,0.0269,-0.047,-0.0672,-0.1412,-0.1884,-0.1884,-0.2087,-0.2221,-0.2221,-0.2221,-0.2221,-0.2221,-0.2221,-0.2221,-0.2221,-0.2221,-0.2221,-0.2221,-0.2221,-0.2221,-0.2221,-0.2221,-0.2216,-0.2204,-0.2152,-0.2121,-0.2109,-0.1985,-0.1962,0.0,0.0,0.0,0.0,0.0,0.0,0.0,0.0,1.1224,0.0,1.156,1.131,1.08,1.0645,1.0474,1.0008,0.9912,0.9602,0.8857,0.8403,0.7947,0.7143,0.6679,0.6486,0.6486,0.6416,0.642,0.642,0.642,0.642,0.642,0.642,0.642,0.642,0.642,0.642,0.642,0.5951,0.5683,0.5617,0.5147,0.4882,0.4815,0.4422,0.4023,0.362,0.2688,0.2084,0.1681,0.1277,0.1076,0.1076,0.1076,0.1076,0.1076,0.1076,0.1076,0.1076,0.1076,0.1076,0.1076,0.1076,0.1076,0.1076,0.1076,0.1076,0.1076,0.1076,0.1076,0.1076,0.1076,0.1076,0.1076,0.1076,0.1076,0.1076,0.1076,0.1076,0.1076,0.1076,0.1076,0.1076,0.1076,0.047,0.0134,0.0739,-0.0067,-0.0739,-0.0739,-0.1614,-0.2221,-0.2221,-0.2221,-0.2221,-0.2221,-0.2221,-0.2221,-0.2221,-0.2221,-0.2221,-0.2221,-0.2221,-0.2221,-0.2221,-0.2221,-0.2195,-0.214,-0.2131,-0.2099,-0.1982,-0.1921,-0.1921,0.0,0.0,0.0,0.0,0.0,0.0,0.0,0.0,1.0843,1.0982,1.1019,1.1068,1.1246,1.0989,1.0737,1.0478,1.0212,0.9824,0.9384,0.8678,0.8042,0.7596,0.6876,0.642,0.642,0.642,0.642,0.642,0.642,0.642,0.642,0.642,0.642,0.642,0.642,0.6284,0.5951,0.5749,0.5286,0.4688,0.4156,0.3889,0.3889,0.3489,0.3355,0.342,0.2554,0.1951,0.1547,0.121,0.1076,0.1076,0.1076,0.1076,0.1076,0.1076,0.1076,0.1076,0.1076,0.1076,0.1076,0.1076,0.1076,0.1076,0.1076,0.1076,0.1076,0.1076,0.1076,0.1076,0.1076,0.1076,0.1076,0.1076,0.1076,0.1076,0.1076,0.1076,0.1076,0.1076,0.1076,0.1076,0.1076,0.047,0.0269,0.1008,-0.0336,-0.148,-0.148,-0.1884,-0.2221,-0.2221,-0.2221,-0.2221,-0.2221,-0.2221,-0.2221,-0.2221,-0.2221,-0.2221,-0.2221,-0.2221,-0.2221,-0.2221,-0.2221,-0.219,-0.2127,-0.2092,-0.1981,-0.192,-0.1861,-0.1849,0.0,0.0,0.0,0.0,0.0,0.0,0.0,0.0,1.0485,0.0,1.0587,1.0741,1.1224,1.1069,1.0878,1.0878,1.0613,1.0275,0.9901,0.9192,0.849,0.7917,0.7134,0.6613,0.642,0.642,0.642,0.642,0.642,0.6396,0.6351,0.6351,0.6331,0.6286,0.6282,0.6024,0.5499,0.5237,0.4671,0.3786,0.339,0.3137,0.3092,0.282,0.2818,0.2952,0.2353,0.1817,0.148,0.121,0.1076,0.1076,0.1076,0.1076,0.1076,0.1076,0.1076,0.1076,0.1076,0.1076,0.1076,0.1076,0.1076,0.1076,0.1076,0.1076,0.1076,0.1076,0.1076,0.1076,0.1076,0.1076,0.1076,0.1076,0.1076,0.1076,0.1076,0.1076,0.1076,0.1076,0.1076,0.1076,0.1076,0.0672,0.047,0.1008,-0.0336,-0.1547,-0.2154,-0.2221,-0.2221,-0.2221,-0.2221,-0.2221,-0.2221,-0.2221,-0.2221,-0.2221,-0.2221,-0.2221,-0.2221,-0.2221,-0.2214,-0.2197,-0.2197,-0.2166,-0.2103,-0.1978,-0.1918,-0.1858,-0.1816,-0.1797,0.0,0.0,0.0,0.0,0.0,0.0,0.0,0.0,1.0214,1.0521,1.0587,1.0602,1.0631,1.0894,1.1099,1.1099,1.1355,1.1178,1.0148,0.9952,0.9314,0.7717,0.7461,0.7199,0.6482,0.642,0.642,0.642,0.642,0.6343,0.6232,0.6223,0.615,0.5921,0.5917,0.567,0.524,0.432,0.3636,0.3161,0.3097,0.2944,0.2753,0.2686,0.2351,0.1681,0.1681,0.1412,0.1143,0.1076,0.1076,0.1076,0.1076,0.1076,0.1076,0.1076,0.1076,0.1076,0.1076,0.1076,0.1076,0.1076,0.1076,0.1076,0.1076,0.1076,0.1076,0.1076,0.1076,0.1076,0.1076,0.1076,0.1076,0.1076,0.1076,0.1076,0.1076,0.1076,0.1076,0.1076,0.1076,0.1076,0.1076,0.1076,0.1076,0.1076,0.1008,0.0202,-0.1951,-0.2221,-0.2221,-0.2221,-0.2221,-0.2221,-0.2221,-0.2221,-0.2221,-0.2221,-0.2221,-0.2221,-0.2221,-0.2221,-0.2193,-0.2133,-0.2133,-0.2102,-0.1977,-0.1916,-0.1857,-0.1801,-0.1798,-0.1797,0.0,0.0,0.0,0.0,0.0,0.0,0.9146,0.9504,0.9819,0.9936,0.9965,0.9965,0.9965,1.0404,1.0763,1.0763,1.0858,1.0754,1.0152,0.9367,0.8575,0.7782,0.6997,0.6386,0.6079,0.6079,0.6079,0.6079,0.6079,0.6051,0.5986,0.5982,0.5953,0.5892,0.5888,0.5521,0.4725,0.3992,0.3461,0.3065,0.3065,0.2987,0.2942,0.2486,0.2159,0.1899,0.1441,0.1192,0.1076,0.1076,0.1076,0.1076,0.1076,0.1076,0.1076,0.1076,0.1076,0.1076,0.1076,0.1076,0.1076,0.1076,0.1076,0.1076,0.1076,0.1076,0.1076,0.1076,0.1076,0.1076,0.1076,0.1076,0.1076,0.1076,0.1076,0.1076,0.1076,0.1076,0.1076,0.1076,0.1076,0.1076,0.1076,0.1076,0.1076,0.1076,0.1076,0.0269,-0.1884,-0.2221,-0.2221,-0.2221,-0.2221,-0.2221,-0.2221,-0.2221,-0.2221,-0.2221,-0.2221,-0.2221,-0.2221,-0.2182,-0.2151,-0.2128,-0.1986,-0.1936,-0.1913,-0.1891,-0.1853,-0.1797,-0.1797,-0.1797,0.0,0.0,0.0,0.0,0.0,0.0,0.8729,0.9087,0.9336,0.9446,0.9548,0.9614,0.9614,0.9965,1.0294,1.0404,1.0514,1.0415,1.0128,0.9188,0.8305,0.7833,0.6892,0.6125,0.5949,0.5888,0.5888,0.5888,0.5888,0.586,0.5799,0.5795,0.577,0.5709,0.5588,0.5177,0.4523,0.3873,0.3416,0.3151,0.3032,0.2835,0.2728,0.2221,0.1906,0.1716,0.1208,0.1029,0.1047,0.1057,0.1061,0.1062,0.1072,0.1076,0.1076,0.1076,0.1076,0.1076,0.1076,0.1076,0.1076,0.1076,0.1076,0.1076,0.1076,0.1076,0.1076,0.1076,0.1076,0.1076,0.1076,0.1076,0.1073,0.1064,0.1061,0.1059,0.1048,0.1061,0.1076,0.1076,0.1076,0.1076,0.1076,0.1076,0.1076,0.1076,0.1076,0.047,-0.1412,-0.1614,-0.1749,-0.2154,-0.2221,-0.2221,-0.2221,-0.2221,-0.2221,-0.2221,-0.2202,-0.2189,-0.2189,-0.213,-0.2086,-0.2003,-0.1922,-0.1872,-0.1853,-0.1853,-0.1834,-0.1797,-0.1797,-0.1797,0.0,0.0,0.0,0.0,0.0,0.0,0.8743,0.0,0.8751,0.9087,0.9387,0.9592,0.9607,0.9614,0.9716,1.0038,1.0241,1.0336,1.01,0.951,0.8749,0.787,0.7225,0.6644,0.5932,0.5872,0.5872,0.5872,0.5872,0.5795,0.5612,0.5604,0.5527,0.5305,0.4912,0.4691,0.4691,0.3858,0.347,0.3465,0.3056,0.2511,0.203,0.1969,0.1663,0.0987,0.0987,0.0986,0.0988,0.1019,0.1032,0.1035,0.1062,0.1073,0.1073,0.1073,0.1073,0.1073,0.1073,0.1073,0.1073,0.1073,0.1074,0.1074,0.1073,0.1074,0.1074,0.1073,0.1073,0.1073,0.1073,0.1073,0.1066,0.1039,0.1032,0.1024,0.0994,0.1033,0.1073,0.1074,0.1075,0.1076,0.1076,0.1076,0.1076,0.1076,0.1076,0.0739,-0.0336,-0.047,-0.0941,-0.2087,-0.2221,-0.2221,-0.2221,-0.222,-0.2218,-0.2218,-0.2159,-0.2124,-0.2124,-0.2064,-0.1941,-0.1883,-0.188,-0.1852,-0.1797,-0.1797,-0.1797,-0.1797,-0.1797,-0.1797,0.5059,0.0,0.0,0.0,0.0,0.0,0.0,0.0,0.8143,0.8707,0.889,0.908,0.9526,0.9614,0.9643,0.9738,0.9773,0.9724,0.9463,0.8977,0.8263,0.7384,0.6774,0.616,0.5498,0.5446,0.5446,0.5446,0.5446,0.5426,0.5369,0.5369,0.5349,0.5301,0.5187,0.5022,0.4691,0.4467,0.4042,0.3406,0.3293,0.2888,0.2266,0.1965,0.1669,0.1374,0.1075,0.0943,0.0927,0.098,0.1001,0.1001,0.1009,0.1012,0.1012,0.1012,0.1012,0.1012,0.1012,0.1012,0.1012,0.1012,0.1027,0.1041,0.1019,0.1028,0.1041,0.1018,0.1012,0.1012,0.1012,0.1012,0.1011,0.1003,0.1001,0.0999,0.099,0.1001,0.1019,0.1041,0.1061,0.1076,0.1076,0.1076,0.1076,0.1076,0.1076,0.1008,0.0672,-0.0269,-0.1277,-0.2087,-0.2221,-0.2221,-0.2221,-0.2179,-0.2154,-0.2154,-0.2095,-0.1997,-0.1997,-0.1939,-0.1899,-0.1882,-0.1841,-0.1812,-0.1797,-0.1797,-0.1797,-0.1797,-0.1797,-0.1797,0.0,0.0,0.0,0.0,0.0,0.0,0.7024,0.7299,0.7697,0.8348,0.8597,0.8794,0.916,0.9336,0.9431,0.9431,0.9533,0.9517,0.9263,0.8679,0.809,0.7503,0.6912,0.6322,0.5727,0.5673,0.5567,0.5297,0.5297,0.5297,0.5297,0.5297,0.5297,0.5297,0.5297,0.5187,0.4967,0.4743,0.4353,0.3855,0.3633,0.3107,0.2307,0.2188,0.1786,0.1213,0.0982,0.0914,0.09,0.0936,0.0958,0.0971,0.0984,0.0988,0.0988,0.0988,0.0988,0.0988,0.0988,0.0988,0.0988,0.0988,0.1,0.1012,0.0994,0.1001,0.1011,0.0993,0.0988,0.0988,0.0988,0.0988,0.0985,0.0972,0.0972,0.0971,0.0954,0.0951,0.0963,0.1006,0.1034,0.1056,0.1073,0.1076,0.1076,0.1076,0.1076,0.1076,0.1076,-0.047,-0.1748,-0.2154,-0.2124,-0.2104,-0.2104,-0.2056,-0.2088,-0.2088,-0.1967,-0.1935,-0.1935,-0.1877,-0.1846,-0.1846,-0.1813,-0.1797,-0.1797,-0.1797,-0.1797,-0.1797,-0.1797,-0.1797,0.0,0.7001,0.0,0.0,0.7006,0.0,0.7422,0.7331,0.7299,0.7924,0.8268,0.8494,0.8568,0.8846,0.9065,0.9065,0.9343,0.9474,0.9256,0.8613,0.8131,0.7925,0.745,0.6918,0.6263,0.6209,0.5941,0.5352,0.5297,0.5297,0.5297,0.5297,0.5297,0.5297,0.5297,0.5297,0.5297,0.4798,0.4519,0.4519,0.4073,0.3297,0.2296,0.2402,0.1956,0.1009,0.0954,0.0898,0.0898,0.0898,0.0913,0.0882,0.0968,0.0978,0.0978,0.0978,0.0978,0.0978,0.0978,0.0978,0.0978,0.0978,0.0981,0.0983,0.098,0.0981,0.0983,0.098,0.0978,0.0978,0.0978,0.0978,0.0971,0.0885,0.0944,0.0999,0.0905,0.0898,0.0913,0.0968,0.0997,0.1027,0.1068,0.1076,0.1071,0.1058,0.1067,0.1076,0.1076,-0.0798,-0.218,-0.218,-0.2059,-0.1959,-0.1959,-0.1985,-0.1962,-0.1902,-0.1906,-0.1872,-0.1814,-0.1823,-0.1797,-0.1797,-0.1797,-0.1797,-0.1797,-0.1797,-0.1797,-0.1797,-0.1797,-0.1797,0.8036,0.8233,0.8529,0.7619,0.7754,0.0,0.6812,0.6687,0.6833,0.6964,0.7037,0.7241,0.7807,0.8173,0.8392,0.8392,0.8882,0.9249,0.9228,0.9099,0.8725,0.7978,0.7818,0.7337,0.6317,0.6209,0.5941,0.5352,0.5297,0.5297,0.5297,0.5297,0.5297,0.5297,0.5297,0.5297,0.5297,0.5073,0.4794,0.4519,0.4245,0.3688,0.2907,0.2462,0.2014,0.1623,0.1121,0.0898,0.0898,0.0898,0.0901,0.0907,0.0913,0.0915,0.0915,0.0915,0.0915,0.0915,0.0915,0.0915,0.0915,0.0915,0.0932,0.0947,0.0923,0.0932,0.0947,0.0922,0.0915,0.0915,0.0915,0.0915,0.0913,0.0907,0.0908,0.0907,0.0899,0.0898,0.0901,0.0913,0.0958,0.1012,0.1066,0.1076,0.1043,0.0947,0.1014,0.1076,0.1076,-0.062,-0.1867,-0.1867,-0.191,-0.1939,-0.1939,-0.1914,-0.1782,-0.1368,-0.1673,-0.1642,-0.1245,-0.1633,-0.1797,-0.1797,-0.1797,-0.1797,-0.1797,-0.1797,-0.1797,-0.1797,-0.1797,-0.1797,0.9101,0.913,0.9289,0.873,0.8714,0.0,0.0,0.7388,0.7174,0.7638,0.719,0.6899,0.7595,0.7851,0.796,0.796,0.8509,0.8929,0.8877,0.9066,0.9001,0.8421,0.8368,0.7883,0.6756,0.6647,0.6268,0.5352,0.5297,0.5297,0.5297,0.5297,0.5297,0.5297,0.5297,0.5297,0.5297,0.5124,0.4901,0.468,0.4522,0.4079,0.335,0.3128,0.2571,0.179,0.1456,0.1177,0.0898,0.0898,0.0898,0.0898,0.0898,0.0898,0.0898,0.0898,0.0898,0.0898,0.0898,0.0898,0.0898,0.0898,0.0908,0.0917,0.0902,0.0909,0.0917,0.0902,0.0898,0.0898,0.0898,0.0898,0.0898,0.0898,0.0898,0.0898,0.0898,0.0898,0.0898,0.0898,0.0922,0.0952,0.0982,0.0987,0.0967,0.0907,0.0948,0.0678,-0.0247,-0.1168,-0.1797,-0.1797,-0.1832,-0.1857,-0.1857,-0.1614,-0.1379,-0.115,-0.1132,-0.1122,-0.1122,-0.1347,-0.1572,-0.1797,-0.1797,-0.1797,-0.1797,-0.1797,-0.1797,-0.1797,-0.1797,-0.1797,1.028,1.0106,1.0079,0.9952,0.9778,0.949,0.0,0.0,0.0,0.8271,0.7476,0.6862,0.7393,0.7488,0.7488,0.7488,0.8077,0.8427,0.8218,0.8657,0.8871,0.8682,0.8637,0.8235,0.7276,0.6972,0.6401,0.5403,0.5233,0.5225,0.5293,0.5297,0.5297,0.5297,0.5297,0.5297,0.5297,0.5014,0.4897,0.4897,0.4739,0.4353,0.3793,0.3738,0.3183,0.2124,0.1902,0.1512,0.1065,0.0953,0.0898,0.0898,0.0898,0.0898,0.0898,0.0898,0.0898,0.0898,0.0898,0.0898,0.0898,0.0898,0.0898,0.0898,0.0898,0.0898,0.0898,0.0898,0.0898,0.0898,0.0898,0.0898,0.0898,0.0898,0.0898,0.0898,0.0898,0.0898,0.0898,0.0898,0.0898,0.0898,0.0898,0.0898,0.0898,0.0898,0.0898,0.0224,-0.1572,-0.1515,-0.129,-0.129,-0.1403,-0.1515,-0.1515,-0.1178,-0.0954,-0.0954,-0.0673,-0.0729,-0.1066,-0.1178,-0.1403,-0.1797,-0.1797,-0.1797,-0.1797,-0.1797,-0.1797,-0.1797,-0.1797,-0.1797,1.1508,1.1631,1.1626,1.0517,1.0681,1.0596,0.8514,0.0,0.8031,0.7115,0.0,0.6731,0.6804,0.0,0.0,0.6811,0.7357,0.7685,0.724,0.7745,0.8151,0.8181,0.8078,0.7879,0.7512,0.6473,0.5719,0.5328,0.5,0.5007,0.5281,0.5297,0.5297,0.5297,0.5297,0.5297,0.5297,0.5014,0.4897,0.4897,0.4625,0.4463,0.4405,0.3849,0.3516,0.3347,0.2291,0.1734,0.1679,0.1121,0.0898,0.0898,0.0898,0.0898,0.0898,0.0898,0.0898,0.0898,0.0898,0.0898,0.0898,0.0898,0.0898,0.0898,0.0898,0.0898,0.0898,0.0898,0.0898,0.0898,0.0898,0.0898,0.0898,0.0898,0.0898,0.0898,0.0898,0.0898,0.0898,0.0898,0.0898,0.0898,0.0898,0.0898,0.0898,0.0898,0.0898,0.0224,-0.1572,-0.0393,0.0617,0.0617,-0.0112,-0.0561,-0.0561,-0.0505,-0.0505,-0.0505,-0.0842,-0.1066,-0.1122,-0.1515,-0.1741,-0.1797,-0.1797,-0.1797,-0.1797,-0.1797,-0.1797,-0.1797,-0.1797,-0.1797,1.1655,1.1512,1.1344,1.111,1.0856,1.0397,0.9506,0.8876,0.8372,0.8005,0.0,0.0,0.0,0.0,0.0,0.0,0.6935,0.7,0.6644,0.6922,0.7305,0.7612,0.7541,0.7341,0.7002,0.6218,0.5673,0.5422,0.5135,0.5054,0.5177,0.5198,0.5247,0.5293,0.5297,0.5297,0.5297,0.5014,0.4897,0.4897,0.4625,0.4519,0.4519,0.4239,0.3904,0.3569,0.307,0.2458,0.179,0.1512,0.1232,0.0898,0.0898,0.0898,0.0898,0.0898,0.0898,0.0898,0.0898,0.0898,0.0898,0.0898,0.0898,0.0898,0.0898,0.0898,0.0898,0.0898,0.0898,0.0898,0.0898,0.0898,0.0898,0.0898,0.0898,0.0898,0.0898,0.0898,0.0898,0.0898,0.0898,0.0898,0.0898,0.0898,0.0898,0.0898,0.0898,0.0617,-0.0112,0.0449,0.0898,0.0898,0.0561,0.0336,0.0336,0.0112,-0.0056,-0.0056,-0.0224,-0.0449,-0.0673,-0.1122,-0.1515,-0.1797,-0.1797,-0.1797,-0.1797,-0.1797,-0.1797,-0.1797,-0.1797,-0.1797,1.1688,1.1452,1.1186,1.1248,1.0803,1.0179,0.973,0.907,0.8568,0.8489,0.7769,0.0,0.0,0.0,0.0,0.0,0.0,0.6564,0.6223,0.6382,0.665,0.6936,0.7024,0.6875,0.6463,0.6017,0.5644,0.5424,0.5116,0.4943,0.5034,0.5052,0.5141,0.5221,0.5273,0.5297,0.5297,0.5014,0.4897,0.4897,0.4625,0.4519,0.4519,0.4519,0.4239,0.3849,0.368,0.3125,0.2291,0.1956,0.1568,0.1121,0.0953,0.0898,0.0898,0.0898,0.0898,0.0898,0.0898,0.0898,0.0898,0.0898,0.0898,0.0898,0.0898,0.0898,0.0898,0.0898,0.0898,0.0898,0.0898,0.0898,0.0898,0.0898,0.0898,0.0898,0.0898,0.0898,0.0898,0.0898,0.0898,0.0898,0.0898,0.0898,0.0898,0.0898,0.0898,0.0898,0.0898,0.0898,0.0898,0.0898,0.0898,0.0898,0.0898,0.0561,0.0393,0.0393,0.0168,-0.0112,-0.0393,-0.0842,-0.1234,-0.1628,-0.1741,-0.1797,-0.1797,-0.1797,-0.1797,-0.1797,-0.1797,-0.1797,1.1931,1.2089,1.1803,1.0702,1.064,1.0353,0.8428,0.8381,0.859,0.7876,0.7953,0.8063,0.777,0.0,0.0,0.0,0.0,0.0,0.0,0.6113,0.6258,0.6143,0.6498,0.6494,0.5969,0.5746,0.5476,0.5148,0.4733,0.4596,0.4784,0.4983,0.5084,0.5088,0.5209,0.5297,0.5297,0.5014,0.4897,0.4897,0.4625,0.4519,0.4519,0.4519,0.4463,0.4463,0.3849,0.3569,0.3458,0.2291,0.179,0.1734,0.1121,0.0898,0.0898,0.0898,0.0898,0.0898,0.0898,0.0898,0.0898,0.0898,0.0898,0.0898,0.0898,0.0898,0.0898,0.0898,0.0898,0.0898,0.0898,0.0898,0.0898,0.0898,0.0898,0.0898,0.0898,0.0898,0.0898,0.0898,0.0898,0.0898,0.0898,0.0898,0.0898,0.0898,0.0898,0.0898,0.0898,0.0898,0.0898,0.0898,0.0898,0.0898,0.0898,0.0898,0.0898,0.0898,0.0112,-0.0393,-0.0393,-0.0842,-0.1122,-0.1122,-0.1572,-0.1797,-0.1797,-0.1797,-0.1797,-0.1797,-0.1797,-0.1797,1.139,1.1259,1.0906,1.0594,1.0197,0.9591,0.8701,0.8629,0.857,0.7861,0.7975,0.8099,0.7777,0.0,0.0,0.0,0.0,0.0,0.0,0.0,0.5378,0.5537,0.0,0.0,0.0,0.5631,0.5584,0.5396,0.5236,0.5132,0.5067,0.5238,0.5305,0.5128,0.5205,0.5297,0.5297,0.5014,0.4897,0.4897,0.4625,0.4519,0.4519,0.4519,0.4519,0.4463,0.4294,0.3959,0.3569,0.3181,0.2514,0.179,0.1567,0.1232,0.0898,0.0898,0.0898,0.0898,0.0898,0.0898,0.0898,0.0898,0.0898,0.0898,0.0898,0.0898,0.0898,0.0898,0.0898,0.0898,0.0898,0.0898,0.0898,0.0898,0.0898,0.0898,0.0898,0.0898,0.0898,0.0898,0.0898,0.0898,0.0898,0.0898,0.0898,0.0898,0.0898,0.0898,0.0898,0.0898,0.0898,0.0898,0.0898,0.0898,0.0898,0.0898,0.0898,0.0898,0.0617,0.0336,-0.0,-0.0168,-0.0505,-0.1066,-0.1234,-0.1515,-0.1797,-0.1797,-0.1797,-0.1797,-0.1797,-0.1797,1.078,1.0651,1.0386,1.0227,0.9888,0.9329,0.8573,0.8591,0.8587,0.7996,0.8055,0.8173,0.8027,0.0,0.0,0.0,0.0,0.0,0.0,0.5151,0.5231,0.0,0.0,0.0,0.0,0.539,0.5364,0.5311,0.5335,0.5292,0.5203,0.5387,0.5399,0.5183,0.5222,0.5183,0.5183,0.5011,0.4901,0.4849,0.4629,0.4519,0.4519,0.4519,0.4519,0.4519,0.4519,0.4294,0.3904,0.3683,0.3125,0.2402,0.2181,0.1734,0.1177,0.0953,0.0898,0.0898,0.0898,0.0898,0.0898,0.0898,0.0898,0.0898,0.0898,0.0898,0.0898,0.0898,0.0898,0.0898,0.0898,0.0898,0.0898,0.0898,0.0898,0.0898,0.0898,0.0898,0.0898,0.0898,0.0898,0.0898,0.0898,0.0898,0.0898,0.0898,0.0898,0.0898,0.0898,0.0898,0.0898,0.0898,0.0898,0.0898,0.0898,0.0898,0.0898,0.0898,0.0898,0.0785,0.0449,0.0168,-0.028,-0.0842,-0.1178,-0.1515,-0.1797,-0.1797,-0.1797,-0.1797,-0.1797,-0.1797]},{"header":{"parameterUnit":"m.s-1","parameterCategory":1,"la1":30.6,"la2":29.2853,"lo1":-89.7004,"lo2":-87.6739,"dy":0.0162,"dx":0.0183,"nx":112,"ny":82,"refTime":"2024-07-11T06:00:00:Z","depth":0,"parameterNumber":3,"parameterNumberName":"V-component_of_WINDS"},"data":[0.0,0.0,0.0,0.0,0.0,0.0,0.0,0.0,0.0,0.0,0.0,0.0,0.0,0.0,0.0,0.0,0.0,0.0,0.0,0.0,0.0,0.0,0.0,0.0,0.0,0.0,0.0,0.0,0.0,0.0,0.0,0.0,0.0,0.0,0.0,0.0,0.0,0.0,0.0,0.0,0.0,0.0,0.0,0.0,0.0,0.0,0.0,0.0,0.0,0.0,0.0,0.0,0.0,0.0,0.0,0.0,0.0,0.0,0.0,0.0,0.0,0.0,0.0,0.0,0.0,0.0,0.0,0.0,0.0,0.0,0.0,0.0,0.0,0.0,0.0,0.0,0.0,0.0,0.0,0.0,0.0,0.0,0.0,0.0,0.0,0.0,0.0,0.0,0.0,0.0,-1.4378,-1.6366,-1.8548,-1.9839,-1.9832,-1.9782,-1.8392,-1.5207,0.0,0.0,0.0,0.0,0.0,0.0,0.0,0.0,0.0,0.0,0.0,0.0,0.0,0.0,0.0,0.0,0.0,0.0,0.0,0.0,0.0,0.0,0.0,0.0,0.0,0.0,0.0,0.0,0.0,0.0,0.0,0.0,0.0,0.0,0.0,0.0,0.0,0.0,0.0,0.0,0.0,0.0,0.0,0.0,0.0,0.0,0.0,0.0,0.0,0.0,0.0,0.0,0.0,0.0,0.0,0.0,0.0,0.0,0.0,0.0,0.0,0.0,0.0,0.0,0.0,0.0,0.0,0.0,0.0,0.0,0.0,0.0,0.0,0.0,0.0,0.0,0.0,0.0,0.0,0.0,0.0,0.0,0.0,0.0,0.0,0.0,0.0,0.0,0.0,0.0,0.0,0.0,0.0,0.0,0.0,0.0,0.0,0.0,0.0,0.0,0.0,0.0,0.0,0.0,-1.481,-1.7985,-1.9421,-2.0098,-1.9988,-1.9411,-1.7892,-1.5177,0.0,0.0,0.0,0.0,0.0,0.0,0.0,0.0,0.0,0.0,0.0,0.0,0.0,0.0,0.0,0.0,0.0,0.0,0.0,0.0,0.0,0.0,0.0,0.0,0.0,0.0,0.0,0.0,0.0,0.0,0.0,0.0,0.0,0.0,0.0,0.0,0.0,0.0,0.0,0.0,0.0,0.0,0.0,0.0,0.0,0.0,0.0,0.0,0.0,0.0,0.0,0.0,0.0,0.0,0.0,0.0,0.0,0.0,0.0,0.0,0.0,0.0,0.0,0.0,0.0,0.0,0.0,0.0,0.0,0.0,0.0,0.0,0.0,0.0,0.0,0.0,0.0,0.0,0.0,0.0,0.0,0.0,0.0,0.0,0.0,0.0,0.0,0.0,0.0,0.0,0.0,0.0,0.0,0.0,0.0,0.0,0.0,0.0,0.0,0.0,0.0,0.0,0.0,-1.4549,-1.6183,-1.9145,-1.9878,-2.0117,-2.0069,-1.9782,-1.8308,-1.5259,-1.5045,0.0,0.0,0.0,0.0,0.0,0.0,0.0,0.0,0.0,0.0,0.0,0.0,0.0,0.0,0.0,0.0,0.0,0.0,0.0,0.0,0.0,0.0,0.0,0.0,0.0,0.0,0.0,0.0,0.0,0.0,0.0,0.0,0.0,0.0,0.0,0.0,0.0,0.0,0.0,0.0,0.0,0.0,0.0,0.0,0.0,0.0,0.0,0.0,0.0,0.0,0.0,0.0,0.0,0.0,0.0,0.0,0.0,0.0,0.0,0.0,0.0,0.0,0.0,0.0,0.0,0.0,0.0,0.0,0.0,0.0,0.0,0.0,0.0,0.0,0.0,0.0,0.0,0.0,0.0,0.0,0.0,0.0,0.0,0.0,0.0,0.0,0.0,0.0,0.0,0.0,0.0,0.0,0.0,0.0,0.0,0.0,0.0,0.0,0.0,0.0,0.0,0.0,-1.6295,-1.7496,-1.984,-2.0088,-2.0088,-2.0088,-1.9772,-1.8308,-1.5284,-1.4731,0.0,0.0,0.0,0.0,0.0,0.0,0.0,0.0,0.0,0.0,0.0,0.0,0.0,0.0,0.0,0.0,0.0,0.0,0.0,0.0,0.0,0.0,0.0,0.0,0.0,0.0,0.0,0.0,0.0,0.0,0.0,0.0,0.0,0.0,0.0,0.0,0.0,0.0,0.0,0.0,0.0,0.0,0.0,0.0,0.0,0.0,0.0,0.0,0.0,0.0,0.0,0.0,0.0,0.0,0.0,0.0,0.0,0.0,0.0,0.0,0.0,0.0,0.0,0.0,0.0,0.0,0.0,0.0,0.0,0.0,0.0,0.0,0.0,0.0,0.0,0.0,0.0,0.0,0.0,0.0,0.0,0.0,0.0,0.0,0.0,0.0,0.0,0.0,0.0,0.0,0.0,0.0,0.0,0.0,0.0,0.0,0.0,0.0,0.0,0.0,0.0,0.0,-1.6505,-1.8168,-1.9898,-2.0088,-2.0088,-2.0088,-1.8693,-1.7011,-1.5207,-1.3641,0.0,0.0,0.0,0.0,0.0,0.0,0.0,0.0,0.0,0.0,0.0,0.0,0.0,0.0,0.0,0.0,0.0,0.0,0.0,0.0,0.0,0.0,0.0,0.0,0.0,0.0,0.0,0.0,0.0,0.0,0.0,0.0,0.0,0.0,0.0,0.0,0.0,0.0,0.0,0.0,0.0,0.0,0.0,0.0,0.0,0.0,0.0,0.0,0.0,0.0,0.0,0.0,0.0,0.0,0.0,0.0,0.0,0.0,0.0,0.0,0.0,0.0,0.0,0.0,0.0,0.0,0.0,0.0,0.0,0.0,0.0,0.0,0.0,0.0,0.0,0.0,0.0,0.0,0.0,0.0,0.0,0.0,0.0,0.0,0.0,0.0,0.0,0.0,0.0,0.0,0.0,0.0,0.0,0.0,0.0,0.0,0.0,0.0,0.0,0.0,0.0,0.0,-1.6043,-1.7638,-1.9859,-2.0145,-2.0155,-2.0155,-1.9082,-1.7463,-1.5235,0.0,0.0,0.0,0.0,0.0,0.0,0.0,0.0,0.0,0.0,0.0,0.0,0.0,0.0,0.0,0.0,0.0,0.0,0.0,0.0,0.0,0.0,0.0,0.0,0.0,0.0,0.0,0.0,0.0,0.0,0.0,0.0,0.0,0.0,0.0,0.0,0.0,0.0,0.0,0.0,0.0,0.0,0.0,0.0,0.0,0.0,0.0,0.0,0.0,0.0,0.0,0.0,0.0,0.0,0.0,0.0,0.0,0.0,0.0,0.0,0.0,0.0,0.0,0.0,0.0,0.0,0.0,0.0,0.0,0.0,0.0,0.0,0.0,0.0,0.0,0.0,0.0,0.0,0.0,0.0,0.0,0.0,0.0,0.0,0.0,0.0,0.0,0.0,0.0,0.0,0.0,0.0,0.0,0.0,0.0,0.0,0.0,0.0,0.0,0.0,0.0,0.0,-1.4722,-1.6013,-1.7581,-1.9897,-2.0164,-2.0201,-2.0209,-1.8915,-1.7248,-1.5229,0.0,0.0,0.0,0.0,0.0,0.0,0.0,0.0,0.0,0.0,0.0,0.0,0.0,0.0,0.0,0.0,0.0,0.0,0.0,0.0,0.0,0.0,0.0,0.0,0.0,0.0,0.0,0.0,0.0,0.0,0.0,0.0,0.0,0.0,0.0,0.0,0.0,0.0,0.0,0.0,0.0,0.0,0.0,0.0,0.0,0.0,0.0,0.0,0.0,0.0,0.0,0.0,0.0,0.0,0.0,0.0,0.0,0.0,0.0,0.0,0.0,0.0,0.0,0.0,0.0,0.0,0.0,0.0,0.0,0.0,0.0,0.0,0.0,0.0,0.0,0.0,0.0,0.0,0.0,0.0,0.0,0.0,0.0,0.0,0.0,0.0,0.0,0.0,0.0,0.0,0.0,0.0,0.0,0.0,0.0,0.0,0.0,0.0,0.0,0.0,0.0,0.0,-1.4875,-1.6571,-1.8281,-2.002,-2.0192,-2.0201,-2.0188,-1.7869,-1.604,0.0,0.0,0.0,0.0,0.0,0.0,0.0,0.0,0.0,0.0,0.0,0.0,0.0,0.0,0.0,0.0,0.0,0.0,0.0,0.0,0.0,0.0,0.0,0.0,0.0,0.0,0.0,0.0,0.0,0.0,0.0,0.0,0.0,0.0,0.0,0.0,0.0,0.0,0.0,0.0,0.0,0.0,0.0,0.0,0.0,0.0,0.0,0.0,0.0,0.0,0.0,0.0,0.0,0.0,0.0,0.0,0.0,0.0,0.0,0.0,0.0,0.0,0.0,0.0,0.0,0.0,0.0,0.0,0.0,0.0,0.0,0.0,0.0,0.0,0.0,0.0,0.0,0.0,0.0,0.0,0.0,0.0,0.0,0.0,0.0,0.0,0.0,0.0,0.0,0.0,0.0,0.0,0.0,0.0,0.0,0.0,0.0,0.0,0.0,0.0,0.0,0.0,0.0,-1.4959,-1.7098,-1.8941,-2.0012,-2.0182,-2.0208,-2.0197,-1.8436,-1.6695,-1.5261,0.0,0.0,0.0,0.0,0.0,0.0,0.0,0.0,0.0,0.0,0.0,0.0,0.0,0.0,0.0,0.0,0.0,0.0,0.0,0.0,0.0,0.0,0.0,0.0,0.0,0.0,0.0,0.0,0.0,0.0,0.0,0.0,0.0,0.0,0.0,0.0,0.0,0.0,0.0,0.0,0.0,0.0,0.0,0.0,0.0,0.0,0.0,0.0,0.0,0.0,0.0,0.0,0.0,0.0,0.0,0.0,0.0,0.0,0.0,0.0,0.0,0.0,0.0,0.0,0.0,0.0,0.0,0.0,0.0,0.0,0.0,0.0,0.0,0.0,0.0,0.0,0.0,0.0,0.0,0.0,0.0,0.0,0.0,0.0,0.0,0.0,0.0,0.0,0.0,0.0,0.0,0.0,0.0,0.0,0.0,0.0,0.0,0.0,0.0,0.0,0.0,0.0,-1.4997,-1.7309,-1.9228,-2.0049,-2.0171,-2.0216,-2.0233,-1.8996,-1.7491,-1.5823,0.0,0.0,0.0,0.0,0.0,0.0,0.0,0.0,0.0,0.0,0.0,0.0,0.0,0.0,0.0,0.0,0.0,0.0,0.0,0.0,0.0,0.0,0.0,0.0,0.0,0.0,0.0,0.0,0.0,0.0,0.0,0.0,0.0,0.0,0.0,0.0,0.0,0.0,0.0,0.0,0.0,0.0,0.0,0.0,0.0,0.0,0.0,0.0,0.0,0.0,0.0,0.0,0.0,0.0,0.0,0.0,0.0,0.0,0.0,0.0,0.0,0.0,0.0,0.0,0.0,0.0,0.0,0.0,0.0,0.0,0.0,0.0,0.0,0.0,0.0,0.0,0.0,0.0,0.0,0.0,0.0,0.0,0.0,0.0,0.0,0.0,0.0,0.0,0.0,0.0,0.0,0.0,0.0,0.0,0.0,0.0,0.0,0.0,0.0,0.0,0.0,0.0,-1.4997,-1.7393,-1.9322,-2.0131,-2.0197,-2.0214,-2.0285,-1.9504,-1.8281,-1.6607,0.0,0.0,0.0,0.0,0.0,0.0,0.0,0.0,0.0,0.0,0.0,0.0,0.0,0.0,0.0,0.0,0.0,0.0,0.0,0.0,0.0,0.0,0.0,0.0,0.0,0.0,0.0,0.0,0.0,0.0,0.0,0.0,0.0,0.0,0.0,0.0,0.0,0.0,0.0,0.0,0.0,0.0,0.0,0.0,0.0,0.0,0.0,0.0,0.0,0.0,0.0,0.0,0.0,0.0,0.0,0.0,0.0,0.0,0.0,0.0,-1.3174,-1.1812,0.0,0.0,0.0,0.0,0.0,0.0,0.0,0.0,0.0,0.0,0.0,0.0,0.0,0.0,0.0,0.0,0.0,0.0,0.0,0.0,0.0,0.0,0.0,0.0,0.0,0.0,0.0,0.0,0.0,0.0,0.0,0.0,0.0,0.0,0.0,0.0,0.0,0.0,0.0,0.0,-1.5073,-1.7917,-2.0,-2.0182,-2.0197,-2.0203,-2.0211,-1.9465,-1.8281,-1.6618,-1.4932,0.0,0.0,0.0,0.0,0.0,0.0,0.0,0.0,0.0,0.0,0.0,0.0,0.0,0.0,0.0,0.0,0.0,0.0,0.0,0.0,0.0,0.0,0.0,0.0,0.0,0.0,0.0,0.0,0.0,0.0,0.0,0.0,0.0,0.0,0.0,0.0,0.0,0.0,0.0,0.0,0.0,0.0,0.0,0.0,0.0,0.0,0.0,0.0,0.0,0.0,0.0,0.0,0.0,0.0,0.0,0.0,0.0,0.0,0.0,-1.5776,-1.4624,0.0,0.0,0.0,0.0,0.0,0.0,0.0,0.0,0.0,0.0,0.0,0.0,0.0,0.0,0.0,0.0,0.0,0.0,0.0,0.0,0.0,0.0,0.0,0.0,0.0,0.0,0.0,0.0,0.0,0.0,0.0,0.0,0.0,0.0,0.0,0.0,0.0,0.0,0.0,0.0,-1.5668,-1.8707,-2.0677,-2.0285,-2.0616,-2.073,-2.0334,-1.9902,-1.9137,-1.7881,-1.6188,0.0,0.0,0.0,0.0,0.0,0.0,0.0,0.0,0.0,0.0,0.0,0.0,0.0,0.0,0.0,0.0,0.0,0.0,0.0,0.0,0.0,0.0,0.0,0.0,0.0,0.0,0.0,0.0,0.0,0.0,0.0,0.0,0.0,0.0,0.0,0.0,0.0,0.0,0.0,0.0,0.0,0.0,0.0,0.0,0.0,0.0,0.0,0.0,0.0,0.0,0.0,0.0,0.0,-1.7364,-1.7792,-1.8944,-1.8284,-1.872,-1.9888,-1.8627,-1.8001,-1.768,-1.5918,0.0,0.0,0.0,0.0,0.0,0.0,0.0,0.0,0.0,0.0,0.0,0.0,0.0,0.0,0.0,0.0,0.0,0.0,0.0,0.0,0.0,0.0,-1.8617,-1.8027,-1.9476,-1.9846,-1.5658,0.0,0.0,0.0,0.0,0.0,0.0,0.0,0.0,0.0,0.0,0.0,-1.6704,-1.958,-2.132,-2.0804,-2.1262,-2.1352,-2.0687,-2.0497,-2.0068,-1.9244,-1.7702,-1.6405,0.0,0.0,0.0,0.0,0.0,0.0,0.0,0.0,0.0,0.0,0.0,0.0,0.0,0.0,0.0,0.0,0.0,0.0,0.0,0.0,0.0,0.0,0.0,0.0,0.0,0.0,0.0,0.0,0.0,0.0,0.0,0.0,-1.1551,-1.2301,0.0,0.0,0.0,0.0,0.0,0.0,0.0,0.0,0.0,0.0,0.0,0.0,0.0,-1.7282,-1.8104,-1.9416,-2.0136,-2.0258,-2.1546,-2.2247,-2.2457,-2.2334,-2.2404,-2.2597,-2.2506,0.0,-1.9418,-1.8403,0.0,0.0,0.0,0.0,0.0,0.0,0.0,0.0,0.0,0.0,0.0,0.0,0.0,0.0,0.0,0.0,0.0,0.0,0.0,0.0,0.0,0.0,-2.1458,-2.1362,-2.1765,-2.1808,-2.0464,-1.8491,-1.6667,-1.563,-1.4406,-1.3451,0.0,0.0,0.0,0.0,0.0,0.0,-1.8375,-2.0349,-2.1835,-2.2499,-2.2041,-2.1634,-2.1546,-2.0847,-2.0068,-1.9244,-1.8273,-1.7036,-1.5458,-1.4347,0.0,0.0,0.0,0.0,0.0,0.0,0.0,0.0,0.0,0.0,0.0,0.0,0.0,0.0,0.0,0.0,0.0,0.0,0.0,0.0,0.0,0.0,0.0,0.0,0.0,0.0,0.0,0.0,0.0,-1.1897,-1.3166,-1.3909,-1.435,-1.4422,0.0,0.0,0.0,0.0,0.0,0.0,0.0,0.0,0.0,-1.9136,-2.0014,-2.0875,-2.1704,-2.279,-2.3333,-2.3358,-2.4059,-2.4452,-2.4564,-2.4529,-2.458,-2.4672,-2.4746,-2.423,-2.3173,-2.0844,-1.9337,-1.836,0.0,0.0,0.0,0.0,-1.7629,-1.7554,-1.9395,-1.9518,-1.883,-1.888,0.0,0.0,0.0,0.0,0.0,0.0,0.0,-1.9091,-1.9973,-2.1507,-2.2847,-2.2952,-2.3383,-2.3721,-2.336,-2.2087,-2.0352,-1.8117,-1.7468,-1.6696,-1.4809,-1.4627,0.0,0.0,0.0,-1.8467,-2.0145,-2.1934,-2.303,-2.2953,-2.3072,-2.2801,-2.1887,-2.1458,-2.0879,-2.0033,-1.9175,-1.836,-1.7626,-1.5811,-1.4308,0.0,0.0,0.0,0.0,0.0,0.0,0.0,0.0,0.0,0.0,0.0,0.0,0.0,0.0,0.0,0.0,0.0,0.0,0.0,0.0,0.0,0.0,0.0,0.0,0.0,0.0,0.0,0.0,-1.3394,-1.4765,-1.5503,-1.6484,-1.6747,0.0,0.0,0.0,0.0,0.0,0.0,-1.8644,-1.997,-2.1074,-2.1873,-2.3035,-2.3936,-2.4585,-2.5121,-2.5401,-2.5401,-2.5428,-2.5553,-2.5693,-2.5666,-2.5743,-2.5904,-2.5929,-2.602,-2.5895,-2.3129,-2.1634,-2.1002,-2.004,-1.961,-1.9577,-2.0365,-2.0314,-2.0192,-2.2318,-2.2518,-2.1789,-2.1666,-2.1293,-2.0528,-1.8785,0.0,0.0,0.0,0.0,-2.0774,-2.1644,-2.2858,-2.3884,-2.3979,-2.4492,-2.4974,-2.4974,-2.4574,-2.3422,-2.0709,-2.0317,-1.9648,-1.7133,-1.708,0.0,-1.7677,-1.882,-2.0254,-2.1963,-2.3381,-2.4077,-2.3713,-2.4055,-2.3832,-2.2641,-2.2153,-2.1626,-2.0964,-2.0105,-1.9539,-1.9303,-1.7431,-1.6085,-1.5402,0.0,0.0,0.0,0.0,0.0,0.0,0.0,0.0,0.0,0.0,0.0,0.0,0.0,0.0,0.0,0.0,0.0,0.0,0.0,0.0,0.0,0.0,0.0,0.0,0.0,0.0,0.0,0.0,0.0,-1.7097,-1.873,0.0,0.0,0.0,0.0,-1.9237,-2.0057,-2.1144,-2.2625,-2.3517,-2.4331,-2.5156,-2.5243,-2.5314,-2.5349,-2.5384,-2.5401,-2.5401,-2.5517,-2.5614,-2.5693,-2.5829,-2.5904,-2.5904,-2.6027,-2.6093,-2.6021,-2.5103,-2.424,-2.3448,-2.2638,-2.1803,-2.1187,-2.2057,-2.235,-2.2461,-2.3412,-2.3252,-2.2785,-2.3805,-2.3215,-2.2084,-2.1966,-2.1352,0.0,0.0,-2.259,-2.3401,-2.4279,-2.4676,-2.4845,-2.4845,-2.5006,-2.518,-2.518,-2.5172,-2.4847,-2.3842,-2.2392,-2.1273,-2.112,0.0,-2.0291,-2.1114,-2.1314,-2.2021,-2.3833,-2.42,-2.4593,-2.5399,-2.4829,-2.4358,-2.428,-2.2816,-2.1879,-2.184,-2.1022,-2.0163,-1.9323,-1.9166,-1.7938,-1.5441,-1.4464,0.0,0.0,0.0,0.0,0.0,0.0,0.0,0.0,0.0,0.0,0.0,0.0,0.0,0.0,0.0,0.0,0.0,0.0,0.0,0.0,0.0,0.0,0.0,0.0,0.0,0.0,0.0,0.0,-1.9921,-2.0849,0.0,-2.0951,-2.1423,-2.2068,-2.278,-2.3705,-2.4477,-2.5033,-2.5187,-2.5346,-2.5656,-2.6002,-2.6174,-2.6174,-2.6648,-2.6951,-2.7081,-2.7118,-2.7245,-2.745,-2.7502,-2.7579,-2.7637,-2.7834,-2.7906,-2.7851,-2.7185,-2.6275,-2.529,-2.5,-2.4777,-2.4644,-2.4978,-2.515,-2.5274,-2.5171,-2.4912,-2.4617,-2.4569,-2.4217,-2.3806,-2.3757,-2.3566,-2.3397,-2.3664,-2.4053,-2.4441,-2.4743,-2.4961,-2.5082,-2.5082,-2.5156,-2.5191,-2.5191,-2.5191,-2.5115,-2.4812,-2.4258,-2.3511,-2.2412,-2.246,-2.2575,-2.2373,-2.2846,-2.3655,-2.4826,-2.5071,-2.5254,-2.5559,-2.5378,-2.5004,-2.4456,-2.3345,-2.2447,-2.1938,-2.1081,-2.0456,-2.0144,-1.9597,-1.8602,-1.71,-1.5675,-1.3957,0.0,0.0,0.0,0.0,0.0,0.0,0.0,0.0,0.0,0.0,0.0,0.0,0.0,0.0,0.0,0.0,0.0,0.0,0.0,0.0,0.0,0.0,0.0,0.0,0.0,-1.9555,-2.128,-2.1844,-2.2878,-2.3472,-2.3264,-2.3974,-2.4681,-2.5175,-2.6072,-2.6594,-2.6594,-2.6682,-2.6727,-2.6727,-2.7326,-2.752,-2.7236,-2.8027,-2.8464,-2.8528,-2.8389,-2.8514,-2.8907,-2.8703,-2.8669,-2.8712,-2.8839,-2.8905,-2.885,-2.8474,-2.786,-2.7137,-2.6626,-2.6472,-2.6599,-2.6599,-2.6702,-2.6785,-2.6391,-2.6272,-2.6176,-2.5731,-2.5638,-2.5702,-2.5653,-2.5687,-2.5645,-2.5295,-2.5305,-2.5342,-2.5076,-2.5101,-2.5191,-2.5191,-2.5191,-2.5191,-2.5203,-2.5203,-2.5195,-2.5198,-2.5187,-2.4843,-2.3764,-2.4063,-2.4302,-2.3762,-2.4239,-2.4846,-2.5409,-2.5542,-2.5605,-2.5639,-2.5679,-2.5473,-2.4885,-2.3775,-2.2877,-2.235,-2.1237,-2.0593,-2.0593,-1.9754,-1.8895,-1.8018,-1.6007,-1.4289,-1.2885,0.0,0.0,0.0,0.0,0.0,0.0,0.0,0.0,0.0,0.0,0.0,0.0,0.0,0.0,0.0,0.0,0.0,0.0,0.0,0.0,0.0,0.0,0.0,-1.9549,-2.1169,-2.2605,-2.2826,-2.4817,-2.5941,-2.5245,-2.6091,-2.6567,-2.635,-2.7066,-2.7538,-2.7538,-2.8202,-2.8601,-2.8601,-2.9381,-2.9417,-2.8576,-2.9468,-2.9834,-2.962,-2.9174,-2.9302,-2.9937,-2.9412,-2.9108,-2.896,-2.9002,-2.9002,-2.8983,-2.8965,-2.9044,-2.8997,-2.7483,-2.6873,-2.6893,-2.6893,-2.6915,-2.6953,-2.7024,-2.7177,-2.7301,-2.7301,-2.749,-2.7701,-2.7701,-2.7701,-2.7529,-2.667,-2.6421,-2.6211,-2.544,-2.5229,-2.5191,-2.5191,-2.5191,-2.5203,-2.5206,-2.5198,-2.5198,-2.5212,-2.5222,-2.5222,-2.5292,-2.5359,-2.5387,-2.5395,-2.546,0.0,-2.5593,-2.5601,-2.5636,-2.5685,-2.5707,-2.5707,-2.5707,-2.4106,-2.3091,-2.3091,-2.153,-2.0593,-2.0593,-1.9793,-1.8914,-1.8018,-1.5498,-1.3781,-1.2982,0.0,0.0,0.0,0.0,0.0,0.0,0.0,0.0,0.0,0.0,0.0,0.0,0.0,0.0,0.0,0.0,0.0,0.0,0.0,0.0,0.0,-2.1101,-2.2531,-2.2138,-2.41,-2.5666,-2.5801,-2.6215,-2.6622,-2.6951,-2.7805,-2.8562,-2.9062,-3.0033,-3.0604,-3.0604,-3.0601,-3.0595,-3.0595,-3.0636,-3.0423,-2.9958,-3.0332,-3.043,-3.0248,-3.0269,-3.0503,-3.091,-3.0748,-3.0759,-3.0872,-3.1006,-3.1069,-3.1054,-3.0549,-3.0368,-3.0277,-2.8971,-2.8586,-2.8764,-2.8764,-2.8519,-2.8218,-2.8282,-2.796,-2.7528,-2.7584,-2.7643,-2.7701,-2.7701,-2.7701,-2.7644,-2.7415,-2.688,-2.6345,-2.6135,-2.565,-2.5191,-2.5191,-2.5203,-2.5206,-2.5187,-2.5209,-2.5233,-2.5331,-2.535,-2.5359,-2.5359,-2.5393,-2.5414,-2.5467,-2.5526,-2.5585,-2.5598,-2.5645,-2.5681,-2.5707,-2.5707,-2.5707,-2.5707,-2.4106,-2.3091,-2.3091,-2.153,-2.0593,-2.0593,-2.0378,-1.9539,-1.8037,-1.6669,-1.5576,0.0,0.0,0.0,0.0,0.0,0.0,0.0,0.0,0.0,0.0,0.0,0.0,0.0,0.0,0.0,0.0,0.0,0.0,0.0,0.0,0.0,0.0,-2.3634,-2.5208,-2.5317,-2.645,-2.732,-2.7437,-2.783,-2.8331,-2.8861,-2.9677,-3.036,-3.084,-3.1436,-3.1782,-3.1782,-3.1649,-3.1579,-3.1579,-3.1753,-3.1627,-3.1099,-3.1602,-3.1759,-3.1556,-3.1393,-3.1581,-3.2053,-3.1755,-3.1677,-3.1723,-3.1849,-3.1912,-3.1856,-3.1517,-3.1203,-3.0829,0.0,0.0,0.0,0.0,-2.9553,-2.93,-2.9375,-2.9079,-2.8712,-2.872,-2.8752,-2.8752,-2.8752,-2.8752,-2.8676,-2.8313,-2.7854,-2.7377,-2.7033,-2.6593,-2.6242,-2.6254,-2.5979,-2.5746,-2.5782,-2.5514,-2.5312,-2.543,-2.5444,0.0,-2.5486,-2.5473,-2.5511,-2.5532,-2.5601,-2.5645,-2.5645,-2.5679,-2.5707,-2.5707,-2.5707,-2.5707,-2.5707,-2.4438,0.0,0.0,0.0,-2.0827,-2.0085,-2.0066,0.0,0.0,0.0,0.0,0.0,0.0,0.0,0.0,-1.5614,-1.5729,0.0,0.0,0.0,0.0,0.0,0.0,0.0,0.0,0.0,0.0,0.0,0.0,0.0,0.0,0.0,0.0,-2.6358,-2.8426,-2.867,-2.8511,-2.8373,-2.8383,-2.9547,-3.0485,-3.0724,-3.1448,-3.1931,-3.1931,-3.2005,-3.2061,-3.2061,-3.2061,0.0,0.0,0.0,-3.2877,-3.2128,-3.2985,-3.3276,-3.3054,-3.2555,-3.2655,-3.3231,-3.262,-3.2304,-3.2195,-3.2195,-3.2195,-3.2216,-3.2192,-3.1788,-3.1089,-3.0201,-2.9842,-2.9859,-3.0038,-3.0117,-3.0117,-3.019,0.0,0.0,-3.0204,-3.0204,-3.0204,-3.0204,-3.0204,-3.0032,-2.9254,-2.8968,-2.8739,-2.8026,-2.7759,-2.7695,-2.7719,-2.7175,-2.6645,-2.662,-2.6056,-2.5546,-2.5517,-2.551,-2.5532,-2.5601,-2.5605,-2.5601,-2.5605,-2.5654,-2.5707,-2.5707,-2.5707,-2.5707,-2.5707,-2.5707,0.0,-2.5707,-2.4905,-2.4065,-2.3306,-2.2486,-2.1333,-1.9791,-1.9732,-1.9324,-1.8467,-1.8525,-1.8914,-1.9596,-2.0456,-2.0886,-2.0808,-1.7705,-1.745,0.0,0.0,0.0,0.0,0.0,0.0,0.0,0.0,0.0,0.0,0.0,0.0,0.0,0.0,0.0,-2.6674,-2.8313,-2.9734,-3.1099,-3.1243,-3.094,-3.0206,-3.0943,-3.1496,-3.1559,-3.2284,-3.2767,-3.2767,-3.3361,-3.3733,-3.3733,-3.3733,-3.3757,-3.3804,-3.3976,-3.3924,-3.3586,-3.3881,-3.3864,-3.3574,-3.3598,0.0,-3.4069,-3.3948,-3.3941,-3.407,-3.407,-3.4153,-3.4199,-3.3484,-3.2864,-3.2131,-3.063,-3.0041,-3.0038,-3.0161,-3.019,-3.019,-3.0204,-3.0204,-3.0204,-3.0204,-3.0204,-3.0204,-3.0204,-3.0204,0.0,-2.9994,-2.944,-2.8886,-2.8759,-2.8218,-2.7731,-2.7845,-2.773,-2.7468,-2.6888,-2.6644,-2.6345,-2.5697,-2.5589,-2.5601,-2.5676,-2.5642,-2.5613,-2.5679,-2.5685,-2.5707,-2.5707,-2.5707,-2.5707,-2.5707,-2.5707,-2.5707,-2.5707,-2.4905,-2.4339,-2.4163,-2.3345,-2.272,-2.2389,-2.2369,-2.1979,-2.1159,-2.1784,-2.1881,-2.1391,-2.2213,-2.2623,-2.2603,-2.192,-2.153,0.0,0.0,0.0,0.0,0.0,0.0,0.0,0.0,0.0,0.0,0.0,-2.2205,-2.3969,0.0,-2.6896,-2.9156,-3.0223,-3.1085,-3.1883,-3.235,-3.2251,-3.1303,-3.1894,-3.2395,-3.2395,-3.312,-3.3603,-3.3603,-3.3956,-3.4197,-3.4197,-3.4221,-3.4269,-3.4293,-3.4381,-3.434,-3.4245,-3.434,-3.4316,-3.416,-3.425,-3.434,-3.445,-3.445,-3.4539,-3.4687,-3.4687,-3.4749,-3.4774,-3.398,-3.3519,-3.316,-3.1901,-3.1157,-3.081,-3.0801,-3.0548,-3.0204,-3.0204,-3.0204,-3.0204,-3.0204,-3.0204,-3.0204,-3.0204,-3.0204,-3.0204,-3.0204,-2.9898,-2.9555,-2.9601,-2.9289,-2.8976,-2.9128,-2.883,-2.8468,-2.8164,-2.7439,-2.6738,-2.6367,-2.5941,-2.5654,-2.5685,-2.5676,-2.5654,-2.5685,-2.5707,-2.5707,-2.5707,-2.5707,-2.5707,-2.5707,-2.5707,-2.5707,-2.5707,-2.4905,-2.4397,-2.4397,-2.3579,-2.3091,-2.3091,-2.3091,-2.2916,-2.2506,-2.2896,-2.2896,-2.2506,-2.3345,-2.3755,-2.3755,-2.4204,-2.395,0.0,0.0,0.0,0.0,0.0,0.0,0.0,0.0,-2.2738,-2.3024,-2.4672,-2.6409,-2.7475,-2.8722,-2.9992,-3.1183,-3.1936,-3.2383,-3.2465,-3.3022,-3.3146,-3.2362,-3.2841,-3.3231,-3.3231,-3.3807,-3.4197,-3.4197,-3.4197,-3.4197,-3.4197,-3.4269,-3.4293,-3.4316,-3.445,-3.4517,-3.4517,-3.4561,-3.4602,-3.4602,-3.4602,-3.4602,-3.4602,-3.4623,-3.4687,-3.4788,-3.4829,-3.4888,-3.4889,-3.4295,-3.4132,-3.4159,-3.3471,-3.2688,-3.1962,-3.1732,-3.1236,-3.0682,-3.0682,-3.0586,-3.0452,-3.0452,-3.0338,-3.0204,-3.0204,-3.0204,-3.0204,-3.0204,-3.0199,-3.0199,-3.0232,-3.0234,-3.0292,-3.0423,-2.9949,-2.9482,-2.945,-2.8384,-2.7342,-2.7052,-2.6429,-2.5902,-2.5726,-2.5707,-2.5707,-2.5707,-2.5707,-2.5707,-2.5707,-2.5707,-2.5707,-2.5707,-2.5707,-2.5707,-2.5707,-2.5063,-2.4651,-2.4651,-2.3989,-2.3618,-2.3618,-2.3618,-2.3618,-2.3618,-2.3618,-2.3618,-2.3618,-2.4302,-2.4651,-2.467,-2.5375,-2.5318,-1.8721,-1.8689,-1.9232,-2.1477,-2.1662,-2.2078,0.0,0.0,-2.6636,-2.7491,-2.8483,-2.9439,-3.0302,-3.0602,-3.1239,-3.2854,-3.3212,-3.347,-3.4054,-3.4199,-3.4172,-3.3961,-3.4011,-3.4067,-3.4067,-3.4141,-3.4197,-3.4197,-3.4197,-3.4197,-3.4197,-3.4269,-3.4316,-3.4404,-3.4473,-3.4517,-3.4602,-3.4602,-3.4602,-3.4602,-3.4602,-3.4602,-3.4583,-3.4708,-3.4788,-3.4809,-3.4983,-3.5075,-3.5092,-3.5045,-3.504,-3.5057,-3.4961,-3.4426,-3.3624,-3.284,-3.2501,-3.2405,-3.2405,-3.1962,-3.135,-3.135,-3.0835,-3.0204,-3.0204,-3.0204,-3.0204,-3.0204,-3.0213,-3.0207,-3.0266,-3.039,-3.0482,-3.0568,-3.0549,-3.0355,-2.9718,-2.9433,-2.8847,-2.7308,-2.6919,-2.6607,-2.5824,-2.5707,-2.5707,-2.5707,-2.5707,-2.5707,-2.5707,-2.5707,-2.5707,-2.5707,-2.5707,-2.5707,-2.5707,-2.5609,-2.5551,-2.5551,-2.5453,-2.5414,-2.5414,-2.5414,-2.5414,-2.5414,-2.5414,-2.5414,-2.5414,-2.5512,-2.5551,-2.5551,-2.5648,-2.5655,-2.1197,-2.1835,0.0,0.0,-2.4912,-2.5857,-2.725,-2.8407,-2.9287,-2.9758,-3.0527,-3.1354,-3.2198,-3.2367,-3.2743,0.0,-3.4095,-3.4186,-3.4416,-3.4473,-3.424,-3.3618,-3.399,-3.4245,-3.4197,-3.4197,-3.4197,-3.4197,-3.4197,-3.4444,-3.4971,-3.508,-3.5357,-3.5914,-3.5979,-3.6025,-3.6047,-3.5578,-3.5353,-3.5353,-3.4827,-3.4645,-3.4727,-3.4768,-3.4868,-3.4983,-3.5091,-3.516,-3.516,-3.5193,-3.5209,-3.5209,-3.5209,-3.4999,-3.4598,-3.3757,-3.3146,-3.2691,-3.2691,-3.2481,-3.221,-3.221,-3.1661,-3.1008,-3.1008,-3.0682,-3.0321,-3.0356,-3.0367,-3.0389,-3.0404,-3.0482,-3.0571,-3.0639,-3.0686,-3.0622,-3.0367,-2.9923,-2.9379,-2.8656,-2.77,-2.688,-2.6527,-2.6039,-2.5707,-2.5707,-2.5707,-2.5707,-2.5707,-2.5707,-2.5707,-2.5707,-2.5707,-2.5707,-2.5707,-2.5707,-2.5707,-2.5707,-2.5707,-2.5707,-2.5707,-2.5707,-2.5707,-2.5707,-2.5707,-2.5707,-2.5707,-2.5707,-2.5707,-2.5707,-2.5707,-2.5694,-2.3171,0.0,0.0,-2.6282,-2.7714,-2.8949,-2.9172,-3.0368,-3.1458,-3.1578,-3.2236,-3.2987,-3.3607,-3.3738,-3.3926,-3.4508,-3.4602,-3.458,-3.4517,-3.4495,-3.4248,-3.3538,-3.3962,-3.4316,-3.4269,-3.4221,-3.4197,-3.4221,-3.4444,-3.4902,-3.5584,-3.5899,-3.6339,-3.6991,-3.7057,-3.7099,-3.7099,-3.6517,-3.6235,-3.6216,-3.5578,-3.5362,-3.5488,-3.5283,-3.5192,-3.5127,-3.5176,-3.5209,-3.5209,-3.5209,-3.5209,-3.5209,-3.5209,-3.5209,-3.5133,-3.4541,-3.3929,-3.3379,-3.3379,-3.3242,-3.307,-3.307,-3.2551,-3.1917,-3.1661,-3.1226,-3.0752,-3.0549,-3.0509,-3.0537,-3.0532,-3.0579,-3.0639,-3.0686,-3.0711,-3.0735,-3.0796,-3.0333,-2.9865,-2.963,-2.8381,-2.729,-2.7036,-2.6273,-2.5707,-2.5707,-2.5707,-2.5707,-2.5707,-2.5707,-2.5707,-2.5707,-2.5707,-2.5707,-2.5707,-2.5707,-2.5707,-2.5707,-2.5707,-2.5707,-2.5707,-2.5707,-2.5707,-2.5707,-2.5707,-2.5707,-2.5707,-2.5707,-2.5707,-2.5707,-2.5691,-2.5699,0.0,0.0,-2.7113,-2.8685,-2.985,-3.0833,-3.1613,-3.258,-3.3304,-3.3325,-3.3963,-3.4526,-3.4545,-3.4564,-3.4564,-3.4602,-3.4602,-3.458,-3.4517,-3.4495,-3.4473,-3.4367,-3.4386,-3.4404,-3.4386,-3.4269,-3.4221,-3.4293,-3.5075,-3.5584,-3.5693,-3.6494,-3.6972,-3.7009,-3.7057,-3.7099,-3.7099,-3.7061,-3.7042,-3.7042,-3.7024,-3.7073,-3.7187,-3.6558,-3.587,-3.5209,-3.5209,-3.5209,-3.5209,-3.5209,-3.5209,-3.5209,-3.5209,-3.5209,-3.5209,-3.5171,-3.5152,-3.5133,-3.5133,-3.4617,-3.3949,-3.3949,-3.3465,-3.2692,-3.1857,-3.1678,-3.1584,-3.0737,-3.0548,-3.0595,-3.0603,-3.0652,-3.0706,-3.0706,-3.0758,-3.0799,-3.0801,-3.0782,-3.0528,-2.9747,-2.8869,-2.7991,-2.7153,-2.6273,-2.5707,-2.5707,-2.5707,-2.5707,-2.5707,-2.5707,-2.5707,-2.5707,-2.5707,-2.5707,-2.5707,-2.5707,-2.5707,-2.5707,-2.5707,-2.5707,-2.5707,-2.5707,-2.5707,-2.5707,-2.5707,-2.5707,-2.5707,-2.5707,-2.5707,-2.5707,-2.5699,-2.5703,0.0,0.0,-2.9661,-3.0203,-3.1422,-3.2568,-3.2828,-3.3564,-3.4038,-3.3513,-3.3625,-3.3625,-3.3043,-3.2931,-3.3137,-3.3719,-3.3794,-3.3982,-3.4486,-3.458,-3.4333,-3.3746,-3.4136,-3.4226,-3.3661,-3.4064,-3.434,-3.4363,-3.5165,-3.5917,-3.6531,-3.736,-3.8078,-3.8708,-3.8751,-3.8775,-3.8775,-3.8188,-3.7906,-3.7887,-3.6955,-3.6553,-3.6615,-3.5909,-3.5425,-3.5209,-3.5209,-3.5209,-3.5209,-3.5209,-3.5209,-3.5209,-3.5209,-3.5209,-3.5209,-3.5209,-3.5209,-3.5209,-3.5209,-3.5018,-3.4808,-3.4808,-3.4361,-3.3674,-3.2778,-3.2268,-3.1825,-3.0939,-3.0716,-3.0721,-3.0739,-3.0755,-3.0768,-3.0768,-3.0774,-3.0801,-3.0801,-3.0801,-3.0723,-3.045,-2.9728,-2.8889,-2.801,-2.7132,-2.6371,-2.5785,-2.5707,-2.5707,-2.5707,-2.5707,-2.5707,-2.5707,-2.5707,-2.5707,-2.5707,-2.5707,-2.5707,-2.5707,-2.5707,-2.5707,-2.5707,-2.5707,-2.5707,-2.5707,-2.5707,-2.5707,-2.5707,-2.5707,-2.5693,-2.5699,-2.5696,-2.5702,-2.7937,-2.9683,-3.141,-3.1729,-3.2818,-3.3832,-3.3832,-3.4001,-3.3944,-3.3118,-3.2724,-3.2255,-3.1391,-3.1241,-3.1616,-3.2762,-3.2949,-3.3325,-3.4433,-3.4602,-3.4508,-3.4258,-3.4689,-3.4892,-3.4626,0.0,0.0,-3.4936,-3.5965,-3.6849,-3.7446,-3.8252,-3.8989,-3.9583,-3.9602,-3.9602,-3.9602,-3.9032,-3.8751,-3.8751,-3.7907,-3.7221,-3.6692,-3.6268,-3.5763,-3.5209,-3.5209,-3.5209,-3.5209,-3.5209,-3.5209,-3.5209,-3.5209,-3.5209,-3.5209,-3.5209,-3.5209,-3.5209,-3.5209,-3.5209,-3.5209,-3.5226,-3.5032,-3.4621,-3.3751,-3.3055,-3.2381,-3.1507,-3.1042,-3.081,-3.0799,-3.0801,-3.0801,-3.0801,-3.0801,-3.0801,-3.0801,-3.0801,-3.0801,-3.0801,-3.0157,-2.9416,-2.8869,-2.7776,-2.6802,-2.6253,-2.5902,-2.5707,-2.5707,-2.5707,-2.5707,-2.5707,-2.5707,-2.5707,-2.5707,-2.5707,-2.5707,-2.5707,-2.5707,-2.5707,-2.5707,-2.5707,-2.5707,-2.5707,-2.5707,-2.5707,-2.5707,-2.5707,-2.5694,-2.5702,-2.5701,-2.5703,-2.9382,-3.0997,-3.2424,-3.325,-3.4038,-3.4583,-3.4545,-3.3907,-3.3081,-3.2161,-3.1335,-3.0546,-2.972,0.0,-3.0152,-3.1785,-3.2067,-3.2705,-3.4414,-3.4658,-3.4977,0.0,0.0,0.0,0.0,0.0,0.0,-3.5974,-3.7323,-3.8227,-3.83,-3.9126,-3.9602,-3.9602,-3.9602,-3.9602,-3.9602,-3.9602,-3.962,-3.9626,-3.9762,-3.902,-3.7485,-3.7622,-3.6814,-3.5267,-3.5267,-3.5248,-3.5209,-3.5209,-3.5209,-3.5209,-3.5209,-3.5209,-3.5209,-3.5209,-3.5209,-3.5209,-3.5209,-3.5209,-3.5209,-3.5277,-3.543,-3.5444,-3.4651,-3.3952,-3.3275,-3.2358,-3.1504,-3.086,-3.0801,-3.0801,-3.0801,-3.0801,-3.0801,-3.0801,-3.0801,-3.0801,-3.0801,-3.0801,-3.0157,-2.9593,-2.9593,-2.8188,-2.7075,-2.7075,-2.6312,-2.5746,-2.5707,-2.5707,-2.5707,-2.5707,-2.5707,-2.5707,-2.5707,-2.5707,-2.5707,-2.5707,-2.5707,-2.5707,-2.5707,-2.5707,-2.5707,-2.5707,-2.5707,-2.5707,-2.5709,-2.5709,-2.5696,-2.5703,-2.5702,-2.5694,-3.1203,-3.2705,-3.402,-3.4245,-3.4451,-3.4433,-3.3851,-3.3043,-3.2029,-3.0603,-2.9626,-2.8782,-2.7993,-2.8331,0.0,-3.0941,-3.171,0.0,-3.524,-3.5578,0.0,-3.6686,0.0,-3.6855,-3.708,-3.7643,0.0,-3.7676,-3.8051,-3.8276,-3.83,-3.9126,-3.9602,-3.9602,-3.9602,-3.9602,-3.9602,-3.9602,-3.9674,-3.9823,-3.9261,-3.8857,-3.8575,-3.7981,-3.7139,-3.6184,-3.6184,-3.5802,-3.5209,-3.5209,-3.5209,-3.5209,-3.5209,-3.5209,-3.5209,-3.5209,-3.5209,-3.5226,-3.5304,-3.5324,-3.5277,-3.5293,-3.5397,-3.5383,-3.4623,-3.434,-3.3994,-3.2511,-3.1934,-3.1621,-3.0977,-3.0801,-3.0801,-3.0801,-3.0801,-3.0801,-3.0801,-3.0801,-3.0801,-3.0801,-3.0157,-2.9593,-2.9593,-2.8693,-2.7971,-2.7971,-2.7229,-2.6429,-2.5785,-2.5707,-2.5707,-2.5707,-2.5707,-2.5707,-2.5707,-2.5707,-2.5707,-2.5707,-2.5707,-2.5707,-2.5707,-2.5707,-2.5707,-2.5707,-2.5707,-2.5693,-2.57,-2.57,-2.5703,-2.5691,-2.5698,-2.5709,-3.2443,-3.3607,-3.4602,-3.4602,-3.432,-3.3851,-3.3025,-3.1898,-3.0471,-2.8481,-2.7693,0.0,-2.5327,-2.6303,0.0,0.0,0.0,0.0,-3.4977,-3.5653,-3.6329,0.0,-3.7624,0.0,-3.815,-3.8601,-3.8863,-3.8863,-3.8863,-3.8863,-3.8863,-3.9314,-3.9602,-3.9602,-3.9602,-3.9602,-3.9602,-3.9631,-3.9708,-3.9804,-3.9477,-3.9163,-3.8899,-3.8477,-3.7827,-3.7005,-3.6661,-3.6222,-3.5744,-3.5362,-3.5209,-3.5209,-3.5209,-3.5209,-3.5209,-3.5209,-3.5209,-3.5226,-3.5324,-3.5364,-3.5388,-3.5379,-3.5507,-3.5562,-3.5105,-3.4815,-3.4445,-3.3509,-3.2968,-3.2558,-3.207,-3.166,-3.1368,-3.1368,-3.1075,-3.0801,-3.0801,-3.0801,-3.0801,-3.0801,-3.0431,-3.0138,-3.0138,-2.9435,-2.8869,-2.8869,-2.7795,-2.6822,-2.6332,-2.5941,-2.5707,-2.5707,-2.5707,-2.5707,-2.5707,-2.5707,-2.5707,-2.5707,-2.5707,-2.5707,-2.5707,-2.5707,-2.5707,-2.5707,-2.5707,-2.5694,-2.5702,-2.5702,-2.5702,-2.5701,-2.5709,-2.5698,-3.3325,-3.4076,-3.4602,-3.4602,-3.3907,-3.3006,-3.2142,-3.0509,-2.8556,-2.6301,0.0,-2.4892,-2.283,-2.4294,-2.6207,-2.7355,0.0,-3.1823,-3.4414,-3.5522,-3.661,-3.8131,-3.8394,-3.877,-3.9545,-3.9602,-3.9602,-3.9602,-3.9602,-3.9602,-3.9602,-3.9602,-3.9602,-3.9602,-3.9602,-3.9602,-3.9602,-3.9665,-3.9717,-3.9717,-3.9975,-3.9717,-3.9013,-3.9127,-3.8629,-3.7655,-3.6967,-3.6547,-3.6279,-3.5515,-3.5209,-3.5209,-3.5209,-3.5209,-3.5209,-3.5209,-3.5209,-3.5209,-3.5293,-3.5402,-3.5507,-3.5489,-3.5631,-3.5768,-3.5745,-3.5318,-3.4836,-3.4725,-3.4159,-3.3515,-3.33,-3.2675,-3.207,-3.1953,-3.1348,-3.0801,-3.0801,-3.0801,-3.0801,-3.0801,-3.0801,-3.0801,-3.0801,-3.0216,-2.9767,-2.9767,-2.8383,-2.731,-2.7192,-2.6312,-2.5707,-2.5707,-2.5707,-2.5707,-2.5707,-2.5707,-2.5707,-2.5707,-2.5707,-2.5707,-2.5707,-2.5707,-2.5707,-2.5707,-2.5709,-2.5697,-2.5703,-2.5703,-2.57,-2.5696,-2.5696,-2.5704,-3.417,-3.4489,-3.4602,-3.4602,-3.3456,-3.2105,-3.1297,-2.8781,0.0,0.0,-2.3863,-2.2999,-2.3257,-2.4182,-2.5871,-2.8781,0.0,0.0,0.0,0.0,-3.723,0.0,-3.8939,-3.9427,-3.9602,-3.9602,0.0,-3.9602,-3.9602,-3.9602,-3.9602,-3.9602,-3.9602,-3.9602,-3.9602,-3.9602,-3.9602,-3.9665,-3.9758,-3.9867,-4.0036,-4.008,-4.0043,-4.0062,-3.9221,-3.7693,-3.754,-3.6719,-3.542,-3.5267,-3.5209,-3.5209,-3.5209,-3.5209,-3.5209,-3.5209,-3.5209,-3.5226,-3.5335,-3.547,-3.5566,-3.5523,-3.5601,-3.5745,-3.584,-3.5772,-3.5544,-3.4895,-3.4588,-3.4139,-3.2695,-3.2207,-3.1914,-3.1192,-3.0919,-3.0801,-3.0801,-3.0801,-3.0801,-3.0801,-3.0801,-3.0801,-3.0801,-3.0684,-3.0587,-3.0587,-2.9767,-2.8889,-2.8166,-2.6683,-2.5707,-2.5707,-2.5707,-2.5707,-2.5707,-2.5707,-2.5707,-2.5707,-2.5707,-2.5707,-2.5707,-2.5707,-2.5707,-2.5707,-2.5698,-2.5703,-2.5702,-2.5694,-2.5696,-2.5707,-2.5707,-2.5703,-3.4376,-3.4602,-3.4489,-3.4076,-3.2724,-3.1053,-2.9363,0.0,0.0,0.0,-2.253,-2.2154,-2.1666,0.0,0.0,0.0,0.0,0.0,0.0,0.0,0.0,0.0,0.0,-3.9602,0.0,-3.9602,-3.9602,-3.9602,-3.9602,-3.9602,-3.9602,-3.9602,-3.9602,-3.9602,-3.9602,-3.9626,-3.9661,-3.9758,-3.987,-4.0015,-4.0137,-4.0234,-4.031,-4.031,-3.9603,-3.8343,-3.7903,-3.7005,-3.584,-3.54,-3.5209,-3.5209,-3.5209,-3.5209,-3.5209,-3.5209,-3.5209,-3.5226,-3.536,-3.5489,-3.5599,-3.5631,-3.5725,-3.5813,-3.5883,-3.5929,-3.5873,-3.548,-3.5389,-3.5076,-3.3788,-3.3124,-3.2558,-3.168,-3.1133,-3.0801,-3.0801,-3.0801,-3.0801,-3.0801,-3.0801,-3.0801,-3.0801,-3.0801,-3.0801,-3.0801,-3.0118,-2.9455,-2.9025,-2.745,-2.6202,-2.5746,-2.5707,-2.5707,-2.5707,-2.5707,-2.5707,-2.5707,-2.5707,-2.5691,-2.5697,-2.5697,-2.5699,-2.5702,-2.5703,-2.5701,-2.5691,-2.5703,-2.5707,-2.5699,-2.5699,-2.5699,-3.417,-3.447,-3.4414,-3.3607,-3.2011,-3.0039,-2.773,-2.5646,0.0,0.0,-2.1403,-2.1422,-2.0277,0.0,0.0,0.0,0.0,0.0,0.0,0.0,0.0,0.0,0.0,0.0,-3.9602,-3.9602,0.0,-3.9602,-3.9602,-3.9602,-3.9602,-3.9602,-3.9602,-3.9602,-3.9602,-3.9631,-3.9693,-3.9826,-3.9973,-4.0117,-4.0234,-4.031,-4.031,-4.031,-3.9718,-3.8686,-3.7999,-3.7139,-3.6184,-3.5477,-3.5209,-3.5209,-3.5209,-3.5209,-3.5209,-3.5209,-3.5226,-3.5273,-3.5355,-3.5495,-3.564,-3.5764,-3.5844,-3.5903,-3.5909,-3.5951,-3.5991,-3.5991,-3.5876,-3.5525,-3.4647,-3.3768,-3.291,-3.2031,-3.1309,-3.0801,-3.0801,-3.0801,-3.0801,-3.0801,-3.0801,-3.0801,-3.0801,-3.0801,-3.0801,-3.0801,-3.0255,-2.9786,-2.9611,-2.839,-2.7142,-2.6099,-2.5808,-2.5691,-2.5707,-2.5707,-2.5707,-2.5707,-2.5691,-2.5697,-2.5702,-2.5703,-2.5703,-2.57,-2.5698,-2.5693,-2.5698,-2.5696,-2.5701,-2.5699,-2.5699,-2.5699,-3.3494,-3.4038,-3.4414,-3.3607,-3.1598,-2.9345,-2.7599,0.0,0.0,-2.1197,-2.0483,-2.022,-2.0783,-2.114,0.0,0.0,0.0,0.0,0.0,0.0,0.0,0.0,0.0,0.0,-3.9602,-3.9602,-3.9602,-3.9602,-3.9602,-3.9602,-3.9602,-3.9602,-3.9602,-3.9602,-3.9602,-3.9631,-3.9693,-3.9826,-3.9973,-4.0117,-4.0234,-4.031,-4.031,-4.031,-3.9393,-3.7827,-3.7731,-3.6795,-3.5305,-3.5229,-3.5209,-3.5209,-3.5209,-3.5209,-3.5209,-3.5209,-3.5273,-3.5379,-3.5412,-3.5526,-3.5706,-3.5784,-3.5852,-3.5912,-3.5965,-3.601,-3.5991,-3.5991,-3.5428,-3.4627,-3.3749,-3.2871,-3.1992,-3.1133,-3.086,-3.0801,-3.0801,-3.0801,-3.0801,-3.0801,-3.0801,-3.0801,-3.0801,-3.0801,-3.0801,-3.0801,-3.0743,-3.0431,-2.9689,-2.9457,-2.8715,-2.7056,-2.6167,-2.5699,-2.5709,-2.5707,-2.5707,-2.5707,-2.5698,-2.5702,-2.5702,-2.5703,-2.5701,-2.57,-2.5709,-2.5701,-2.5698,-2.5697,-2.5703,-2.5699,-2.5699,-2.5699,-3.2987,-3.3625,-3.3663,-3.2837,-3.1147,-2.8988,-2.6303,0.0,-2.1929,-2.0558,-2.0032,-1.9901,-2.022,-2.0671,-2.161,0.0,-2.4178,-2.5587,-2.8706,0.0,0.0,0.0,-3.7061,0.0,0.0,0.0,-3.9602,-3.9602,-3.9602,-3.9602,-3.9602,-3.9602,-3.9602,-3.9602,-3.9656,-3.9712,-3.9826,-3.9954,-4.0096,-4.0215,-4.0272,-4.031,-4.031,-4.031,-3.9355,-3.7693,-3.7693,-3.6757,-3.5209,-3.5209,-3.5209,-3.5209,-3.5209,-3.5209,-3.5209,-3.5289,-3.535,-3.5427,-3.554,-3.5629,-3.5715,-3.582,-3.5875,-3.5912,-3.5988,-3.5991,-3.5991,-3.5991,-3.5369,-3.4491,-3.3632,-3.2363,-3.1231,-3.088,-3.0801,-3.0801,-3.0801,-3.0801,-3.0801,-3.0801,-3.0801,-3.0801,-3.0801,-3.0801,-3.0801,-3.0801,-3.0801,-3.0684,-3.0353,-2.9892,-2.9311,-2.8589,-2.7283,-2.6267,-2.5738,-2.5702,-2.5703,-2.5703,-2.5703,-2.5702,-2.5697,-2.5693,-2.5705,-2.5693,-2.5704,-2.5697,-2.5697,-2.5707,-2.5699,-2.5699,-2.5699,-2.5699,-3.171,-3.248,-3.2461,-3.1598,-3.034,-2.8444,0.0,-2.3281,-2.1816,-2.0164,-1.9807,-1.9807,-1.9807,-2.0258,-2.1009,0.0,-2.2774,-2.4182,-2.7148,-2.8781,0.0,0.0,0.0,-3.7005,-3.8719,-3.932,-3.9602,-3.9602,-3.9602,-3.9602,-3.9602,-3.9626,-3.9631,-3.9631,-3.9689,-3.9762,-3.9973,-4.0057,-4.0157,-4.031,-4.031,-4.031,-4.0291,-4.0043,-3.9107,-3.7693,-3.7445,-3.6528,-3.5209,-3.5209,-3.5209,-3.5209,-3.5209,-3.5226,-3.5273,-3.5369,-3.5455,-3.5502,-3.5646,-3.5727,-3.5764,-3.5872,-3.5914,-3.5939,-3.5988,-3.5991,-3.5991,-3.5991,-3.5193,-3.4061,-3.2929,-3.1719,-3.0801,-3.0801,-3.0801,-3.0801,-3.0801,-3.0801,-3.0801,-3.0801,-3.0801,-3.0801,-3.0801,-3.0801,-3.0801,-3.0801,-3.0801,-3.0801,-3.0808,-3.0307,-2.9842,-2.9531,-2.8203,-2.7011,-2.6152,-2.5858,-2.57,-2.57,-2.5698,-2.5693,-2.5701,-2.5693,-2.5701,-2.5699,-2.5699,-2.5699,-2.5699,-2.5699,-2.5699,-2.5699,-2.5699,-2.5699,-2.927,-3.0321,-3.0734,-2.9927,-2.9063,-2.7544,0.0,-2.2867,-2.1816,-2.0164,-1.9807,-1.9807,-1.9807,-1.9807,-2.037,-2.2023,-2.2304,-2.3731,-2.7806,-2.9157,0.0,0.0,0.0,-3.5277,-3.6948,-3.8643,-3.9602,-3.9602,-3.9602,-3.9602,-3.9602,-3.9642,-3.9693,-3.9693,-3.9693,-3.9826,-4.0096,-4.0117,-4.0157,-4.031,-4.031,-4.031,-4.0272,-3.9412,-3.8534,-3.7655,-3.6871,-3.6012,-3.5209,-3.5209,-3.5209,-3.5209,-3.5209,-3.5289,-3.5398,-3.5398,-3.5528,-3.5707,-3.5707,-3.5779,-3.5908,-3.5908,-3.5942,-3.5991,-3.5991,-3.5991,-3.5991,-3.5991,-3.4742,-3.3007,-3.1289,-3.0801,-3.0801,-3.0801,-3.0801,-3.0801,-3.0801,-3.0801,-3.0801,-3.0801,-3.0801,-3.0801,-3.0801,-3.0801,-3.0801,-3.0801,-3.0801,-3.0806,-3.0798,-3.0799,-3.0468,-2.9589,-2.8704,-2.7854,-2.7046,-2.6207,-2.57,-2.57,-2.5709,-2.5698,-2.5698,-2.5694,-2.5699,-2.5699,-2.5699,-2.5699,-2.5699,-2.5699,-2.5699,-2.5699,-2.5699,-2.5699,-2.6883,-2.7749,-2.8181,-2.7372,-2.696,-2.604,-2.3299,-2.2473,-2.1816,-2.0164,-1.9807,-1.9807,-1.9807,-1.9807,-2.0539,-2.2755,0.0,0.0,0.0,0.0,0.0,-3.3118,-3.6122,-3.8225,0.0,-3.9301,-3.9602,-3.9602,-3.9602,-3.9602,-3.9602,-3.9665,-3.9693,-3.9693,-3.987,-3.9996,-4.0117,-4.0176,-4.0253,-4.031,-4.031,-4.031,-4.0272,-3.9412,-3.8514,-3.7655,-3.6852,-3.6012,-3.5209,-3.5209,-3.5209,-3.5209,-3.5304,-3.535,-3.5427,-3.5553,-3.5646,-3.5698,-3.581,-3.5859,-3.5894,-3.589,-3.5955,-3.5991,-3.5991,-3.5991,-3.5757,-3.4566,-3.3827,-3.3007,-3.125,-3.0801,-3.0801,-3.0801,-3.0801,-3.0801,-3.0801,-3.0801,-3.0801,-3.0801,-3.0801,-3.0801,-3.0801,-3.0801,-3.0801,-3.0801,-3.0801,-3.0808,-3.0799,-3.08,-3.0684,-3.0421,-2.9608,-2.8515,-2.7125,-2.6193,-2.5707,-2.5707,-2.5697,-2.5694,-2.5694,-2.5703,-2.5699,-2.5699,-2.5699,-2.5699,-2.5699,-2.5699,-2.5699,-2.5699,-2.5699,-2.5699,0.0,-2.5437,-2.5684,-2.5192,-2.5061,-2.4497,-2.2304,-2.1816,-2.1422,-2.0089,-1.9807,-1.9807,-1.9807,-1.9807,-2.0521,-2.268,-2.3036,0.0,0.0,0.0,0.0,-3.3081,0.0,0.0,-3.8657,-3.9245,-3.9602,-3.9602,-3.9602,-3.9602,-3.9602,-3.9425,-3.9328,-3.9328,-3.9823,-3.9984,-3.97,-3.9776,-3.9642,-3.9317,-3.9317,-3.9317,-3.9298,-3.8438,-3.7769,-3.7196,-3.6375,-3.5706,0.0,-3.5209,-3.5209,-3.5226,-3.5335,-3.5407,-3.5457,-3.5635,-3.5728,-3.5747,-3.5857,-3.5905,-3.5894,-3.5899,-3.5958,-3.5991,-3.5991,-3.5779,-3.5213,-3.3807,-3.3163,-3.2578,-3.1172,-3.0801,-3.0801,-3.0801,-3.0801,-3.0801,-3.0801,-3.0801,-3.0801,-3.0801,-3.0801,-3.0801,-3.0801,-3.0801,-3.0801,-3.0801,-3.0806,-3.0795,-3.0801,-3.08,-3.0796,-3.0796,-2.9731,-2.8583,-2.7549,-2.6643,-2.603,-2.5718,-2.5699,-2.5699,-2.5699,-2.5699,-2.5699,-2.5699,-2.5699,-2.5699,-2.5699,-2.5699,-2.5699,-2.5699,-2.5699,-2.5855,0.0,-2.3107,-2.3126,-2.307,-2.3164,-2.2825,-2.1178,-2.0896,0.0,-1.9976,-1.9807,-1.9826,-1.9882,-1.9901,-2.0446,-2.2192,0.0,0.0,0.0,-2.8181,0.0,0.0,-3.5803,-3.7268,-3.7268,-3.87,-3.9602,-3.9602,-3.9602,-3.9583,-3.9526,-3.9003,-3.8658,-3.8601,-3.9466,-3.9605,-3.8916,-3.8916,-3.8495,-3.7693,-3.7693,-3.7693,-3.7674,-3.6871,-3.6491,-3.6451,-3.5592,-3.5209,-3.5209,-3.5209,-3.5209,-3.5226,-3.535,-3.5457,-3.5538,-3.5667,-3.5737,-3.5799,-3.5872,-3.5905,-3.5894,-3.5903,-3.5942,-3.5991,-3.5932,-3.5349,-3.451,-3.3651,-3.2773,-3.1895,-3.1036,-3.0801,-3.0801,-3.0801,-3.0801,-3.0801,-3.0801,-3.0801,-3.0801,-3.0801,-3.0801,-3.0801,-3.0801,-3.0801,-3.0801,-3.0801,-3.0793,-3.08,-3.0798,-3.0806,-3.0794,-3.0791,-2.9343,-2.8365,-2.8291,-2.7371,-2.6498,-2.5757,-2.5699,-2.5699,-2.5699,-2.5699,-2.5699,-2.5699,-2.5699,-2.5699,-2.5699,-2.5699,-2.5699,-2.5699,-2.5757,-2.6186,-1.838,0.0,-1.9526,-1.8906,-1.9732,-2.0389,0.0,-2.007,0.0,0.0,0.0,-1.9995,-2.0596,-2.0708,-2.1459,-2.3769,0.0,0.0,-2.7825,0.0,0.0,-3.5972,-3.7868,-3.8995,-3.8995,-3.9376,-3.9602,-3.9602,-3.9602,-3.9295,-3.8638,-3.8682,-3.8395,-3.7732,-3.8061,-3.8191,-3.8018,-3.8018,-3.7903,-3.7693,-3.7693,-3.7693,-3.7674,-3.6871,-3.6491,-3.6451,-3.5592,-3.5209,-3.5209,-3.5209,-3.5258,-3.5364,-3.5438,-3.5538,-3.5667,-3.5747,-3.5782,-3.5807,-3.5879,-3.5903,-3.5919,-3.5958,-3.5988,-3.5876,-3.5213,-3.4861,-3.451,-3.3651,-3.2773,-3.1895,-3.1036,-3.0801,-3.0801,-3.0801,-3.0801,-3.0801,-3.0801,-3.0801,-3.0801,-3.0801,-3.0801,-3.0801,-3.0801,-3.0801,-3.0801,-3.0801,-3.0793,-3.08,-3.0798,-3.0795,-3.0804,-3.0802,-3.0423,-2.992,-2.9258,-2.7223,-2.5894,-2.5718,-2.5699,-2.5699,-2.5699,-2.5699,-2.5699,-2.5699,-2.5699,-2.5699,-2.5699,-2.5699,-2.5699,-2.5718,-2.6322,-2.6712,-1.6023,-1.7581,-1.9,-1.8556,-1.9413,-2.0239,-1.9751,0.0,0.0,0.0,0.0,0.0,-2.084,0.0,0.0,0.0,-2.5102,0.0,0.0,0.0,-3.5384,-3.6812,-3.8421,-3.9458,-3.9577,-3.9602,-3.9427,-3.9032,-3.8995,-3.8638,-3.7793,-3.7624,-3.7332,-3.686,-3.6651,-3.6738,-3.7158,-3.7158,-3.6948,-3.6547,-3.6547,-3.6547,-3.6547,-3.6107,-3.5897,-3.5878,-3.54,-3.5209,-3.5209,-3.5209,-3.5273,-3.5412,-3.5477,-3.5574,-3.5698,-3.5818,-3.585,-3.5857,-3.5889,-3.5914,-3.5947,-3.5988,-3.5991,-3.5837,-3.4959,-3.4413,-3.3925,-3.3046,-3.2187,-3.1387,-3.0919,-3.0801,-3.0801,-3.0801,-3.0801,-3.0801,-3.0801,-3.0801,-3.0801,-3.0801,-3.0801,-3.0801,-3.0801,-3.0801,-3.0801,-3.0801,-3.0798,-3.08,-3.0797,-3.0806,-3.0801,-3.0804,-3.0431,-3.0006,-2.9537,-2.7881,-2.6673,-2.6283,-2.6244,-2.6089,-2.5718,-2.5699,-2.5699,-2.5699,-2.5699,-2.5699,-2.5699,-2.5699,-2.5894,-2.6264,-2.6693,-2.7336,-1.5113,-1.7431,-1.9713,-1.9338,-2.0126,-2.0971,0.0,0.0,0.0,0.0,0.0,0.0,0.0,0.0,0.0,0.0,0.0,0.0,-3.0453,-3.3369,-3.5477,-3.6472,-3.7951,-3.8962,-3.9201,-3.9226,-3.8901,-3.8169,-3.8131,-3.7756,-3.6953,-3.6472,-3.6159,-3.6026,-3.5489,-3.5553,-3.6298,-3.6298,-3.5935,-3.5209,-3.5209,-3.5209,-3.5209,-3.5209,-3.5209,-3.5209,-3.5209,-3.5209,-3.5209,-3.5226,-3.5304,-3.5422,-3.5502,-3.5615,-3.5718,-3.585,-3.5905,-3.5892,-3.589,-3.5939,-3.5991,-3.5991,-3.5916,-3.5642,-3.4764,-3.3886,-3.3027,-3.2148,-3.1368,-3.0801,-3.0801,-3.0801,-3.0801,-3.0801,-3.0801,-3.0801,-3.0801,-3.0801,-3.0801,-3.0801,-3.0801,-3.0801,-3.0801,-3.0801,-3.0801,-3.0801,-3.08,-3.0798,-3.0797,-3.0791,-3.0793,-3.0804,-3.0146,-2.9698,-2.9693,-2.9026,-2.8232,-2.7355,-2.718,-2.6732,-2.5913,-2.5874,-2.5835,-2.5699,-2.5699,-2.5699,-2.5699,-2.5816,-2.6225,-2.6907,-2.718,-2.8095,-1.653,-1.8331,-1.93,-1.7198,-1.885,-2.0821,0.0,0.0,0.0,0.0,0.0,0.0,0.0,0.0,0.0,0.0,0.0,-2.9832,0.0,0.0,-3.4936,-3.5621,-3.6713,-3.7451,-3.7474,-3.7474,-3.7418,-3.7286,-3.7268,-3.6957,-3.6217,-3.6192,-3.5894,-3.5285,-3.5236,-3.5267,-3.54,-3.54,-3.5343,-3.5209,-3.5209,-3.5209,-3.5209,-3.5209,-3.5209,-3.5209,-3.5209,-3.5209,-3.5209,-3.532,-3.5416,-3.5502,-3.5615,-3.5718,-3.5791,-3.5864,-3.5905,-3.5892,-3.589,-3.5939,-3.5991,-3.5991,-3.5506,-3.4744,-3.3866,-3.2988,-3.2129,-3.1231,-3.0899,-3.0801,-3.0801,-3.0801,-3.0801,-3.0801,-3.0801,-3.0801,-3.0801,-3.0801,-3.0801,-3.0801,-3.0801,-3.0801,-3.0801,-3.0801,-3.0801,-3.0801,-3.0795,-3.0801,-3.0797,-3.0793,-3.0799,-3.0808,-3.0673,-3.0602,-3.0609,-3.0487,-3.002,-2.9162,-2.8407,-2.7608,-2.6751,-2.6712,-2.64,-2.5718,-2.5699,-2.5699,-2.5699,-2.6381,-2.679,-2.6946,-2.8407,-2.924,-1.5741,-1.7495,-1.8819,-1.7686,-1.9882,-2.2248,0.0,0.0,0.0,0.0,0.0,0.0,0.0,0.0,0.0,-2.7636,0.0,-3.1877,-3.2813,-3.3988,-3.4895,-3.5273,-3.6154,-3.6827,-3.7099,-3.7099,-3.6911,-3.6479,-3.6441,-3.613,-3.5392,-3.5437,-3.5382,-3.5111,-3.516,-3.5209,-3.5209,-3.5209,-3.5209,-3.5209,-3.5209,-3.5209,-3.5209,-3.5209,-3.5209,-3.5209,-3.5209,-3.5242,-3.5304,-3.5364,-3.547,-3.5615,-3.5678,-3.5756,-3.5857,-3.5897,-3.5924,-3.5958,-3.5955,-3.5965,-3.5991,-3.5991,-3.574,-3.5154,-3.3807,-3.3124,-3.2519,-3.1172,-3.0801,-3.0801,-3.0801,-3.0801,-3.0801,-3.0801,-3.0801,-3.0801,-3.0801,-3.0801,-3.0801,-3.0801,-3.0801,-3.0801,-3.0801,-3.0801,-3.0804,-3.0792,-3.08,-3.0799,-3.0808,-3.0796,-3.0798,-3.0804,-3.0798,-3.0802,-3.0804,-3.0799,-3.0429,-2.9552,-2.8675,-2.8017,-2.7628,-2.7608,-2.7433,-2.7063,-2.7043,-2.7043,-2.7043,-2.7413,-2.7842,-2.8329,-2.9124,-2.9747,-1.5271,-1.6881,-1.8546,-1.8976,0.0,0.0,0.0,0.0,0.0,0.0,0.0,0.0,0.0,0.0,0.0,-2.9777,-3.1888,-3.3152,-3.3075,-3.4034,-3.4806,-3.4921,-3.551,-3.608,-3.6475,-3.6498,-3.6254,-3.5634,-3.5597,-3.5381,-3.4848,-3.487,-3.4964,-3.5127,-3.5176,-3.5209,-3.5209,-3.5209,-3.5209,-3.5209,-3.5209,-3.5209,-3.5209,-3.5209,-3.5209,-3.5209,-3.5242,-3.5304,-3.5393,-3.5449,-3.5565,-3.5707,-3.5728,-3.581,-3.5898,-3.589,-3.5939,-3.5991,-3.5991,-3.5991,-3.5971,-3.5759,-3.5564,-3.5096,-3.3554,-3.2949,-3.2519,-3.1172,-3.0801,-3.0801,-3.0801,-3.0801,-3.0801,-3.0801,-3.0801,-3.0801,-3.0801,-3.0801,-3.0801,-3.0801,-3.0801,-3.0801,-3.0801,-3.0801,-3.0806,-3.0796,-3.0801,-3.0796,-3.0801,-3.0798,-3.0793,-3.0804,-3.0799,-3.0799,-3.0799,-3.0799,-3.0526,-2.9844,-2.9182,-2.8714,-2.8505,-2.8505,-2.8407,-2.8193,-2.8193,-2.8193,-2.8193,-2.8407,-2.8851,-2.9494,-2.9708,-3.0156,-1.6616,-1.7671,-1.8713,-2.0399,0.0,0.0,0.0,0.0,0.0,0.0,0.0,0.0,0.0,-2.8256,-2.9908,-3.1654,-3.2741,-3.3493,-3.3864,-3.4167,-3.429,-3.4116,-3.4303,-3.4549,-3.4749,-3.4771,-3.4752,-3.4695,-3.4677,-3.4764,-3.4889,-3.4908,-3.5001,-3.5193,-3.5209,-3.5209,-3.5209,-3.5209,-3.5209,-3.5209,-3.5209,-3.5209,-3.5209,-3.5209,-3.5209,-3.5209,-3.532,-3.5398,-3.5407,-3.5601,-3.5697,-3.5718,-3.5765,-3.5845,-3.5889,-3.5899,-3.5939,-3.5991,-3.5991,-3.5991,-3.5876,-3.5057,-3.4256,-3.3417,-3.248,-3.1621,-3.0958,-3.0841,-3.0801,-3.0801,-3.0801,-3.0801,-3.0801,-3.0801,-3.0801,-3.0801,-3.0801,-3.0801,-3.0801,-3.0801,-3.0801,-3.0801,-3.0801,-3.0801,-3.0801,-3.0801,-3.0795,-3.0801,-3.0797,-3.0804,-3.0801,-3.0804,-3.0799,-3.0799,-3.0799,-3.0799,-3.076,-3.0701,-3.0643,-3.0253,-2.9435,-2.9416,-2.9026,-2.8212,-2.8193,-2.8193,-2.8193,-2.9007,-2.9435,-2.9513,-3.0331,-3.074,-1.5428,-1.6946,-1.8652,-1.9823,0.0,0.0,0.0,0.0,0.0,0.0,0.0,0.0,0.0,0.0,-3.0227,-3.1842,-3.2713,-3.3444,-3.4086,-3.4148,-3.4124,-3.4173,-3.4245,-3.4363,-3.4561,-3.4602,-3.4602,-3.4602,-3.4666,-3.4769,-3.4889,-3.4983,-3.5073,-3.5209,-3.5209,-3.5209,-3.5209,-3.5209,-3.5209,-3.5209,-3.5209,-3.5209,-3.5209,-3.5209,-3.5242,-3.532,-3.5383,-3.5463,-3.5589,-3.5657,-3.5718,-3.5765,-3.5845,-3.5878,-3.5919,-3.5958,-3.5988,-3.5913,-3.5389,-3.5193,-3.5057,-3.4178,-3.3671,-3.3241,-3.2363,-3.1875,-3.1504,-3.0958,-3.0801,-3.0801,-3.0801,-3.0801,-3.0801,-3.0801,-3.0801,-3.0801,-3.0801,-3.0801,-3.0801,-3.0801,-3.0801,-3.0801,-3.0801,-3.0801,-3.0808,-3.08,-3.0801,-3.0796,-3.0807,-3.079,-3.0798,-3.0804,-3.0799,-3.0799,-3.0799,-3.0799,-3.0799,-3.0799,-3.0799,-3.0643,-3.0312,-3.0312,-3.0156,-2.9825,-2.9825,-2.9825,-2.9825,-3.0156,-3.002,-2.9513,-3.039,-3.0507,-1.4604,-1.6374,-1.8471,0.0,0.0,0.0,0.0,0.0,0.0,0.0,0.0,0.0,0.0,0.0,0.0,0.0,-3.2919,-3.3747,-3.4242,-3.4173,-3.4148,-3.4269,-3.4293,-3.4404,-3.4645,-3.4666,-3.4666,-3.4666,-3.4769,-3.4849,-3.4908,-3.502,-3.5127,-3.5209,-3.5209,-3.5209,-3.5209,-3.5209,-3.5209,-3.5209,-3.4942,-3.4961,-3.5209,-3.5242,-3.5304,-3.5412,-3.5463,-3.5577,-3.5707,-3.5718,-3.5765,-3.5784,-3.5293,-3.5427,-3.583,-3.5363,-3.5349,-3.5467,-3.4588,-3.4295,-3.4159,-3.3261,-3.2988,-3.2831,-3.1953,-3.1699,-3.1563,-3.0977,-3.0801,-3.0801,-3.0801,-3.0801,-3.0801,-3.0801,-3.0801,-3.0801,-3.0801,-3.0801,-3.0801,-3.0801,-3.0801,-3.0801,-3.0801,-3.0806,-3.0795,-3.08,-3.0796,-3.0804,-3.0806,-3.0808,-3.0799,-3.0799,-3.0799,-3.0799,-3.0799,-3.0799,-3.0799,-3.0799,-3.0799,-3.0799,-3.0799,-3.0799,-3.0799,-3.0799,-3.0799,-3.0799,-3.0799,-3.0799,-3.0487,-2.9922,-3.0526,-3.0331,-1.4642,-1.6155,0.0,0.0,0.0,0.0,0.0,0.0,0.0,0.0,0.0,0.0,0.0,0.0,0.0,-3.2105,-3.3494,-3.4517,-3.4316,-3.4293,-3.4293,-3.4293,-3.4293,-3.445,-3.4768,-3.4788,-3.4788,-3.4788,-3.485,-3.4889,-3.4889,-3.502,-3.5108,-3.5171,-3.519,-3.519,-3.519,-3.519,-3.519,-3.5171,-3.4369,-3.4407,-3.519,-3.5315,-3.5393,-3.5388,-3.5593,-3.5688,-3.5679,-3.5745,-3.5823,-3.5717,-3.4053,-3.4406,-3.5674,-3.4017,-3.3944,-3.4569,-3.369,-3.3398,-3.3241,-3.2363,-3.209,-3.1934,-3.1055,-3.0801,-3.0801,-3.0801,-3.0801,-3.0801,-3.0801,-3.0801,-3.0801,-3.0801,-3.0801,-3.0801,-3.0801,-3.0801,-3.0801,-3.0801,-3.0801,-3.0801,-3.0801,-3.0793,-3.08,-3.08,-3.0795,-3.0794,-3.0794,-3.0806,-3.0799,-3.0799,-3.0799,-3.0799,-3.0799,-3.0799,-3.0799,-3.0799,-3.0799,-3.0799,-3.0799,-3.0799,-3.0799,-3.0799,-3.0799,-3.0799,-3.0799,-3.0799,-3.0779,-3.0779,-3.0779,-3.0312,-1.522,0.0,0.0,0.0,0.0,0.0,0.0,0.0,0.0,0.0,0.0,0.0,-3.1615,0.0,0.0,-3.2912,-3.3183,-3.3613,-3.4398,-3.4269,-3.4197,-3.4473,-3.4583,-3.4687,-3.4788,-3.4849,-3.487,-3.487,-3.4983,-3.4772,-3.4163,-3.4249,-3.405,-3.3455,-3.3436,-3.3436,-3.3436,-3.3436,-3.3436,-3.3436,-3.3203,-3.3574,-3.4414,-3.3829,-3.3654,-3.3785,-3.3838,-3.3914,-3.4,-3.403,-3.4086,-3.4092,-3.3598,-3.3692,-3.4072,-3.3571,-3.3554,-3.3651,-3.2792,-3.248,-3.2343,-3.1465,-3.1192,-3.1133,-3.088,-3.0801,-3.0801,-3.0801,-3.0801,-3.0801,-3.0801,-3.0801,-3.0801,-3.0801,-3.0801,-3.0801,-3.0801,-3.0801,-3.0801,-3.0801,-3.0801,-3.0801,-3.0801,-3.0793,-3.08,-3.08,-3.0808,-3.0804,-3.0802,-3.0808,-3.0799,-3.0799,-3.0799,-3.0799,-3.0799,-3.0799,-3.0799,-3.0799,-3.0799,-3.0799,-3.0799,-3.0799,-3.0799,-3.0799,-3.0799,-3.0799,-3.0799,-3.0799,-3.0175,-2.9007,-3.0234,-2.9669,-1.6219,0.0,0.0,0.0,0.0,0.0,0.0,0.0,0.0,0.0,0.0,-3.0816,-3.1483,-3.1879,0.0,-3.2799,-3.3224,-3.3664,-3.4073,-3.3896,-3.372,-3.3623,-3.3728,-3.3827,-3.3847,-3.3941,-3.3996,-3.3996,-3.4103,-3.3908,-3.3361,-3.3424,-3.3242,-3.2711,-3.2691,-3.2691,-3.2691,-3.2691,-3.2691,-3.2691,-3.2382,-3.2536,-3.3094,-3.2922,-3.2904,-3.3021,-3.3103,-3.3192,-3.3284,-3.2961,-3.3044,-3.3333,-3.2638,-3.2784,-3.3319,-3.2617,-3.2597,-3.2753,-3.1895,-3.1582,-3.1504,-3.0977,-3.0801,-3.0801,-3.0801,-3.0801,-3.0801,-3.0801,-3.0801,-3.0801,-3.0801,-3.0801,-3.0801,-3.0801,-3.0801,-3.0801,-3.0801,-3.0801,-3.0801,-3.0801,-3.0801,-3.0801,-3.0801,-3.0797,-3.08,-3.0797,-3.0799,-3.0806,-3.0804,-3.0799,-3.0799,-3.0799,-3.0799,-3.0799,-3.0799,-3.0799,-3.0799,-3.0799,-3.0799,-3.0799,-3.0799,-3.0799,-3.0799,-3.0799,-3.0799,-3.0799,-3.0799,-3.0799,-3.0253,-2.926,-3.0312,-2.9766,0.0,0.0,0.0,0.0,0.0,0.0,0.0,0.0,0.0,0.0,0.0,-3.0665,-3.0938,-3.1597,-3.2084,-3.2105,-3.3362,-3.4092,-3.3381,-3.3266,-3.3006,-3.2219,-3.2241,-3.2354,-3.2406,-3.253,-3.2618,-3.2618,-3.2664,-3.2641,-3.2504,-3.2565,-3.2539,-3.2462,-3.2462,-3.2462,-3.2462,-3.2462,-3.2462,-3.2462,-3.1732,-3.1407,-3.1488,-3.2301,-3.2673,-3.2699,-3.2909,-3.3009,-3.3018,-3.2283,-3.2455,-3.3002,-3.1421,-3.1777,-3.2968,-3.1387,-3.1309,-3.1875,-3.1075,-3.0801,-3.0801,-3.0801,-3.0801,-3.0801,-3.0801,-3.0801,-3.0801,-3.0801,-3.0801,-3.0801,-3.0801,-3.0801,-3.0801,-3.0801,-3.0801,-3.0801,-3.0801,-3.0801,-3.0801,-3.0801,-3.0801,-3.0801,-3.0801,-3.08,-3.0797,-3.0797,-3.0804,-3.0804,-3.0804,-3.0804,-3.0799,-3.0799,-3.0799,-3.0799,-3.0799,-3.0799,-3.0799,-3.0799,-3.0799,-3.0799,-3.0799,-3.0799,-3.0799,-3.0799,-3.0799,-3.0799,-3.0799,-3.0799,-3.076,-3.0682,-3.0682,-3.0214,0.0,0.0,0.0,0.0,0.0,0.0,0.0,0.0,0.0,0.0,-3.0337,-3.0698,-3.1542,-3.1824,-3.1979,-3.2084,-3.2262,-3.2387,-3.2385,-3.2325,-3.2289,-3.226,-3.2428,-3.2533,-3.2549,-3.2632,-3.2695,-3.2695,-3.2691,-3.2424,-3.1779,-3.1756,-3.1446,-3.0758,-3.0739,-3.0739,-3.0739,-3.0739,-3.0739,-3.0739,-3.0567,-3.0486,-3.0513,-3.0759,-3.0945,-3.1101,-3.1255,-3.1329,-3.132,-3.1152,-3.1187,-3.1323,-3.0955,-3.1036,-3.1309,-3.0938,-3.0919,-3.1055,-3.088,-3.0801,-3.0801,-3.0801,-3.0801,-3.0801,-3.0801,-3.0801,-3.0801,-3.0801,-3.0801,-3.0801,-3.0801,-3.0801,-3.0801,-3.0801,-3.0801,-3.0801,-3.0801,-3.0801,-3.0801,-3.0801,-3.0801,-3.0801,-3.0801,-3.0796,-3.0801,-3.0798,-3.0804,-3.0793,-3.0801,-3.0802,-3.0799,-3.0799,-3.0799,-3.0799,-3.0799,-3.0799,-3.0799,-3.0799,-3.0799,-3.0799,-3.0799,-3.0799,-3.0799,-3.0799,-3.0799,-3.0799,-3.0799,-3.0799,-3.0448,-2.9786,-2.9786,-2.9299,0.0,0.0,0.0,0.0,0.0,0.0,0.0,0.0,0.0,-2.9264,-2.9533,-2.9849,-3.0457,-3.0953,-3.1299,-3.1364,-3.1701,-3.1853,-3.1559,-3.1504,-3.1411,-3.1148,-3.1286,-3.1401,-3.1401,-3.1459,-3.1503,-3.1503,-3.1503,-3.1331,-3.0892,-3.0873,-3.0663,-3.0204,-3.0204,-3.0204,-3.0204,-3.0204,-3.0213,-3.0247,-3.0247,-3.0254,-3.0304,-3.0304,-3.0367,-3.052,-3.0646,-3.0745,-3.0804,-3.0807,-3.0801,-3.0801,-3.0801,-3.0801,-3.0801,-3.0801,-3.0801,-3.0801,-3.0801,-3.0801,-3.0801,-3.0801,-3.0801,-3.0801,-3.0801,-3.0801,-3.0801,-3.0801,-3.0801,-3.0801,-3.0801,-3.0801,-3.0801,-3.0801,-3.0801,-3.0801,-3.0801,-3.0801,-3.0801,-3.0801,-3.0801,-3.0801,-3.0801,-3.0797,-3.08,-3.0792,-3.0798,-3.0808,-3.081,-3.0793,-3.0799,-3.0799,-3.0799,-3.0799,-3.0799,-3.0799,-3.0799,-3.0799,-3.0799,-3.0799,-3.0799,-3.0799,-3.0799,-3.0799,-3.0799,-3.0799,-3.0799,-3.037,-2.9942,-2.9494,-2.9065,-2.8641,0.0,0.0,0.0,0.0,0.0,0.0,0.0,0.0,0.0,-2.8569,-2.8737,-2.8887,-2.9056,-2.9746,-3.0318,-3.0339,-3.1042,-3.1369,-3.0752,-3.0734,-3.0544,-2.9918,-3.0007,-3.0117,-3.0117,-3.0176,-3.0204,-3.0204,-3.0204,-3.0204,-3.0204,-3.0204,-3.0204,-3.0204,-3.0204,-3.0204,-3.0204,-3.0213,-3.0247,-3.0304,-3.0309,-3.0356,-3.0402,-3.0367,-3.0378,-3.0453,-3.0586,-3.0695,-3.0793,-3.081,-3.0801,-3.0801,-3.0801,-3.0801,-3.0801,-3.0801,-3.0801,-3.0801,-3.0801,-3.0801,-3.0801,-3.0801,-3.0801,-3.0801,-3.0801,-3.0801,-3.0801,-3.0801,-3.0801,-3.0801,-3.0801,-3.0801,-3.0801,-3.0801,-3.0801,-3.0801,-3.0801,-3.0801,-3.0801,-3.0801,-3.0801,-3.0801,-3.0801,-3.08,-3.0797,-3.0793,-3.0807,-3.0802,-3.0802,-3.0808,-3.0799,-3.0799,-3.0799,-3.0799,-3.0799,-3.0799,-3.0799,-3.0799,-3.0799,-3.0799,-3.0799,-3.0799,-3.0799,-3.0799,-3.0799,-3.0721,-3.0565,-2.9844,-2.9416,-2.924,-2.8388,-2.8056,0.0,0.0,0.0,0.0,0.0,0.0,0.0,0.0,-2.7779,0.0,-2.8612,-2.8712,-2.8887,-2.9049,-2.9173,-2.9274,-2.941,-2.9553,-2.9663,-2.9795,-2.992,-3.0041,-3.0128,-3.019,-3.019,-3.0185,-3.0204,-3.0204,-3.0204,-3.0204,-3.0204,-3.0204,-3.0204,-3.0204,-3.0204,-3.0204,-3.0204,-3.026,-3.0292,-3.0304,-3.0348,-3.0392,-3.0402,-3.0501,-3.0557,-3.0587,-3.0722,-3.0769,-3.0794,-3.0794,-3.0801,-3.0801,-3.0801,-3.0801,-3.0801,-3.0801,-3.0801,-3.0801,-3.0801,-3.0801,-3.0801,-3.0801,-3.0801,-3.0801,-3.0801,-3.0801,-3.0801,-3.0801,-3.0801,-3.0801,-3.0801,-3.0801,-3.0801,-3.0801,-3.0801,-3.0801,-3.0801,-3.0801,-3.0801,-3.0801,-3.0801,-3.0801,-3.0801,-3.0797,-3.08,-3.0792,-3.0801,-3.0792,-3.0792,-3.0798,-3.0799,-3.0799,-3.0799,-3.0799,-3.0799,-3.0799,-3.0799,-3.0799,-3.0799,-3.0799,-3.0799,-3.0799,-3.0799,-3.0799,-3.0799,-3.0429,-2.9669,-2.9552,-2.9104,-2.8349,-2.7472,-2.7472,0.0,0.0,0.0,0.0,0.0,0.0,0.0,0.0,-2.6838,-2.7182,-2.7272,-2.7568,-2.8548,-2.8815,-2.891,-2.8984,-2.9038,-2.9151,-2.9316,-2.9533,-2.9753,-2.991,-3.0083,-3.0204,-3.0204,-3.0204,-3.0204,-3.0204,-3.0204,-3.0204,-3.0204,-3.0204,-3.0204,-3.0204,-3.0204,-3.0213,-3.026,-3.0279,-3.0364,-3.0462,-3.0539,-3.0574,-3.0574,-3.0622,-3.0637,-3.061,-3.0734,-3.0798,-3.0801,-3.0796,-3.0801,-3.0801,-3.0801,-3.0801,-3.0801,-3.0801,-3.0801,-3.0801,-3.0801,-3.0801,-3.0801,-3.0801,-3.0801,-3.0801,-3.0801,-3.0801,-3.0801,-3.0801,-3.0801,-3.0801,-3.0801,-3.0801,-3.0801,-3.0801,-3.0801,-3.0801,-3.0801,-3.0801,-3.0801,-3.0801,-3.0801,-3.0801,-3.0801,-3.0797,-3.08,-3.0804,-3.0799,-3.0804,-3.0804,-3.0802,-3.0799,-3.0799,-3.0799,-3.0799,-3.0799,-3.0799,-3.0799,-3.0799,-3.0799,-3.0799,-3.0799,-3.0799,-3.0799,-3.0799,-3.0799,-3.037,-2.9494,-2.9007,-2.8329,-2.7452,-2.6615,-2.6439,0.0,0.0,0.0,0.0,0.0,0.0,0.0,0.0,-2.595,0.0,-2.6204,-2.6584,-2.7779,-2.8282,-2.8523,-2.8523,-2.8769,-2.9016,-2.9166,-2.9377,-2.9608,-2.9806,-3.0003,-3.0142,-3.0204,-3.0204,-3.0204,-3.0204,-3.0204,-3.0089,-2.9879,-2.9879,-2.9784,-2.9574,-2.9555,-2.9608,-2.967,-2.9698,-2.9911,-3.0292,-3.0339,-3.0484,-3.0704,-3.0691,-3.0671,-3.0659,-3.075,-3.0806,-3.0804,-3.0796,-3.0801,-3.0801,-3.0801,-3.0801,-3.0801,-3.0801,-3.0801,-3.0801,-3.0801,-3.0801,-3.0801,-3.0801,-3.0801,-3.0801,-3.0801,-3.0801,-3.0801,-3.0801,-3.0801,-3.0801,-3.0801,-3.0801,-3.0801,-3.0801,-3.0801,-3.0801,-3.0801,-3.0801,-3.0801,-3.0801,-3.0801,-3.0801,-3.0801,-3.0793,-3.0797,-3.0804,-3.0799,-3.0801,-3.0804,-3.0799,-3.0799,-3.0799,-3.0799,-3.0799,-3.0799,-3.0799,-3.0799,-3.0799,-3.0799,-3.0799,-3.0799,-3.0799,-3.0701,-3.0468,-3.0468,-3.0039,-2.9162,-2.829,-2.7433,-2.6576,-2.5972,-2.5699,0.0,0.0,0.0,0.0,0.0,0.0,0.0,0.0,-2.528,-2.6041,-2.6204,-2.624,-2.6312,-2.6964,-2.7471,-2.7471,-2.8105,-2.8743,-2.906,-2.9107,-2.9318,-2.9839,-2.9924,-2.9988,-3.0171,-3.0204,-3.0204,-3.0204,-3.0204,-2.9841,-2.9006,-2.8968,-2.8624,-2.7854,-2.7835,-2.7867,-2.7931,-2.8068,-2.8578,-2.946,-2.9467,-2.9894,-3.0697,-3.0703,-3.073,-3.0794,-3.0794,-3.0807,-3.0799,-3.0801,-3.0801,-3.0801,-3.0801,-3.0801,-3.0801,-3.0801,-3.0801,-3.0801,-3.0801,-3.0801,-3.0801,-3.0801,-3.0801,-3.0801,-3.0801,-3.0801,-3.0801,-3.0801,-3.0801,-3.0801,-3.0801,-3.0801,-3.0801,-3.0801,-3.0801,-3.0801,-3.0801,-3.0801,-3.0801,-3.0801,-3.0801,-3.0801,-3.0801,-3.0801,-3.0801,-3.0801,-3.0804,-3.08,-3.0798,-3.0799,-3.0799,-3.0799,-3.0799,-3.0799,-3.0799,-3.0799,-3.0799,-3.0799,-3.0799,-3.0799,-3.0799,-3.0799,-3.0409,-2.9572,-2.9572,-2.9143,-2.8271,-2.7394,-2.6556,-2.5757,-2.5718,-2.5699,0.0,0.0,0.0,0.0,0.0,0.0,-2.2636,-2.3524,-2.4302,-2.4592,-2.4664,-2.4664,-2.4664,-2.5751,-2.6638,-2.6638,-2.6874,-2.7126,-2.7336,-2.7594,-2.783,-2.8062,-2.8328,-2.8512,-2.8599,-2.8599,-2.8599,-2.8599,-2.8599,-2.8466,-2.816,-2.8141,-2.8007,-2.772,-2.7701,-2.7757,-2.7864,-2.7959,-2.8187,-2.8566,-2.8566,-2.9026,-2.9875,-2.9916,-2.9942,-2.9979,-3.0004,-3.0328,-3.0801,-3.0801,-3.0801,-3.0801,-3.0801,-3.0801,-3.0801,-3.0801,-3.0801,-3.0801,-3.0801,-3.0801,-3.0801,-3.0801,-3.0801,-3.0801,-3.0801,-3.0801,-3.0801,-3.0801,-3.0801,-3.0801,-3.0801,-3.0801,-3.0801,-3.0801,-3.0801,-3.0801,-3.0801,-3.0801,-3.0801,-3.0801,-3.0801,-3.0801,-3.0801,-3.0801,-3.0801,-3.0801,-3.0801,-3.08,-3.0802,-3.0799,-3.0799,-3.0799,-3.0799,-3.0799,-3.0799,-3.0799,-3.0799,-3.0799,-3.0799,-3.0799,-3.0799,-3.0253,-2.9825,-2.9513,-2.8407,-2.7686,-2.7355,-2.7043,-2.6498,-2.5699,-2.5699,-2.5699,0.0,0.0,0.0,0.0,0.0,0.0,-2.1604,-2.2491,-2.3107,-2.3379,-2.3632,-2.3795,-2.3795,-2.4664,-2.5479,-2.5751,-2.6023,-2.6272,-2.6385,-2.6685,-2.6953,-2.7093,-2.7388,-2.763,-2.7688,-2.7701,-2.7701,-2.7701,-2.7701,-2.7568,-2.7281,-2.7262,-2.7147,-2.6861,-2.6866,-2.6949,-2.7026,-2.7127,-2.7326,-2.7653,-2.7686,-2.8158,-2.8993,-2.9036,-2.9078,-2.909,-2.9135,-2.9474,-2.9982,-3.0274,-3.0392,-3.0411,-3.0684,-3.0801,-3.0801,-3.0801,-3.0801,-3.0801,-3.0801,-3.0801,-3.0801,-3.0801,-3.0801,-3.0801,-3.0801,-3.0801,-3.0801,-3.0801,-3.0801,-3.0801,-3.0801,-3.0801,-3.0723,-3.047,-3.0392,-3.0313,-3.0021,-3.0392,-3.0801,-3.0801,-3.0801,-3.0801,-3.0801,-3.0801,-3.0801,-3.0801,-3.0801,-3.0797,-3.0807,-3.0798,-3.081,-3.0804,-3.0799,-3.0799,-3.0799,-3.0799,-3.0799,-3.0799,-3.0526,-3.0351,-3.0351,-2.9533,-2.8929,-2.8641,-2.7491,-2.6771,-2.6498,-2.6498,-2.6225,-2.5699,-2.5699,-2.5699,0.0,0.0,0.0,0.0,0.0,0.0,-2.164,0.0,-2.1658,-2.2491,-2.3234,-2.3741,-2.3777,-2.3795,-2.4049,-2.4846,-2.5669,-2.6241,-2.6312,-2.6489,-2.6729,-2.7001,-2.7201,-2.7409,-2.7612,-2.7625,-2.7625,-2.7625,-2.7625,-2.7262,-2.6402,-2.6364,-2.6001,-2.5229,-2.5269,-2.5311,-2.5311,-2.5432,-2.5921,-2.6769,-2.6819,-2.7326,-2.8149,-2.8154,-2.8193,-2.8264,-2.8264,-2.8244,-2.8283,-2.9181,-2.9552,-2.963,-3.0411,-3.0723,-3.0723,-3.0723,-3.0723,-3.0723,-3.0723,-3.0723,-3.0723,-3.0723,-3.0743,-3.0762,-3.0723,-3.0743,-3.0762,-3.0723,-3.0723,-3.0723,-3.0723,-3.0723,-3.0528,-2.9747,-2.9552,-2.9338,-2.8479,-2.9572,-3.0723,-3.0762,-3.0782,-3.0801,-3.0801,-3.0801,-3.0801,-3.0801,-3.0801,-3.0792,-3.0799,-3.0797,-3.0806,-3.0808,-3.0799,-3.0799,-3.0799,-3.0779,-3.076,-3.076,-2.9942,-2.9455,-2.9455,-2.8617,-2.7764,-2.6926,-2.6887,-2.6478,-2.5699,-2.5699,-2.5699,-2.5699,-2.5699,-2.5699,-1.0787,0.0,0.0,0.0,0.0,0.0,0.0,0.0,-2.0155,-2.155,-2.2002,-2.2473,-2.3578,-2.3795,-2.3868,-2.4103,-2.4342,-2.4529,-2.4652,-2.4833,-2.5059,-2.5333,-2.5502,-2.5658,-2.5867,-2.5898,-2.5898,-2.5898,-2.5898,-2.5803,-2.5535,-2.5535,-2.544,-2.521,-2.5214,-2.5248,-2.5311,-2.5332,-2.5522,-2.587,-2.5885,-2.6366,-2.7269,-2.7253,-2.7293,-2.7368,-2.7362,-2.6995,-2.6546,-2.8049,-2.8654,-2.8674,-2.8908,-2.8986,-2.8986,-2.8986,-2.8986,-2.8986,-2.8986,-2.8986,-2.8986,-2.8986,-2.9416,-2.9806,-2.9181,-2.9435,-2.9806,-2.9162,-2.8986,-2.8986,-2.8986,-2.8986,-2.8947,-2.8713,-2.8654,-2.8596,-2.8342,-2.8654,-2.9181,-2.9806,-3.0392,-3.0801,-3.0801,-3.0801,-3.0801,-3.0801,-3.0801,-3.0804,-3.0793,-3.08,-3.0794,-3.0808,-3.0799,-3.0799,-3.0799,-3.0214,-2.9864,-2.9864,-2.9046,-2.8563,-2.8563,-2.7725,-2.716,-2.6907,-2.6322,-2.5913,-2.5699,-2.5699,-2.5699,-2.5699,-2.5699,-2.5699,0.0,0.0,0.0,0.0,0.0,0.0,-1.7385,-1.8179,-1.9051,-2.0662,-2.1278,-2.1767,-2.2672,-2.3107,-2.3343,-2.3343,-2.3596,-2.3855,-2.3976,-2.4173,-2.4355,-2.4543,-2.4716,-2.4893,-2.5057,-2.5069,-2.5113,-2.5191,-2.5191,-2.5191,-2.5191,-2.5191,-2.5191,-2.5191,-2.5191,-2.5214,-2.5258,-2.5282,-2.5332,-2.5412,-2.5445,-2.577,-2.6364,-2.6335,-2.6365,-2.6457,-2.6466,-2.6175,-2.5785,-2.68,-2.7425,-2.7795,-2.8166,-2.8303,-2.8303,-2.8303,-2.8303,-2.8303,-2.8303,-2.8303,-2.8303,-2.8303,-2.8635,-2.8967,-2.8459,-2.8654,-2.8947,-2.844,-2.8303,-2.8303,-2.8303,-2.8303,-2.8205,-2.7835,-2.7835,-2.7795,-2.7327,-2.7229,-2.7581,-2.881,-2.9611,-3.0235,-3.0723,-3.0801,-3.0801,-3.0801,-3.0801,-3.0801,-3.0801,-3.0797,-3.079,-3.0804,-3.0375,-3.0083,-3.0083,-2.9401,-2.8948,-2.8948,-2.8134,-2.7667,-2.7667,-2.6848,-2.64,-2.64,-2.5933,-2.5699,-2.5699,-2.5699,-2.5699,-2.5699,-2.5699,-2.5699,0.0,-1.3377,0.0,0.0,-1.5373,0.0,-1.7918,-1.8145,-1.8179,-1.9612,-2.0463,-2.1025,-2.1206,-2.1894,-2.2437,-2.2437,-2.3125,-2.3746,-2.3958,-2.4155,-2.4301,-2.4389,-2.4559,-2.4734,-2.4888,-2.4902,-2.4987,-2.518,-2.5191,-2.5191,-2.5191,-2.5191,-2.5191,-2.5191,-2.5191,-2.5191,-2.5191,-2.5271,-2.5303,-2.5303,-2.5359,-2.5471,-2.56,-2.5532,-2.557,-2.5683,-2.5705,-2.5707,-2.5707,-2.5707,-2.6156,-2.6939,-2.7717,-2.801,-2.801,-2.801,-2.801,-2.801,-2.801,-2.801,-2.801,-2.801,-2.8088,-2.8147,-2.8049,-2.8088,-2.8147,-2.8049,-2.801,-2.801,-2.801,-2.801,-2.7815,-2.7036,-2.7034,-2.6935,-2.5922,-2.5707,-2.6156,-2.7717,-2.8557,-2.9396,-3.0587,-3.0801,-3.0665,-3.0294,-3.0567,-3.0801,-3.0801,-3.0478,-3.0234,-3.0234,-2.944,-2.8918,-2.8918,-2.8388,-2.8056,-2.808,-2.7258,-2.6771,-2.6775,-2.6069,-2.5699,-2.5699,-2.5699,-2.5699,-2.5699,-2.5699,-2.5699,-2.5699,-2.5699,-2.5699,-1.4572,-1.5243,-1.6126,-1.545,-1.6534,0.0,-1.5482,-1.6045,-1.7019,-1.7346,-1.7527,-1.8034,-1.9322,-2.0228,-2.0771,-2.0771,-2.1984,-2.3184,-2.3885,-2.4018,-2.4135,-2.4372,-2.4424,-2.4572,-2.4874,-2.4902,-2.4987,-2.518,-2.5191,-2.5191,-2.5191,-2.5191,-2.5191,-2.5191,-2.5191,-2.5191,-2.5191,-2.5217,-2.5252,-2.5303,-2.537,-2.5437,-2.5518,-2.5565,-2.5585,-2.5613,-2.5679,-2.5707,-2.5707,-2.5707,-2.5805,-2.5961,-2.6136,-2.6214,-2.6214,-2.6214,-2.6214,-2.6214,-2.6214,-2.6214,-2.6214,-2.6214,-2.6683,-2.7112,-2.6429,-2.6702,-2.7112,-2.639,-2.6214,-2.6214,-2.6214,-2.6214,-2.6156,-2.598,-2.6,-2.5961,-2.5746,-2.5707,-2.5805,-2.6136,-2.7425,-2.8967,-3.0528,-3.0801,-2.9865,-2.7112,-2.9045,-3.0801,-3.0801,-2.8392,-2.6693,-2.6693,-2.7316,-2.7725,-2.7725,-2.7374,-2.7188,-2.7231,-2.6412,-2.5925,-2.5927,-2.5769,-2.5699,-2.5699,-2.5699,-2.5699,-2.5699,-2.5699,-2.5699,-2.5699,-2.5699,-2.5699,-1.5923,-1.622,-1.6758,-1.6593,-1.7195,0.0,0.0,-1.6401,-1.69,-1.8103,-1.7465,-1.7182,-1.8797,-1.9431,-1.9703,-1.9703,-2.1061,-2.2239,-2.268,-2.3466,-2.4075,-2.4284,-2.4303,-2.4444,-2.4779,-2.4808,-2.4907,-2.518,-2.5191,-2.5191,-2.5191,-2.5191,-2.5191,-2.5191,-2.5191,-2.5191,-2.5191,-2.5187,-2.5212,-2.5253,-2.5322,-2.5397,-2.5444,-2.5473,-2.5535,-2.5601,-2.5642,-2.5676,-2.5707,-2.5707,-2.5707,-2.5707,-2.5707,-2.5707,-2.5707,-2.5707,-2.5707,-2.5707,-2.5707,-2.5707,-2.5707,-2.5707,-2.6,-2.6273,-2.5824,-2.6019,-2.6253,-2.5824,-2.5707,-2.5707,-2.5707,-2.5707,-2.5707,-2.5707,-2.5707,-2.5707,-2.5707,-2.5707,-2.5707,-2.5707,-2.641,-2.7268,-2.8108,-2.8264,-2.7678,-2.5961,-2.7151,-2.8254,-2.8261,-2.6752,-2.5699,-2.5699,-2.6205,-2.6556,-2.6556,-2.6396,-2.6311,-2.6342,-2.5932,-2.5698,-2.5698,-2.5707,-2.5694,-2.5699,-2.5699,-2.5699,-2.5699,-2.5699,-2.5699,-2.5699,-2.5699,-2.5699,-1.7451,-1.7417,-1.7635,-1.7954,-1.7915,-1.7849,0.0,0.0,0.0,-1.9022,-1.7938,-1.7092,-1.8415,-1.8651,-1.8651,-1.8651,-1.9992,-2.0989,-2.0862,-2.2263,-2.3415,-2.3694,-2.3731,-2.3915,-2.4367,-2.4313,-2.453,-2.5149,-2.4885,-2.4847,-2.5172,-2.5191,-2.5191,-2.5191,-2.5191,-2.5191,-2.5191,-2.5209,-2.5192,-2.5192,-2.5262,-2.5332,-2.5382,-2.539,-2.5466,-2.5556,-2.5593,-2.5639,-2.5681,-2.5685,-2.5707,-2.5707,-2.5707,-2.5707,-2.5707,-2.5707,-2.5707,-2.5707,-2.5707,-2.5707,-2.5707,-2.5707,-2.5707,-2.5707,-2.5707,-2.5707,-2.5707,-2.5707,-2.5707,-2.5707,-2.5707,-2.5707,-2.5707,-2.5707,-2.5707,-2.5707,-2.5707,-2.5707,-2.5707,-2.5707,-2.5707,-2.5707,-2.5707,-2.5707,-2.5707,-2.5707,-2.5707,-2.5702,-2.5694,-2.5697,-2.569,-2.569,-2.5704,-2.5697,-2.5697,-2.5696,-2.5705,-2.5705,-2.5694,-2.5693,-2.5701,-2.5696,-2.5704,-2.5699,-2.5699,-2.5699,-2.5699,-2.5699,-2.5699,-2.5699,-2.5699,-2.5699,-1.9833,-2.0145,-2.0238,-1.8308,-1.9469,-2.0246,-1.7077,0.0,-1.8253,-1.7284,0.0,-1.6766,-1.6947,0.0,0.0,-1.6965,-1.8324,-1.914,-1.8497,-1.9788,-2.1097,-2.188,-2.2043,-2.2405,-2.3291,-2.2952,-2.3373,-2.5065,-2.3777,-2.3556,-2.5115,-2.5191,-2.5191,-2.5191,-2.5191,-2.5191,-2.5191,-2.5209,-2.5192,-2.5192,-2.5264,-2.5313,-2.5303,-2.5374,-2.5422,-2.5425,-2.5542,-2.5605,-2.5609,-2.5679,-2.5707,-2.5707,-2.5707,-2.5707,-2.5707,-2.5707,-2.5707,-2.5707,-2.5707,-2.5707,-2.5707,-2.5707,-2.5707,-2.5707,-2.5707,-2.5707,-2.5707,-2.5707,-2.5707,-2.5707,-2.5707,-2.5707,-2.5707,-2.5707,-2.5707,-2.5707,-2.5707,-2.5707,-2.5707,-2.5707,-2.5707,-2.5707,-2.5707,-2.5707,-2.5707,-2.5707,-2.5707,-2.5702,-2.5694,-2.57,-2.5696,-2.5696,-2.5703,-2.5697,-2.5697,-2.5698,-2.5698,-2.5698,-2.5709,-2.5701,-2.5698,-2.5697,-2.5703,-2.5699,-2.5699,-2.5699,-2.5699,-2.5699,-2.5699,-2.5699,-2.5699,-2.5699,-2.0086,-2.0348,-2.0465,-1.9341,-1.9686,-1.9866,-1.826,-1.7901,-1.8056,-1.852,0.0,0.0,0.0,0.0,0.0,0.0,-1.7273,-1.7436,-1.6653,-1.7572,-1.8786,-2.0091,-2.0305,-2.0731,-2.1711,-2.1685,-2.2136,-2.3484,-2.2467,-2.2566,-2.4358,-2.4454,-2.4683,-2.5172,-2.5191,-2.5191,-2.5191,-2.5209,-2.5192,-2.5192,-2.5264,-2.5303,-2.5303,-2.5331,-2.5365,-2.5395,-2.546,-2.5526,-2.5601,-2.5639,-2.5654,-2.5707,-2.5707,-2.5707,-2.5707,-2.5707,-2.5707,-2.5707,-2.5707,-2.5707,-2.5707,-2.5707,-2.5707,-2.5707,-2.5707,-2.5707,-2.5707,-2.5707,-2.5707,-2.5707,-2.5707,-2.5707,-2.5707,-2.5707,-2.5707,-2.5707,-2.5707,-2.5707,-2.5707,-2.5707,-2.5707,-2.5707,-2.5707,-2.5707,-2.5707,-2.5707,-2.5707,-2.5696,-2.5703,-2.5699,-2.5707,-2.5707,-2.5697,-2.5701,-2.5701,-2.5703,-2.5703,-2.5703,-2.5702,-2.5699,-2.5694,-2.5698,-2.5697,-2.5699,-2.5699,-2.5699,-2.5699,-2.5699,-2.5699,-2.5699,-2.5699,-2.5699,-2.0764,-2.0874,-2.0818,-1.9982,-1.9692,-1.945,-1.8892,-1.8393,-1.8374,-1.9523,-1.8641,0.0,0.0,0.0,0.0,0.0,0.0,-1.6349,-1.5307,-1.5896,-1.6882,-1.807,-1.8663,-1.928,-2.0038,-1.9993,-2.0527,-2.1957,-2.1107,-2.1409,-2.343,-2.3766,-2.4186,-2.4828,-2.5077,-2.5191,-2.5191,-2.5209,-2.5192,-2.5192,-2.5264,-2.5303,-2.5303,-2.5303,-2.5331,-2.5374,-2.5379,-2.5453,-2.5542,-2.557,-2.5636,-2.5679,-2.5685,-2.5707,-2.5707,-2.5707,-2.5707,-2.5707,-2.5707,-2.5707,-2.5707,-2.5707,-2.5707,-2.5707,-2.5707,-2.5707,-2.5707,-2.5707,-2.5707,-2.5707,-2.5707,-2.5707,-2.5707,-2.5707,-2.5707,-2.5707,-2.5707,-2.5707,-2.5707,-2.5707,-2.5707,-2.5707,-2.5707,-2.5707,-2.5707,-2.5707,-2.5707,-2.5707,-2.5707,-2.5707,-2.5707,-2.5707,-2.5707,-2.5707,-2.5707,-2.5697,-2.57,-2.57,-2.5703,-2.5703,-2.57,-2.5709,-2.5693,-2.5691,-2.5703,-2.5699,-2.5699,-2.5699,-2.5699,-2.5699,-2.5699,-2.5699,-2.2678,-2.2616,-2.2082,-1.9814,-1.9803,-1.9888,-1.8073,-1.8824,-1.9756,-1.9252,-1.9685,-1.9956,-1.9232,0.0,0.0,0.0,0.0,0.0,0.0,-1.5035,-1.5587,-1.5696,-1.715,-1.8213,-1.8371,-1.7684,-1.834,-2.1039,-1.9713,-1.9906,-2.2505,-2.3441,-2.3919,-2.3938,-2.4771,-2.5191,-2.5191,-2.5209,-2.5192,-2.5192,-2.5264,-2.5303,-2.5303,-2.5303,-2.5313,-2.5313,-2.5374,-2.5395,-2.541,-2.5542,-2.5601,-2.5605,-2.5679,-2.5707,-2.5707,-2.5707,-2.5707,-2.5707,-2.5707,-2.5707,-2.5707,-2.5707,-2.5707,-2.5707,-2.5707,-2.5707,-2.5707,-2.5707,-2.5707,-2.5707,-2.5707,-2.5707,-2.5707,-2.5707,-2.5707,-2.5707,-2.5707,-2.5707,-2.5707,-2.5707,-2.5707,-2.5707,-2.5707,-2.5707,-2.5707,-2.5707,-2.5707,-2.5707,-2.5707,-2.5707,-2.5707,-2.5707,-2.5707,-2.5707,-2.5707,-2.5707,-2.5707,-2.5707,-2.5703,-2.57,-2.57,-2.5709,-2.5698,-2.5698,-2.5694,-2.5699,-2.5699,-2.5699,-2.5699,-2.5699,-2.5699,-2.5699,-2.2845,-2.3084,-2.2864,-2.1365,-2.0907,-2.0569,-1.943,-1.9611,-1.9829,-1.9216,-1.9739,-2.0047,-1.925,0.0,0.0,0.0,0.0,0.0,0.0,0.0,-1.331,-1.3878,0.0,0.0,0.0,-1.6011,-1.6812,-1.8364,-1.7963,-1.8825,-2.1521,-2.2464,-2.321,-2.3869,-2.4752,-2.5191,-2.5191,-2.5209,-2.5192,-2.5192,-2.5264,-2.5303,-2.5303,-2.5303,-2.5303,-2.5313,-2.5322,-2.5357,-2.5395,-2.5446,-2.5521,-2.5601,-2.5616,-2.5654,-2.5707,-2.5707,-2.5707,-2.5707,-2.5707,-2.5707,-2.5707,-2.5707,-2.5707,-2.5707,-2.5707,-2.5707,-2.5707,-2.5707,-2.5707,-2.5707,-2.5707,-2.5707,-2.5707,-2.5707,-2.5707,-2.5707,-2.5707,-2.5707,-2.5707,-2.5707,-2.5707,-2.5707,-2.5707,-2.5707,-2.5707,-2.5707,-2.5707,-2.5707,-2.5707,-2.5707,-2.5707,-2.5707,-2.5707,-2.5707,-2.5707,-2.5707,-2.5707,-2.5707,-2.5696,-2.5701,-2.5703,-2.5703,-2.5698,-2.5701,-2.5693,-2.5697,-2.5699,-2.5699,-2.5699,-2.5699,-2.5699,-2.5699,-2.3118,-2.3371,-2.3191,-2.1932,-2.1572,-2.1202,-1.9955,-2.0117,-2.0353,-1.9667,-1.9938,-2.0228,-1.9992,0.0,0.0,0.0,0.0,0.0,0.0,-1.2749,-1.2948,0.0,0.0,0.0,0.0,-1.4708,-1.536,-1.6592,-1.6667,-1.7723,-2.0119,-2.1604,-2.2707,-2.3378,-2.4568,-2.5195,-2.5195,-2.519,-2.5212,-2.5241,-2.5283,-2.5303,-2.5303,-2.5303,-2.5303,-2.5303,-2.5303,-2.5322,-2.5365,-2.5398,-2.5453,-2.5532,-2.5571,-2.5605,-2.5676,-2.5685,-2.5707,-2.5707,-2.5707,-2.5707,-2.5707,-2.5707,-2.5707,-2.5707,-2.5707,-2.5707,-2.5707,-2.5707,-2.5707,-2.5707,-2.5707,-2.5707,-2.5707,-2.5707,-2.5707,-2.5707,-2.5707,-2.5707,-2.5707,-2.5707,-2.5707,-2.5707,-2.5707,-2.5707,-2.5707,-2.5707,-2.5707,-2.5707,-2.5707,-2.5707,-2.5707,-2.5707,-2.5707,-2.5707,-2.5707,-2.5707,-2.5707,-2.5707,-2.5707,-2.5691,-2.5699,-2.5703,-2.5702,-2.5709,-2.5696,-2.5697,-2.5699,-2.5699,-2.5699,-2.5699,-2.5699,-2.5699]}]]